[[{"header":{"parameterUnit":"m.s-1","parameterCategory":1,"la1":30.6,"la2":28.766,"lo1":-90.7593,"lo2":-88.6598,"dy":0.0162,"dx":0.0183,"nx":116,"ny":114,"refTime":"2024-04-16T06:00:00:Z","depth":0,"parameterNumber":2,"parameterNumberName":"U-component_of_WINDS"},"data":[0.0,0.0,0.0,0.0,0.0,0.0,0.0,0.0,0.0,0.0,0.0,0.0,0.0,0.0,0.0,0.0,0.0,0.0,0.0,0.0,0.0,0.0,0.0,0.0,0.0,0.0,0.0,0.0,0.0,0.0,0.0,0.0,0.0,0.0,0.0,0.0,0.0,0.0,0.0,0.0,0.0,0.0,0.0,0.0,0.0,0.0,0.0,0.0,0.0,0.0,0.0,0.0,0.0,0.0,0.0,0.0,0.0,0.0,0.0,0.0,0.0,0.0,0.0,0.0,0.0,0.0,0.0,0.0,0.0,0.0,0.0,0.0,0.0,0.0,0.0,0.0,0.0,0.0,0.0,0.0,0.0,0.0,0.0,0.0,0.0,0.0,0.0,0.0,0.0,0.0,0.0,0.0,0.0,0.0,0.0,0.0,0.0,0.0,0.0,0.0,0.0,0.0,0.0,0.0,0.0,0.0,0.0,0.0,0.0,0.0,0.0,0.0,0.0,0.0,0.0,0.0,0.0,0.0,0.0,0.0,0.0,0.0,0.0,0.0,0.0,0.0,0.0,0.0,0.0,0.0,0.0,0.0,0.0,0.0,0.0,0.0,0.0,0.0,0.0,0.0,0.0,0.0,0.0,0.0,0.0,0.0,0.0,0.0,0.0,0.0,0.0,0.0,0.0,0.0,0.0,0.0,0.0,0.0,0.0,0.0,0.0,0.0,0.0,0.0,0.0,0.0,0.0,0.0,0.0,0.0,0.0,0.0,0.0,0.0,0.0,0.0,0.0,0.0,0.0,0.0,0.0,0.0,0.0,0.0,0.0,0.0,0.0,0.0,0.0,0.0,0.0,0.0,0.0,0.0,0.0,0.0,0.0,0.0,0.0,0.0,0.0,0.0,0.0,0.0,0.0,0.0,0.0,0.0,0.0,0.0,0.0,0.0,0.0,0.0,0.0,0.0,0.0,0.0,0.0,0.0,0.0,0.0,0.0,0.0,0.0,0.0,0.0,0.0,0.0,0.0,0.0,0.0,0.0,0.0,0.0,0.0,0.0,0.0,0.0,0.0,0.0,0.0,0.0,0.0,0.0,0.0,0.0,0.0,0.0,0.0,0.0,0.0,0.0,0.0,0.0,0.0,0.0,0.0,0.0,0.0,0.0,0.0,0.0,0.0,0.0,0.0,0.0,0.0,0.0,0.0,0.0,0.0,0.0,0.0,0.0,0.0,0.0,0.0,0.0,0.0,0.0,0.0,0.0,0.0,0.0,0.0,0.0,0.0,0.0,0.0,0.0,0.0,0.0,0.0,0.0,0.0,0.0,0.0,0.0,0.0,0.0,0.0,0.0,0.0,0.0,0.0,0.0,0.0,0.0,0.0,0.0,0.0,0.0,0.0,0.0,0.0,0.0,0.0,0.0,0.0,0.0,0.0,0.0,0.0,0.0,0.0,0.0,0.0,0.0,0.0,0.0,0.0,0.0,0.0,0.0,0.0,0.0,0.0,0.0,0.0,0.0,0.0,0.0,0.0,0.0,0.0,0.0,0.0,0.0,0.0,0.0,0.0,0.0,0.0,0.0,0.0,0.0,0.0,0.0,0.0,0.0,0.0,0.0,0.0,0.0,0.0,0.0,0.0,0.0,0.0,0.0,0.0,0.0,0.0,0.0,0.0,0.0,0.0,0.0,0.0,0.0,0.0,0.0,0.0,0.0,0.0,0.0,0.0,0.0,0.0,0.0,0.0,0.0,0.0,0.0,0.0,0.0,0.0,0.0,0.0,0.0,0.0,0.0,0.0,0.0,0.0,0.0,0.0,0.0,0.0,0.0,0.0,0.0,0.0,0.0,0.0,0.0,0.0,0.0,0.0,0.0,0.0,0.0,0.0,0.0,0.0,0.0,0.0,0.0,0.0,0.0,0.0,0.0,0.0,0.0,0.0,0.0,0.0,0.0,0.0,0.0,0.0,0.0,0.0,0.0,0.0,0.0,0.0,0.0,0.0,0.0,0.0,0.0,0.0,0.0,0.0,0.0,0.0,0.0,0.0,0.0,0.0,0.0,0.0,0.0,0.0,0.0,0.0,0.0,0.0,0.0,0.0,0.0,0.0,0.0,0.0,0.0,0.0,0.0,0.0,0.0,0.0,0.0,0.0,0.0,0.0,0.0,0.0,0.0,0.0,0.0,0.0,0.0,0.0,0.0,0.0,0.0,0.0,0.0,0.0,0.0,0.0,0.0,0.0,0.0,0.0,0.0,0.0,0.0,0.0,0.0,0.0,0.0,0.0,0.0,0.0,0.0,0.0,0.0,0.0,0.0,0.0,0.0,0.0,0.0,0.0,0.0,0.0,0.0,0.0,0.0,0.0,0.0,0.0,0.0,0.0,0.0,0.0,0.0,0.0,0.0,0.0,0.0,0.0,0.0,0.0,0.0,0.0,0.0,0.0,0.0,0.0,0.0,0.0,0.0,0.0,0.0,0.0,0.0,0.0,0.0,0.0,0.0,0.0,0.0,0.0,0.0,0.0,0.0,0.0,0.0,0.0,0.0,0.0,0.0,0.0,0.0,0.0,0.0,0.0,0.0,0.0,0.0,0.0,0.0,0.0,0.0,0.0,0.0,0.0,0.0,0.0,0.0,0.0,0.0,0.0,0.0,0.0,0.0,0.0,0.0,0.0,0.0,0.0,0.0,0.0,0.0,0.0,0.0,0.0,0.0,0.0,0.0,0.0,0.0,0.0,0.0,0.0,0.0,0.0,0.0,0.0,0.0,0.0,0.0,0.0,0.0,0.0,0.0,0.0,0.0,0.0,0.0,0.0,0.0,0.0,0.0,0.0,0.0,0.0,0.0,0.0,0.0,0.0,0.0,0.0,0.0,0.0,0.0,0.0,0.0,0.0,0.0,0.0,0.0,0.0,0.0,0.0,0.0,0.0,0.0,0.0,0.0,0.0,0.0,0.0,0.0,0.0,0.0,0.0,0.0,0.0,0.0,0.0,0.0,0.0,0.0,0.0,0.0,0.0,0.0,0.0,0.0,0.0,0.0,0.0,0.0,0.0,0.0,0.0,0.0,0.0,0.0,0.0,0.0,0.0,0.0,0.0,0.0,0.0,0.0,0.0,0.0,0.0,0.0,0.0,0.0,0.0,0.0,0.0,0.0,0.0,0.0,0.0,0.0,0.0,0.0,0.0,0.0,0.0,0.0,0.0,0.0,0.0,0.0,0.0,0.0,0.0,0.0,0.0,0.0,0.0,0.0,0.0,0.0,0.0,0.0,0.0,0.0,0.0,0.0,0.0,0.0,0.0,0.0,0.0,0.0,0.0,0.0,0.0,0.0,0.0,0.0,0.0,0.0,0.0,0.0,0.0,0.0,0.0,0.0,0.0,0.0,0.0,0.0,0.0,0.0,0.0,0.0,0.0,0.0,0.0,0.0,0.0,0.0,0.0,0.0,0.0,0.0,0.0,0.0,0.0,0.0,0.0,0.0,0.0,0.0,0.0,0.0,0.0,0.0,0.0,0.0,0.0,0.0,0.0,0.0,0.0,0.0,0.0,0.0,0.0,0.0,0.0,0.0,0.0,0.0,0.0,0.0,0.0,0.0,0.0,0.0,0.0,0.0,0.0,0.0,0.0,0.0,0.0,0.0,0.0,0.0,0.0,0.0,0.0,0.0,0.0,0.0,0.0,0.0,0.0,0.0,0.0,0.0,0.0,0.0,0.0,0.0,0.0,0.0,0.0,0.0,0.0,0.0,0.0,0.0,0.0,0.0,0.0,0.0,0.0,0.0,0.0,0.0,0.0,0.0,0.0,0.0,0.0,0.0,0.0,0.0,0.0,0.0,0.0,0.0,0.0,0.0,0.0,0.0,0.0,0.0,0.0,0.0,0.0,0.0,0.0,0.0,0.0,0.0,0.0,0.0,0.0,0.0,0.0,0.0,0.0,0.0,0.0,0.0,0.0,0.0,0.0,0.0,0.0,0.0,0.0,0.0,0.0,0.0,0.0,0.0,0.0,0.0,0.0,0.0,0.0,0.0,0.0,0.0,0.0,0.0,0.0,0.0,0.0,0.0,0.0,0.0,0.0,0.0,0.0,0.0,0.0,0.0,0.0,0.0,0.0,0.0,0.0,0.0,0.0,0.0,0.0,0.0,0.0,0.0,0.0,0.0,0.0,0.0,0.0,0.0,0.0,0.0,0.0,0.0,0.0,0.0,0.0,0.0,0.0,0.0,0.0,0.0,0.0,0.0,0.0,0.0,0.0,0.0,0.0,0.0,0.0,0.0,0.0,0.0,0.0,0.0,0.0,0.0,0.0,0.0,0.0,0.0,0.0,0.0,0.0,0.0,0.0,0.0,0.0,0.0,0.0,0.0,0.0,0.0,0.0,0.0,0.0,0.0,0.0,0.0,0.0,0.0,0.0,0.0,0.0,0.0,0.0,0.0,0.0,0.0,0.0,0.0,0.0,0.0,0.0,0.0,0.0,0.0,0.0,0.0,0.0,0.0,0.0,0.0,0.0,0.0,0.0,0.0,0.0,0.0,0.0,0.0,0.0,0.0,0.0,0.0,0.0,0.0,0.0,0.0,0.0,0.0,0.0,0.0,0.0,0.0,0.0,0.0,0.0,0.0,0.0,0.0,0.0,0.0,0.0,0.0,0.0,0.0,0.0,0.0,0.0,0.0,0.0,0.0,0.0,0.0,0.0,0.0,0.0,0.0,0.0,0.0,0.0,0.0,0.0,0.0,0.0,0.0,0.0,0.0,0.0,0.0,0.0,0.0,0.0,0.0,0.0,0.0,0.0,0.0,0.0,0.0,0.0,0.0,0.0,0.0,0.0,0.0,0.0,0.0,0.0,0.0,0.0,0.0,0.0,0.0,0.0,0.0,0.0,0.0,0.0,0.0,0.0,0.0,0.0,0.0,0.0,0.0,0.0,0.0,0.0,0.0,0.0,0.0,0.0,0.0,0.0,0.0,0.0,0.0,0.0,0.0,0.0,0.0,0.0,0.0,0.0,0.0,0.0,0.0,0.0,0.0,0.0,0.0,0.0,0.0,0.0,0.0,0.0,0.0,0.0,0.0,0.0,0.0,0.0,0.0,0.0,0.0,0.0,0.0,0.0,0.0,0.0,0.0,0.0,0.0,0.0,0.0,0.0,0.0,0.0,0.0,0.0,0.0,0.0,0.0,0.0,0.0,0.0,0.0,0.0,0.0,0.0,0.0,0.0,0.0,0.0,0.0,0.0,0.0,0.0,0.0,0.0,0.0,0.0,0.0,0.0,0.0,0.0,0.0,0.0,0.0,0.0,0.0,0.0,0.0,0.0,0.0,0.0,0.0,0.0,0.0,0.0,0.0,0.0,0.0,0.0,0.0,0.0,0.0,0.0,0.0,0.0,0.0,0.0,0.0,0.0,0.0,0.0,0.0,0.0,0.0,0.0,0.0,0.0,0.0,0.0,0.0,0.0,0.0,0.0,0.0,0.0,0.0,0.0,0.0,0.0,0.0,0.0,0.0,0.0,0.0,0.0,0.0,0.0,0.0,0.0,0.0,0.0,0.0,0.0,0.0,0.0,0.0,0.0,0.0,0.0,0.0,0.0,0.0,0.0,0.0,0.0,0.0,0.0,0.0,0.0,0.0,0.0,0.0,0.0,0.0,0.0,0.0,0.0,0.0,0.0,0.0,0.0,0.0,0.0,0.0,0.0,0.0,0.0,0.0,0.0,0.0,0.0,0.0,0.0,0.0,0.0,0.0,0.0,0.0,0.0,0.0,0.0,0.0,0.0,0.0,0.0,0.0,0.0,0.0,0.0,0.0,0.0,0.0,0.0,0.0,0.0,0.0,0.0,0.0,0.0,0.0,0.0,0.0,0.0,0.0,0.0,0.0,0.0,0.0,0.0,0.0,0.0,0.0,0.0,0.0,0.0,0.0,0.0,0.0,0.0,0.0,0.0,0.0,0.0,0.0,0.0,0.0,0.0,0.0,0.0,0.0,0.0,0.0,0.0,0.0,0.0,0.0,0.0,0.0,0.0,0.0,0.0,0.0,0.0,0.0,0.0,0.0,0.0,0.0,0.0,0.0,0.0,0.0,0.0,0.0,0.0,0.0,0.0,0.0,0.0,-3.0185,0.0,0.0,0.0,0.0,0.0,0.0,0.0,0.0,0.0,0.0,0.0,0.0,0.0,0.0,0.0,0.0,0.0,0.0,0.0,0.0,0.0,0.0,0.0,0.0,-2.8343,-2.8379,-2.8483,-2.8491,-2.8491,-2.8491,0.0,0.0,0.0,0.0,0.0,-2.9845,-2.9966,-2.9966,-2.9845,-2.9966,-2.9931,-2.9687,-2.9484,-2.9152,-2.8682,0.0,0.0,0.0,0.0,0.0,0.0,0.0,0.0,0.0,0.0,0.0,0.0,0.0,0.0,0.0,0.0,0.0,0.0,0.0,0.0,0.0,0.0,0.0,0.0,0.0,0.0,0.0,0.0,0.0,0.0,0.0,0.0,0.0,0.0,0.0,0.0,0.0,0.0,0.0,0.0,0.0,0.0,0.0,0.0,0.0,0.0,0.0,0.0,0.0,0.0,0.0,0.0,0.0,0.0,0.0,0.0,0.0,0.0,0.0,0.0,0.0,0.0,0.0,0.0,0.0,0.0,0.0,0.0,0.0,0.0,0.0,-3.0404,0.0,0.0,0.0,0.0,0.0,0.0,0.0,0.0,0.0,0.0,0.0,0.0,0.0,0.0,0.0,0.0,0.0,0.0,0.0,0.0,0.0,-2.7961,-2.7325,-2.725,-2.7281,-2.7331,-2.7339,-2.7335,-2.7364,-2.8197,0.0,0.0,0.0,-3.019,-3.0113,-3.0319,-3.0314,-3.0086,-3.0248,-3.0209,-2.9991,-2.9616,-2.9332,-2.9115,-2.9033,0.0,0.0,0.0,0.0,0.0,0.0,0.0,0.0,0.0,0.0,0.0,0.0,0.0,0.0,0.0,0.0,0.0,0.0,0.0,0.0,0.0,0.0,0.0,0.0,0.0,0.0,0.0,0.0,0.0,0.0,0.0,0.0,0.0,0.0,0.0,0.0,0.0,0.0,0.0,0.0,0.0,0.0,0.0,0.0,0.0,0.0,0.0,0.0,0.0,0.0,0.0,0.0,0.0,0.0,0.0,0.0,0.0,0.0,0.0,0.0,0.0,0.0,0.0,-3.0406,-3.0406,-3.0406,-3.0406,-3.0389,-3.0406,-3.0406,-3.0408,-3.0404,-3.0404,0.0,0.0,0.0,0.0,0.0,0.0,0.0,0.0,0.0,0.0,0.0,0.0,0.0,0.0,0.0,0.0,0.0,0.0,0.0,-2.7379,-2.7452,-2.7454,-2.758,-2.7875,-2.7894,-2.7916,-2.7981,-2.8115,-2.8495,-2.92,-2.9369,-2.9781,-3.0512,-3.0565,-3.0525,-3.0434,-3.019,-3.0028,-2.9999,-2.9782,-2.9643,-2.9588,-2.9174,-2.8964,-2.8917,0.0,0.0,0.0,0.0,0.0,0.0,0.0,0.0,0.0,0.0,0.0,0.0,0.0,0.0,0.0,0.0,0.0,0.0,0.0,0.0,0.0,0.0,0.0,0.0,0.0,0.0,0.0,0.0,0.0,0.0,0.0,0.0,0.0,0.0,0.0,0.0,0.0,0.0,0.0,0.0,0.0,-3.0429,-3.0565,0.0,0.0,0.0,0.0,0.0,0.0,0.0,0.0,0.0,0.0,0.0,0.0,0.0,-3.0581,-3.0571,-3.0571,-3.0571,-3.0571,-3.0451,-3.0393,-3.0393,-3.0393,-3.0409,-3.0399,-3.0399,0.0,-3.0404,-3.0404,0.0,0.0,0.0,0.0,0.0,0.0,0.0,0.0,0.0,0.0,0.0,0.0,0.0,0.0,0.0,0.0,0.0,0.0,0.0,0.0,0.0,-2.6342,-2.6447,-2.6573,-2.6579,-2.6614,-2.6645,-2.711,-2.7535,-2.7887,-2.8351,-2.9015,-2.9858,-2.9877,-3.0095,-3.0567,-3.0366,-3.0284,-3.0279,-3.0002,-2.9869,-2.9853,-2.9542,-2.9324,-2.9203,-2.9055,0.0,0.0,0.0,0.0,0.0,0.0,0.0,0.0,0.0,0.0,0.0,0.0,0.0,0.0,0.0,0.0,0.0,0.0,0.0,0.0,0.0,0.0,0.0,0.0,0.0,0.0,0.0,0.0,0.0,0.0,0.0,0.0,0.0,0.0,0.0,0.0,0.0,0.0,0.0,-2.8671,-2.926,-2.9254,-3.0159,-3.0583,0.0,0.0,0.0,0.0,0.0,0.0,0.0,0.0,0.0,-3.0663,-3.0663,-3.0645,-3.0603,-3.0603,-3.0603,-3.0603,-3.0544,-3.0467,-3.0408,-3.0603,-3.0682,-3.0667,-3.0489,-3.0405,-3.0406,-3.0395,-3.0404,-3.0404,0.0,0.0,0.0,0.0,-3.0394,-3.0407,0.0,0.0,0.0,0.0,0.0,0.0,0.0,0.0,0.0,0.0,0.0,0.0,-2.5492,-2.5477,-2.5517,-2.5513,-2.5533,-2.5539,-2.5552,-2.6151,-2.6615,-2.685,-2.747,-2.8191,-2.9033,-2.925,-2.9771,-3.0633,-3.0551,-3.0521,-3.0517,-3.0248,-3.0132,-3.0119,-2.9874,-2.9644,-2.9392,-2.92,-2.9055,-2.9005,0.0,0.0,0.0,0.0,0.0,0.0,0.0,0.0,0.0,0.0,0.0,0.0,0.0,0.0,0.0,0.0,0.0,0.0,0.0,0.0,0.0,0.0,0.0,0.0,0.0,0.0,0.0,0.0,0.0,0.0,0.0,0.0,0.0,0.0,0.0,0.0,0.0,-2.7843,-2.8483,-2.8245,-2.9802,-3.0566,0.0,0.0,0.0,0.0,0.0,0.0,-3.0898,-3.0898,-3.0858,-3.0747,-3.0746,-3.0734,-3.0676,-3.0676,-3.0676,-3.0676,-3.0676,-3.0618,-3.054,-3.0793,-3.0903,-3.0889,-3.0633,-3.0525,-3.0516,-3.0442,-3.0402,-3.0395,-3.0395,-3.0392,-3.0408,-3.0408,-3.0408,-3.0408,0.0,0.0,0.0,0.0,0.0,0.0,0.0,0.0,0.0,0.0,0.0,-2.5473,-2.5498,-2.5508,-2.5533,-2.5595,-2.5599,-2.561,-2.5683,-2.5722,-2.6113,-2.6953,-2.7031,-2.746,-2.834,-2.9105,-2.989,-3.0692,-3.0636,-3.0597,-3.0597,-3.0517,-3.0461,-3.0452,-3.0132,-2.9763,-2.9402,-2.9392,-2.9225,-2.9005,-2.9005,0.0,0.0,0.0,0.0,0.0,0.0,0.0,0.0,0.0,0.0,0.0,0.0,0.0,0.0,0.0,0.0,0.0,0.0,0.0,0.0,0.0,0.0,0.0,0.0,0.0,0.0,0.0,0.0,0.0,0.0,0.0,0.0,0.0,0.0,0.0,0.0,0.0,0.0,-2.8398,-2.9844,0.0,0.0,0.0,0.0,-3.0898,-3.0898,-3.0898,-3.0898,-3.0898,-3.0898,-3.0898,-3.0898,-3.0898,-3.0879,-3.0879,-3.0879,-3.0879,-3.0879,-3.0879,-3.0879,-3.0898,-3.0893,-3.0906,-3.0887,-3.086,-3.0859,-3.0535,-3.0392,-3.0399,-3.0399,-3.04,-3.0406,-3.0406,-3.0406,-3.0406,0.0,0.0,0.0,0.0,0.0,-2.9346,-2.7748,-2.7767,-2.7346,-2.5631,-2.5482,-2.5541,-2.5559,-2.5603,-2.5636,-2.5661,-2.5661,-2.5662,-2.5703,-2.5703,-2.584,-2.6152,-2.6152,-2.6562,-2.7441,-2.8299,-2.9137,-2.9996,-2.991,-3.016,-3.0669,-3.06,-3.0545,-3.0498,-3.0384,-3.012,-2.9763,-2.9513,-2.9351,-2.9235,-2.9067,-2.9005,0.0,0.0,0.0,0.0,0.0,0.0,0.0,0.0,0.0,0.0,0.0,0.0,0.0,0.0,0.0,0.0,0.0,0.0,0.0,0.0,0.0,0.0,0.0,0.0,0.0,0.0,0.0,0.0,0.0,0.0,0.0,0.0,0.0,0.0,0.0,0.0,0.0,-2.8398,-2.9844,0.0,-2.9687,-3.0391,-3.0898,-3.0898,-3.0898,-3.0898,-3.0898,-3.0898,-3.0898,-3.0898,-3.0898,-3.0898,-3.0898,-3.0898,-3.0898,-3.0898,-3.0898,-3.0898,-3.0898,-3.0898,-3.0898,-3.0895,-3.0895,-3.0892,-3.0883,-3.0766,-3.0728,-3.0487,-2.8051,-2.7112,-2.7121,-2.7121,-2.712,-2.7117,0.0,0.0,0.0,0.0,0.0,-2.9468,-2.7886,-2.7836,-2.7381,-2.5657,-2.5535,-2.5605,-2.5633,-2.5662,-2.5703,-2.5703,-2.5703,-2.5703,-2.5703,-2.5703,-2.5703,-2.5703,-2.5703,-2.6113,-2.6973,-2.7578,-2.8281,-2.916,-2.9115,-2.9518,-3.0338,-3.026,-3.0345,-3.0565,-3.0517,-3.0384,-3.0152,-2.9771,-2.9523,-2.9392,-2.9222,-2.9078,-2.904,0.0,0.0,0.0,0.0,0.0,0.0,0.0,0.0,0.0,0.0,0.0,0.0,0.0,0.0,0.0,0.0,0.0,0.0,0.0,0.0,0.0,0.0,0.0,0.0,0.0,0.0,0.0,0.0,0.0,0.0,0.0,0.0,0.0,0.0,0.0,-2.9233,-2.8346,-2.9752,-3.0455,-2.9576,-3.0298,-3.0807,-3.0807,-3.0807,-3.0807,-3.0807,-3.0814,-3.0837,-3.0837,-3.0878,-3.0898,-3.0898,-3.0898,-3.0898,-3.0898,-3.0898,-3.0898,-3.0898,-3.0898,-3.0898,-3.0898,-3.0898,-3.0898,-3.0898,-3.0898,-3.089,-3.0533,-2.6875,-2.5423,-2.5421,-2.5421,-2.5428,-2.5417,0.0,0.0,0.0,0.0,0.0,-2.9535,-2.8118,-2.7961,-2.7408,-2.5714,-2.5559,-2.5633,-2.5683,-2.5703,-2.5703,-2.5703,-2.5703,-2.5703,-2.5703,-2.5703,-2.5703,-2.5703,-2.5703,-2.6094,-2.6934,-2.6953,-2.7383,-2.8262,-2.8262,-2.8711,-2.9551,-2.9499,-2.9875,-3.0614,-3.0503,-3.0468,-3.0446,-3.0139,-2.978,-2.9433,-2.9404,-2.9257,-2.9044,0.0,0.0,0.0,0.0,0.0,0.0,0.0,0.0,0.0,0.0,0.0,0.0,0.0,0.0,0.0,0.0,0.0,0.0,0.0,0.0,0.0,0.0,0.0,0.0,0.0,0.0,0.0,0.0,0.0,0.0,0.0,0.0,0.0,-2.8346,-2.8973,-2.9209,-2.8299,-2.9605,-3.0269,-2.9427,-3.0094,-3.0603,-3.0603,-3.0603,-3.0603,-3.0603,-3.0667,-3.0693,-3.0693,-3.0816,-3.0898,-3.0898,-3.0898,-3.0898,-3.0898,-3.0898,-3.0898,-3.0898,-3.0898,-3.0898,-3.0898,-3.0898,-3.0898,-3.0898,-3.0898,-3.0898,-3.0566,-2.7176,-2.5855,-2.587,-2.587,-2.5868,-2.5827,0.0,0.0,0.0,-2.9731,-3.003,-2.976,-2.8135,-2.8004,-2.7456,-2.572,-2.5602,-2.5683,-2.5703,-2.5703,-2.5703,-2.5703,-2.5703,-2.5703,-2.5703,-2.5703,-2.5703,-2.5703,-2.5703,-2.5801,-2.6055,-2.6055,-2.6484,-2.7363,-2.7363,-2.7793,-2.8652,-2.8632,-2.8722,-2.8915,-2.9515,-2.9696,-2.959,-3.0129,-3.0158,-2.9821,-2.9678,-2.9561,-2.9533,0.0,0.0,0.0,0.0,0.0,0.0,0.0,0.0,0.0,0.0,0.0,0.0,0.0,0.0,0.0,0.0,0.0,0.0,0.0,0.0,0.0,0.0,0.0,0.0,0.0,0.0,0.0,0.0,0.0,0.0,0.0,-2.8994,-2.923,-2.9024,-2.9754,-3.0197,-2.9938,-3.033,-3.0505,-3.0269,-3.0467,-3.0603,-3.0603,-3.0603,-3.0603,-3.0603,-3.0625,-3.0636,-3.0636,-3.0652,-3.0718,-3.0747,-3.0747,-3.0794,-3.0898,-3.0898,-3.0898,-3.0898,-3.0898,-3.0898,-3.0898,-3.0898,-3.0898,-3.0898,-3.0898,-3.0898,-3.0801,-2.9843,-2.947,-2.9466,-2.9466,-2.9477,-2.9458,0.0,0.0,0.0,-2.9861,-3.0148,-2.9827,-2.8159,-2.8005,-2.7476,-2.5722,-2.5628,-2.5703,-2.5703,-2.5703,-2.5703,-2.5703,-2.5703,-2.5703,-2.5703,-2.5703,-2.5703,-2.5703,-2.5703,-2.5703,-2.5703,-2.5703,-2.5957,-2.6465,-2.6465,-2.6894,-2.7754,-2.7754,-2.7928,-2.8251,-2.8747,-2.8883,-2.8819,-2.9268,-2.9535,-2.9646,-2.952,-2.955,-2.9731,-2.9924,-3.0006,-3.0047,-3.0305,-3.0404,-3.0404,-3.0404,0.0,0.0,0.0,0.0,0.0,0.0,0.0,0.0,0.0,0.0,0.0,0.0,0.0,0.0,0.0,0.0,0.0,0.0,0.0,0.0,0.0,0.0,0.0,0.0,-2.95,-2.9748,-2.9752,-3.023,-3.0556,-3.0528,-3.0524,-3.0524,-3.0524,-3.0524,-3.0524,-3.0524,-3.0524,-3.0524,-3.0524,-3.0548,-3.0551,-3.0551,-3.0587,-3.0625,-3.0665,-3.0665,-3.0698,-3.078,-3.0858,-3.0897,-3.0898,-3.091,-3.0894,-3.0894,-3.0898,-3.0898,-3.0898,-3.0898,-3.0898,0.0,0.0,0.0,0.0,0.0,-3.0897,-3.0892,0.0,0.0,0.0,-3.0054,-3.0215,-2.9827,-2.8159,-2.8005,-2.7476,-2.5722,-2.5628,-2.5703,-2.5703,-2.5703,-2.5703,-2.5703,-2.5703,-2.5703,-2.5703,-2.5703,-2.5703,-2.5703,-2.5683,-2.5683,-2.5683,-2.5683,-2.5682,-2.5682,-2.5682,-2.6073,-2.6836,-2.6836,-2.7265,-2.8008,-2.8055,-2.806,-2.8051,-2.8035,-2.8431,-2.9059,-2.8998,-2.9301,-2.9799,-2.9988,-3.0054,-3.0075,-3.0311,-3.0404,-3.0404,-3.0404,0.0,0.0,0.0,0.0,0.0,0.0,0.0,0.0,0.0,0.0,0.0,0.0,0.0,0.0,0.0,0.0,0.0,0.0,0.0,0.0,0.0,0.0,0.0,0.0,-2.9945,-3.0477,-3.0402,-3.0442,-3.0477,-3.0402,-3.0404,-3.0404,-3.0404,-3.0404,-3.0404,-3.0404,-3.0404,-3.0404,-3.0404,0.0,0.0,0.0,0.0,-3.0581,-3.0591,-3.0591,-3.0594,-3.0603,-3.0781,-3.0878,-3.0862,-3.0884,-3.0905,-3.0893,-3.0895,-3.0898,-3.0898,-3.0898,-3.0898,-3.0898,-3.0898,-3.0898,-3.0898,-3.0898,-3.0898,-3.0898,0.0,0.0,0.0,-3.0054,-3.0215,-2.9827,-2.8159,-2.8005,-2.7476,-2.5722,-2.5628,-2.5703,-2.5703,-2.5703,-2.5703,-2.5703,-2.5703,-2.5703,-2.5703,-2.5703,-2.5703,-2.5703,-2.5658,-2.5629,-2.5629,-2.5563,-2.5543,-2.5543,-2.5543,-2.5642,-2.5864,-2.5864,-2.599,-2.623,-2.6913,-2.7199,-2.7195,-2.7862,-2.8182,-2.8236,-2.8214,-2.904,-3.0273,-3.0305,-3.0317,-3.0323,-3.0373,-3.0404,-3.0404,-3.0404,-3.0449,-3.0486,-3.0494,-3.0587,0.0,0.0,0.0,0.0,0.0,0.0,0.0,0.0,0.0,0.0,0.0,0.0,0.0,0.0,0.0,0.0,0.0,0.0,0.0,-3.0185,-3.0298,-3.0419,-3.041,-3.0408,-3.0419,-3.0404,-3.0404,-3.0404,-3.0404,-3.0404,-3.0404,-3.0404,-3.0404,-3.0404,-3.0404,-3.0414,-3.0411,-3.0411,-3.0439,-3.0467,-3.0513,-3.0513,-3.0556,-3.0603,0.0,0.0,-3.0664,-3.0834,-3.0891,-3.0891,-3.0898,-3.0892,-3.0898,-3.0898,-3.0898,-3.0898,-3.0898,-3.0898,-3.0898,-3.0898,-3.0898,-3.0898,0.0,0.0,0.0,-3.0215,-3.0311,-2.985,-2.8203,-2.8016,-2.745,-2.5777,-2.557,-2.5632,-2.5683,-2.5662,-2.5643,-2.566,-2.5658,-2.5658,-2.5658,-2.5683,-2.5703,-2.5703,-2.5635,-2.5602,-2.5602,-2.5522,-2.5491,-2.5491,-2.5491,-2.5522,-2.5602,-2.5602,-2.5629,-2.5678,-2.6132,-2.6309,-2.6288,-2.6688,-2.7053,-2.739,-2.7331,-2.8058,-2.9245,-2.9605,-2.9762,-2.9863,-3.0288,-3.0463,-3.0494,-3.0494,-3.0513,-3.0567,-3.0594,-3.0655,-3.0718,0.0,0.0,0.0,0.0,0.0,0.0,0.0,0.0,0.0,0.0,0.0,0.0,0.0,0.0,-3.0436,-3.0416,0.0,-3.0404,-3.0404,-3.0404,-3.0404,-3.0404,-3.0404,-3.0404,-3.0404,-3.0404,-3.0404,-3.0404,-3.0404,-3.0404,-3.0404,-3.0808,-3.1058,-3.1058,-3.1423,-3.1654,-3.1654,-3.1654,-3.1677,-3.1692,-3.1311,-3.1129,-3.1152,-3.0746,-3.0533,-3.0494,-3.0595,-3.0646,-3.067,-3.0821,-3.0907,-3.0909,-3.0906,-3.0892,-3.0892,-3.0898,-3.0898,-3.0898,-3.0898,-3.0898,-3.0898,0.0,0.0,0.0,-3.0404,-3.0404,-2.9842,-2.8231,-2.7991,-2.7406,-2.5781,-2.5533,-2.5545,-2.5658,-2.5611,-2.56,-2.5606,-2.5606,-2.5607,-2.5602,-2.5661,-2.5683,-2.5683,-2.5628,-2.5569,-2.5559,-2.5506,-2.5468,-2.5468,-2.5468,-2.5506,-2.5559,-2.5559,-2.5587,-2.5603,-2.566,-2.5641,-2.5599,-2.5537,-2.5917,-2.6517,-2.6427,-2.6831,-2.7578,-2.8357,-2.8781,-2.9075,-2.9788,-3.0171,-3.035,-3.035,-3.0478,-3.0636,-3.0684,-3.072,-3.0768,-3.0878,-3.0898,0.0,0.0,0.0,0.0,0.0,0.0,0.0,0.0,0.0,-3.0472,-3.0494,-3.0451,-3.0373,-3.0323,-3.0317,-3.0305,-3.0273,-3.0299,-3.0317,-3.0317,-3.0317,-3.0317,-3.0317,-3.0367,-3.0404,-3.0404,-3.0404,-3.0404,-3.0404,-3.1212,-3.1698,-3.1698,-3.2468,-3.2891,-3.2891,-3.2891,-3.2891,-3.2891,-3.2256,-3.1891,-3.1769,-3.084,-3.0398,-3.0398,-3.0389,-3.0399,-3.043,-3.0685,-3.08,-3.0806,-3.0802,-3.0838,-3.09,-3.0907,-3.0896,-3.0897,-3.0898,-3.0898,-3.0898,0.0,0.0,0.0,0.0,0.0,-2.9833,-2.8161,-2.7966,-2.7377,-2.564,-2.5474,-2.5515,-2.5529,-2.5564,-2.56,-2.5606,-2.5659,-2.5661,-2.5603,-2.5661,-2.5662,-2.5607,-2.5551,-2.5473,-2.5425,-2.5354,-2.5312,-2.5312,-2.5312,-2.535,-2.5411,-2.5411,-2.5493,-2.5602,-2.5605,-2.5604,-2.5591,-2.5581,-2.5585,-2.5556,-2.5621,-2.5644,-2.5785,-2.6715,-2.7533,-2.8239,-2.8333,-2.8831,-2.9446,-2.9446,-3.0002,-3.0689,-3.0693,-3.0771,-3.0879,-3.0898,-3.0898,-3.0878,-3.0747,-3.0721,-3.0721,-3.0721,-3.0667,-3.0617,0.0,0.0,-3.0428,-3.0495,-3.0451,-3.0323,-3.0089,-3.0035,-2.9996,-2.9815,-2.9924,-3.0035,-3.0035,-3.0035,-3.0035,-3.0035,-3.0254,-3.0404,-3.0404,-3.0404,-3.0404,-3.0404,-3.1212,-3.1698,-3.1698,-3.2468,-3.2891,-3.2891,-3.2891,-3.2891,-3.2891,-3.2814,-3.2538,-3.2039,-3.0937,-3.0393,-3.0393,-3.039,-3.0407,-3.041,-3.0432,-3.0467,-3.0467,-3.0456,-3.0637,-3.0892,-3.09,-3.0899,-3.09,-3.0897,-3.0898,-3.0898,0.0,0.0,0.0,0.0,0.0,-3.0009,-2.8835,-2.8287,-2.7563,-2.6379,-2.5761,-2.5465,-2.5506,-2.552,-2.5546,-2.5543,-2.5599,-2.5633,-2.5602,-2.5661,-2.5662,-2.5603,-2.5541,-2.5479,-2.5394,-2.5335,-2.5308,-2.5308,-2.5308,-2.535,-2.5462,-2.5427,-2.5477,-2.5602,-2.5602,-2.558,-2.5541,-2.5549,-2.5495,-2.5402,-2.5431,-2.5456,-2.5513,-2.5944,-2.6346,-2.6829,-2.7819,-2.8395,0.0,-2.8728,-2.8972,-2.9389,-2.9897,-3.0096,-3.0234,-3.0658,-3.0771,-3.077,-3.0718,-3.0675,-3.0659,0.0,-3.063,-3.0548,-3.0548,-3.0477,-3.0402,-3.0449,-3.0303,-3.0136,-3.0021,-2.9908,-2.9796,0.0,-2.9763,-2.9821,-2.9821,-2.9821,-2.9821,-2.9821,-2.992,-2.9992,-2.9992,-2.9992,-3.0044,-3.015,-3.1433,-3.2274,-3.2385,-3.368,-3.4404,-3.4404,-3.4404,-3.4404,-3.4404,-3.391,-3.3545,-3.3308,-3.2679,-3.1674,-3.0407,-3.0394,-3.041,-3.0406,-3.0395,-3.0404,-3.039,-3.0405,-3.0486,-3.061,-3.0604,-3.0603,-3.0637,-3.0821,-3.0895,-3.0898,0.0,0.0,0.0,0.0,0.0,-3.013,-2.9299,-2.8482,-2.767,-2.6874,-2.5966,-2.5406,-2.5471,-2.5478,-2.5479,-2.5508,-2.5565,-2.5597,-2.5603,-2.5661,-2.5662,-2.5603,-2.5554,-2.5498,-2.5394,-2.5346,-2.5322,-2.5308,-2.5322,-2.5387,-2.5463,-2.5441,-2.5495,-2.5602,-2.557,-2.5545,-2.5498,-2.547,-2.5431,-2.5379,-2.5398,-2.5444,-2.5517,-2.5569,-2.5636,-2.5859,-2.7047,-2.7675,-2.7908,-2.7885,-2.804,-2.8353,-2.8998,-2.9193,-2.9288,-2.9832,-3.0125,-3.0289,-3.0324,-3.0458,0.0,-3.0624,-3.0571,-3.049,-3.0477,-3.0425,-3.0404,-3.0404,-3.0189,-2.9984,-2.9931,-2.9746,-2.9579,-2.9514,-2.9579,-2.9626,-2.9626,-2.9626,-2.9626,-2.9626,-2.9542,-2.9504,-2.9504,-2.9625,-2.9754,-2.9908,-3.1581,-3.2653,-3.2819,-3.4518,-3.55,-3.55,-3.55,-3.55,-3.55,-3.4872,-3.4564,-3.4564,-3.4353,-3.3397,-3.1808,-3.1815,-3.1296,-3.0406,-3.0405,-3.0398,-3.039,-3.0404,-3.0409,-3.04,-3.0401,-3.0408,-3.0422,-3.0677,-3.0824,-3.089,0.0,0.0,0.0,0.0,0.0,-3.0121,-2.9248,-2.842,-2.7614,-2.6819,-2.5888,-2.5321,-2.5391,-2.5409,-2.5432,-2.5487,-2.5558,-2.5602,-2.5605,-2.5661,-2.5662,-2.5603,-2.5601,-2.5541,-2.5397,-2.5398,-2.5363,-2.5308,-2.5363,-2.5402,-2.5397,-2.5477,-2.552,-2.5603,-2.5525,-2.5496,-2.5493,-2.5434,-2.5352,-2.5303,-2.5368,-2.5444,-2.5517,-2.5569,-2.5636,-2.5703,-2.5672,-2.623,-2.6927,-2.6868,-2.7417,-2.8104,-2.8143,-2.8143,0.0,-2.8179,-2.868,-2.928,-2.9407,0.0,-3.0507,-3.0511,-3.0507,-3.0486,-3.0425,-3.0404,-3.0404,-3.0404,-3.0189,-2.9947,-2.9756,-2.9533,-2.933,-2.9055,-2.9235,-2.9412,-2.9412,-2.9412,-2.9412,-2.9412,-2.9171,-2.901,0.0,-2.9436,-2.9705,-2.9713,-3.1502,-3.26,-3.26,-3.4455,-3.55,-3.55,-3.55,-3.55,-3.55,-3.5462,-3.5462,-3.5462,-3.5457,-3.5412,-3.5355,-3.5355,-3.3538,-3.0406,-3.0406,-3.0399,-3.0404,-3.041,-3.039,-3.039,-3.0396,-3.0393,-3.0406,-3.041,-3.0618,-3.0895,0.0,0.0,0.0,0.0,0.0,0.0,-3.0,-2.8825,-2.7841,-2.7538,-2.6203,0.0,0.0,0.0,0.0,0.0,-2.554,-2.5609,-2.5602,-2.5618,-2.5624,-2.5604,-2.5558,-2.5495,-2.5397,-2.5409,-2.5387,-2.5367,-2.5383,-2.5444,-2.5539,-2.55,-2.5534,-2.5603,-2.5527,-2.5485,-2.5434,-2.542,-2.5359,-2.5317,-2.5368,-2.5408,-2.5447,-2.5556,-2.5597,-2.5566,0.0,-2.5756,-2.6026,-2.5961,-2.6138,-2.6471,-2.706,-2.7148,-2.7132,-2.7687,-2.8362,-2.8986,0.0,0.0,-3.0446,-3.05,-3.0477,-3.0428,-3.0416,-3.0404,-3.0355,-3.0163,-2.9966,-2.9748,-2.9542,-2.9291,-2.91,-2.8998,-2.9078,-2.9134,-2.9134,-2.9134,-2.9134,-2.9134,-2.9044,0.0,0.0,0.0,0.0,-3.0241,-3.1553,-3.2655,-3.335,-3.4736,-3.55,-3.55,-3.55,-3.55,-3.55,-3.55,-3.55,-3.55,-3.5494,-3.5501,-3.5501,-3.5489,-3.4873,-3.3654,-3.1386,-3.0394,-3.0399,-3.0399,-3.0411,-3.0404,-3.0404,-3.0394,-3.0406,-3.0406,-3.0471,-3.0573,0.0,0.0,0.0,0.0,0.0,0.0,0.0,0.0,0.0,0.0,0.0,0.0,0.0,0.0,0.0,0.0,0.0,-2.5551,-2.5599,-2.5602,-2.5619,-2.5636,-2.5585,-2.553,-2.5444,-2.5441,-2.5404,-2.5363,-2.542,-2.5488,-2.5563,-2.554,-2.5565,-2.5602,-2.55,-2.5431,-2.5409,-2.5364,-2.5339,-2.5293,-2.5342,-2.5395,-2.5444,-2.5537,-2.5571,0.0,-2.5512,-2.5535,-2.5552,-2.5465,-2.5428,-2.5525,-2.6094,-2.6172,-2.6159,-2.6591,-2.734,-2.8132,0.0,-2.9326,-3.0029,-3.037,-3.0439,-3.0404,-3.0404,-3.0404,-3.0317,-3.0061,-2.9837,-2.9634,-2.9434,-2.9171,-2.9005,-2.9005,-2.9005,-2.9005,-2.9005,-2.9005,-2.9005,-2.9005,-2.9005,-2.9005,0.0,0.0,0.0,-3.0383,-3.146,-3.2477,-3.3459,-3.4697,-3.5361,-3.5361,-3.5446,-3.55,-3.55,-3.55,-3.55,-3.55,-3.55,-3.55,-3.55,-3.5501,-3.5502,-3.5374,-3.3186,-3.2218,-3.2122,-3.0912,-3.04,-3.0399,-3.0405,-3.0392,-3.0392,-3.0398,-3.0404,-3.0398,0.0,0.0,0.0,0.0,0.0,0.0,0.0,0.0,0.0,0.0,0.0,0.0,0.0,0.0,0.0,0.0,0.0,0.0,-2.5572,-2.5598,-2.5611,-2.5683,-2.5683,-2.5636,-2.5517,-2.5515,-2.5444,-2.5317,-2.5444,-2.5517,-2.5505,-2.5586,-2.5602,-2.5595,-2.5451,-2.5394,-2.5398,-2.5321,-2.5308,-2.5308,-2.5308,-2.5372,-2.5506,-2.551,-2.5573,-2.5663,-2.5551,-2.5508,-2.5465,-2.5333,-2.5308,-2.5308,-2.5288,-2.5284,-2.5253,-2.5065,-2.574,-2.6764,-2.7601,-2.8453,-2.93,-3.0135,-3.0365,-3.0404,-3.0404,-3.0398,-3.0305,-3.0047,-2.9821,-2.9616,0.0,0.0,-2.9005,-2.9005,-2.9005,-2.9005,-2.9005,-2.9005,-2.9005,0.0,0.0,0.0,0.0,0.0,0.0,-3.021,0.0,-3.2173,-3.3007,-3.4339,-3.5088,-3.5088,-3.5346,-3.5486,-3.5486,-3.5493,-3.55,-3.55,-3.55,-3.55,-3.55,-3.55,-3.5501,-3.5509,-3.5509,-3.5502,-3.5245,-3.1994,-3.0663,-3.0669,-3.0656,-3.0547,-3.0406,-3.0392,-3.0398,-3.0421,0.0,0.0,0.0,0.0,0.0,0.0,0.0,0.0,0.0,0.0,0.0,0.0,0.0,0.0,0.0,0.0,0.0,0.0,-2.5456,-2.5508,-2.5556,-2.5611,-2.5632,-2.5605,-2.559,-2.5569,-2.5558,-2.5509,-2.5558,-2.5602,-2.5658,-2.5664,-2.561,-2.5513,-2.5481,-2.5415,-2.5317,-2.5303,-2.5308,-2.5308,-2.5308,-2.5346,-2.5434,-2.5473,-2.5515,-2.5546,-2.5512,-2.5477,-2.5408,0.0,0.0,0.0,0.0,-2.5112,-2.5077,-2.5016,-2.5645,-2.6464,-2.6825,-2.7986,-2.9146,-2.9371,-2.9929,-3.0404,-3.0404,-3.0248,-3.004,-2.9813,-2.9626,-2.9404,0.0,0.0,0.0,-2.9005,-2.9005,0.0,-2.9005,-2.9005,0.0,-2.9005,0.0,-2.9005,-2.9005,-2.9537,0.0,0.0,-3.1522,-3.2415,-3.3827,-3.448,-3.4793,-3.4793,-3.507,-3.5207,-3.5207,-3.5391,-3.55,-3.55,-3.55,-3.55,-3.55,-3.55,-3.5507,-3.5494,-3.5494,-3.5495,-3.5419,-3.4552,-3.4206,-3.4199,-3.4205,-3.2641,-3.0401,-3.0407,-3.0407,-3.0752,0.0,0.0,0.0,0.0,0.0,0.0,0.0,0.0,0.0,0.0,0.0,0.0,0.0,0.0,0.0,0.0,0.0,0.0,0.0,-2.5438,-2.5491,-2.5599,-2.5602,-2.5602,-2.5603,-2.5602,-2.5594,-2.5556,-2.5594,-2.5595,-2.5605,-2.5616,-2.5556,-2.5459,-2.5421,-2.5379,-2.5308,-2.5308,-2.5308,0.0,0.0,-2.5359,-2.5456,-2.5495,-2.5534,-2.5585,-2.5512,0.0,0.0,0.0,0.0,-2.5329,-2.5139,-2.5109,-2.5111,-2.5028,0.0,-2.5975,-2.6465,-2.7563,-2.8648,-2.8905,-2.9609,-3.0196,-3.0114,-2.9973,-2.9813,-2.9616,-2.9493,0.0,-2.9044,0.0,0.0,0.0,0.0,0.0,-2.9005,-2.9005,-2.9005,0.0,-2.9005,0.0,-2.9482,-2.9953,-3.0687,0.0,-3.2084,-3.2698,-3.3963,-3.4311,-3.4486,-3.4486,-3.4774,-3.4981,-3.5096,-3.5369,-3.55,-3.55,-3.55,-3.55,-3.55,-3.55,-3.55,-3.55,0.0,-3.5494,-3.5508,-3.5508,-3.5495,-3.5489,-3.5502,-3.4321,-3.2641,-3.2648,-3.2635,-3.291,0.0,0.0,0.0,0.0,0.0,0.0,0.0,0.0,0.0,0.0,-2.6245,-2.5601,0.0,0.0,0.0,0.0,0.0,0.0,0.0,0.0,-2.5451,-2.5564,-2.5597,-2.56,-2.5593,-2.5609,-2.5575,-2.5535,-2.5575,-2.5579,-2.5507,-2.5506,-2.546,-2.5395,-2.5339,-2.5303,-2.5308,-2.5308,-2.5308,-2.5308,-2.5308,-2.5368,-2.5498,0.0,-2.559,-2.5664,0.0,0.0,0.0,0.0,-2.5462,-2.5379,-2.5202,-2.5226,-2.5264,-2.5094,-2.5163,-2.5462,-2.6212,-2.714,-2.8036,-2.8562,-2.936,-2.9954,-2.9771,-2.9705,-2.9616,-2.9434,0.0,-2.9267,-2.8957,-2.8952,-2.8975,-2.8929,0.0,-2.9005,-2.9005,-2.8952,-2.8917,-2.8917,-2.8893,-2.9192,-3.0027,-3.0241,-3.0931,-3.2491,-3.2693,-3.3073,-3.3752,-3.4018,-3.4152,-3.42,-3.4467,-3.4764,-3.5034,-3.5281,-3.541,-3.5429,-3.5429,-3.5448,-3.5506,-3.5489,-3.5504,-3.5504,-3.5512,-3.55,-3.55,-3.55,-3.55,-3.55,-3.5495,-3.5509,-3.5509,-3.5509,-3.5496,-3.5496,0.0,0.0,0.0,0.0,0.0,0.0,0.0,0.0,0.0,0.0,-2.7636,-2.6401,0.0,0.0,0.0,0.0,0.0,0.0,0.0,0.0,0.0,-2.5441,-2.5545,-2.5606,-2.5595,-2.5644,-2.5682,-2.5661,-2.5682,-2.5644,-2.5589,-2.5579,-2.5526,-2.5409,-2.5383,-2.5342,-2.5308,-2.5308,-2.5308,-2.5308,-2.5308,-2.5361,-2.5425,-2.549,0.0,0.0,0.0,0.0,0.0,0.0,-2.5459,-2.5394,-2.5417,-2.5372,-2.5284,-2.5259,-2.5269,-2.5327,-2.5481,-2.6697,-2.7923,-2.803,-2.9047,-2.9991,-2.9962,-2.9696,0.0,0.0,-2.9214,-2.8957,-2.8577,-2.8773,-2.8893,-2.8565,0.0,0.0,0.0,0.0,-2.8496,0.0,0.0,0.0,0.0,0.0,0.0,0.0,-3.322,-3.3642,-3.3788,-3.3842,-3.3974,-3.4188,-3.4265,-3.4434,-3.4783,-3.4822,-3.4889,-3.5012,-3.5012,-3.5173,-3.5496,-3.5496,-3.5496,-3.5504,-3.5494,0.0,-3.55,-3.55,-3.55,-3.55,-3.5507,-3.5507,-3.5507,-3.5494,-3.5494,-3.5494,0.0,0.0,0.0,0.0,0.0,0.0,0.0,-3.0237,-2.9871,-2.9599,-2.8432,-2.7302,-2.6465,-2.5936,-2.5636,0.0,0.0,0.0,0.0,0.0,0.0,0.0,0.0,0.0,-2.5658,-2.5683,-2.5703,-2.5703,0.0,-2.5657,-2.5551,-2.5551,-2.5485,-2.5342,-2.5357,-2.5321,-2.5308,-2.5308,-2.5308,-2.5308,-2.5308,-2.5344,0.0,0.0,0.0,0.0,0.0,0.0,0.0,0.0,-2.5425,-2.5404,-2.5488,-2.5417,-2.5308,-2.5308,-2.5308,-2.5274,-2.5168,-2.6491,-2.7816,-2.7464,-2.8624,-2.9788,-2.9533,0.0,0.0,0.0,-2.8927,-2.8633,-2.8433,0.0,0.0,0.0,0.0,0.0,0.0,0.0,0.0,0.0,0.0,0.0,0.0,0.0,-3.146,-3.2811,-3.346,-3.3807,-3.3807,-3.3807,-3.3868,-3.3999,-3.4123,-3.4288,-3.4434,-3.4603,-3.4732,-3.4798,-3.4798,-3.4893,-3.5064,-3.4766,-3.4936,-3.5467,-3.4874,-3.4956,-3.5496,-3.5496,-3.5491,-3.55,-3.55,-3.55,-3.55,-3.55,-3.55,-3.55,0.0,0.0,0.0,0.0,0.0,0.0,-3.0614,-3.0671,-3.0491,-2.9941,-2.9121,-2.8242,-2.7363,-2.6328,-2.5683,0.0,0.0,0.0,0.0,0.0,0.0,0.0,0.0,0.0,0.0,0.0,0.0,-2.5683,-2.5683,0.0,0.0,0.0,0.0,0.0,-2.5308,-2.5308,-2.5308,-2.5308,-2.5308,0.0,0.0,-2.5344,0.0,0.0,0.0,0.0,0.0,0.0,0.0,0.0,-2.5409,-2.5401,-2.5411,-2.5364,-2.5308,-2.5308,-2.5308,-2.5259,-2.5046,-2.638,-2.7682,-2.7102,-2.8305,-2.9542,-2.9171,-2.9051,0.0,0.0,-2.8682,-2.8381,-2.8316,0.0,-2.7869,0.0,-2.7855,0.0,0.0,0.0,0.0,0.0,0.0,0.0,0.0,0.0,0.0,-3.309,-3.3564,-3.3807,-3.3807,-3.3807,-3.3807,-3.3807,-3.3993,-3.4111,-3.4111,-3.4375,-3.4516,-3.4516,-3.4516,-3.4516,-3.4497,-3.403,-3.4279,-3.5095,-3.418,-3.4311,-3.515,-3.5401,-3.5498,-3.5501,-3.5505,-3.55,-3.55,-3.55,-3.55,-3.55,0.0,0.0,0.0,0.0,0.0,0.0,-3.0675,-3.0693,-3.0727,-3.0761,-3.0019,-2.9141,-2.8281,-2.6699,-2.5703,0.0,0.0,0.0,0.0,0.0,0.0,0.0,0.0,0.0,0.0,0.0,0.0,-2.5605,-2.5605,0.0,0.0,0.0,0.0,0.0,0.0,-2.5308,-2.5308,-2.5308,0.0,0.0,0.0,0.0,0.0,0.0,0.0,0.0,0.0,0.0,0.0,0.0,0.0,-2.5368,-2.5189,-2.5216,-2.5308,-2.5308,0.0,0.0,-2.5046,-2.6244,-2.7475,-2.7228,-2.8315,-2.9433,-2.9382,0.0,0.0,-2.9005,-2.8682,-2.8316,-2.7992,-2.7926,-2.7783,0.0,0.0,-2.7911,0.0,0.0,0.0,0.0,0.0,0.0,0.0,0.0,0.0,-3.3082,-3.3564,-3.3807,-3.3807,-3.3807,-3.3807,-3.3807,-3.3815,-3.3842,-3.3842,-3.3868,-3.3881,-3.3881,-3.3881,-3.3881,-3.3876,-3.3839,-3.3864,-3.3943,-3.3851,-3.3862,0.0,-3.5075,-3.5492,-3.5488,-3.5494,-3.55,-3.55,-3.55,-3.55,-3.55,0.0,0.0,0.0,0.0,0.0,0.0,-3.0686,-3.077,-3.0837,-3.0898,-3.0137,-2.9473,-2.9121,-2.7539,-2.6269,-2.5742,0.0,0.0,0.0,0.0,0.0,0.0,0.0,0.0,0.0,0.0,-2.5683,-2.566,-2.566,0.0,0.0,0.0,0.0,0.0,0.0,0.0,-2.5367,0.0,0.0,0.0,0.0,0.0,0.0,0.0,0.0,0.0,0.0,0.0,0.0,0.0,0.0,0.0,-2.5102,-2.5078,0.0,0.0,-2.5066,-2.5082,-2.5496,-2.6441,-2.7368,-2.7522,-2.8487,-2.9361,-2.9211,0.0,-2.9005,-2.9005,-2.852,-2.8061,-2.7926,-2.75,-2.7131,-2.6954,0.0,0.0,-2.75,0.0,0.0,0.0,0.0,0.0,0.0,0.0,-3.2107,-3.3468,-3.3707,-3.3807,-3.3807,-3.3807,-3.3807,-3.3807,-3.3807,-3.3807,-3.3807,-3.3807,-3.3807,-3.3807,-3.3807,-3.3807,-3.3788,-3.381,-3.3801,-3.3801,-3.3796,-3.3792,0.0,-3.4304,-3.4884,-3.5496,-3.5507,-3.5503,-3.55,-3.5496,-3.55,-3.55,0.0,0.0,0.0,0.0,0.0,-3.0659,-3.0744,-3.0837,-3.0898,-3.0898,-3.0371,-2.9883,-2.9629,-2.8262,-2.7031,-2.6152,-2.5859,0.0,0.0,0.0,0.0,0.0,0.0,0.0,0.0,0.0,-2.5683,-2.5662,-2.5662,-2.5635,0.0,0.0,0.0,0.0,0.0,0.0,0.0,0.0,0.0,0.0,0.0,0.0,0.0,0.0,0.0,0.0,0.0,0.0,0.0,0.0,0.0,0.0,0.0,0.0,0.0,0.0,-2.5046,-2.5258,-2.5764,-2.6668,-2.752,-2.774,-2.8547,-2.9225,0.0,0.0,-2.897,-2.8851,-2.8321,-2.7869,-2.7736,-2.7162,-2.6691,0.0,0.0,-2.6791,-2.7083,0.0,0.0,0.0,0.0,0.0,0.0,-3.1491,-3.2766,-3.3556,-3.3734,-3.3807,-3.3807,-3.3807,-3.3807,-3.3807,-3.3807,-3.3807,-3.3807,-3.3807,-3.3807,-3.3807,-3.3807,-3.3807,-3.3807,-3.3807,-3.3807,-3.3807,-3.3807,-3.381,0.0,-3.3887,-3.4345,-3.5009,-3.5183,-3.5358,-3.5501,-3.5504,-3.5496,-3.55,0.0,0.0,0.0,0.0,0.0,-3.0745,-3.0879,-3.0898,-3.0898,-3.0898,-3.0898,-3.0566,-2.9687,-2.8809,-2.7949,-2.7051,-2.6191,0.0,0.0,0.0,0.0,0.0,0.0,0.0,0.0,0.0,-2.5661,-2.5602,-2.5602,-2.5563,-2.5491,-2.5491,-2.5491,-2.551,0.0,0.0,0.0,0.0,0.0,0.0,0.0,0.0,0.0,0.0,0.0,0.0,0.0,0.0,0.0,0.0,0.0,0.0,0.0,-2.4804,-2.4804,0.0,-2.5367,-2.5957,-2.5741,-2.687,-2.8029,-2.7863,-2.8411,-2.9005,0.0,0.0,-2.8893,-2.8484,-2.8143,-2.7783,-2.7378,-2.6971,-2.6691,-2.6691,-2.6691,0.0,-2.6708,0.0,0.0,0.0,0.0,0.0,-2.9573,-3.1787,-3.3181,-3.3214,-3.3578,0.0,-3.3807,-3.3807,-3.3807,-3.3807,-3.3807,-3.3807,-3.3807,-3.3807,-3.3807,-3.3807,-3.3807,-3.3807,-3.3807,-3.3807,-3.3807,-3.3807,-3.3807,-3.3788,0.0,-3.4086,-3.4057,-3.3883,-3.4486,-3.5031,-3.5503,-3.5503,-3.55,-3.55,0.0,0.0,0.0,0.0,0.0,0.0,-3.0879,-3.0898,-3.0898,-3.0898,-3.0898,-3.0781,-3.0527,-2.9707,-2.8848,-2.7969,-2.6543,0.0,0.0,0.0,0.0,0.0,0.0,0.0,0.0,-2.5703,-2.5683,-2.5662,-2.5662,-2.566,-2.5635,-2.5597,-2.5564,-2.5564,-2.5564,-2.5564,0.0,0.0,0.0,0.0,0.0,0.0,0.0,0.0,0.0,0.0,0.0,0.0,0.0,0.0,0.0,0.0,0.0,0.0,0.0,-2.5086,-2.5384,-2.5736,-2.634,-2.719,-2.8006,-2.8496,-2.8803,-2.9005,-2.9005,0.0,-2.8552,-2.8433,-2.7918,-2.7439,-2.7317,-2.6971,-2.6691,-2.6691,-2.6691,0.0,0.0,0.0,0.0,0.0,0.0,-3.1426,0.0,0.0,-3.3606,-3.3606,-3.3721,-3.3807,-3.3807,-3.3807,-3.3807,-3.3807,-3.3807,-3.3807,-3.3807,-3.3807,-3.3807,-3.3807,-3.3807,-3.3807,-3.3807,-3.3807,-3.3807,-3.3807,-3.3807,-3.3807,-3.382,-3.3889,-3.3873,-3.3825,-3.4013,-3.4195,-3.44,-3.4906,-3.5081,-3.5124,0.0,0.0,0.0,0.0,0.0,0.0,-3.0898,-3.0898,-3.0898,-3.0898,-3.0898,-3.0898,-3.0898,-3.0117,-2.9375,-2.8848,-2.7207,0.0,0.0,0.0,0.0,0.0,0.0,0.0,-2.5703,-2.5703,-2.5703,-2.5703,-2.5703,-2.5703,-2.5703,-2.566,-2.5636,-2.5636,-2.5636,-2.5636,0.0,0.0,0.0,0.0,0.0,0.0,-2.5703,0.0,0.0,0.0,0.0,0.0,0.0,0.0,0.0,0.0,0.0,0.0,0.0,0.0,-2.5833,-2.6434,-2.7066,-2.774,-2.8374,-2.8877,-2.9005,-2.8952,0.0,0.0,-2.8311,-2.8043,-2.7733,-2.7424,-2.7131,-2.6987,-2.6873,-2.6725,-2.6691,0.0,0.0,0.0,0.0,0.0,0.0,0.0,0.0,-3.3707,-3.3807,-3.3807,-3.3807,-3.3807,-3.3807,-3.3807,-3.3807,-3.3807,-3.3807,-3.3807,-3.3807,-3.3807,-3.3807,-3.3807,-3.3807,-3.3807,-3.3807,-3.3807,-3.3807,-3.3807,-3.3807,-3.3807,0.0,-3.3807,-3.3807,-3.3802,-3.3807,-3.3796,-3.3876,-3.4484,-3.4709,-3.4754,0.0,0.0,0.0,0.0,0.0,0.0,0.0,-3.0898,-3.0898,-3.0898,-3.0898,-3.0898,-3.0898,-3.0176,-2.9668,-2.9609,-2.8066,0.0,0.0,0.0,0.0,0.0,0.0,0.0,-2.5703,-2.5703,-2.5703,-2.5703,-2.5703,-2.5703,-2.5703,-2.5703,-2.5703,-2.5703,-2.5703,-2.5703,-2.5703,-2.5703,-2.5703,-2.5703,-2.5703,-2.5703,0.0,0.0,0.0,0.0,0.0,0.0,0.0,0.0,0.0,0.0,0.0,0.0,0.0,0.0,0.0,0.0,0.0,-2.8429,-2.9005,-2.9005,-2.8982,-2.8863,-2.8527,0.0,0.0,-2.7512,-2.7634,-2.7619,-2.6873,-2.7019,-2.7131,-2.6758,-2.6691,0.0,0.0,0.0,0.0,0.0,-3.0735,0.0,-3.3079,-3.3536,-3.3762,-3.3807,-3.3807,-3.3807,-3.3807,-3.3807,-3.3807,-3.3807,-3.3807,-3.3807,-3.3807,-3.3807,-3.3807,-3.3807,-3.3807,-3.3807,-3.3807,-3.3807,-3.3807,0.0,-3.3807,-3.3807,-3.3807,-3.3807,-3.3807,-3.3807,-3.3807,-3.3806,-3.3849,-3.4244,-3.439,-3.4427,0.0,0.0,0.0,0.0,0.0,0.0,0.0,0.0,0.0,0.0,-3.0898,-3.0898,-3.0898,-3.0723,-3.0332,0.0,0.0,0.0,0.0,0.0,0.0,0.0,0.0,0.0,-2.5703,-2.5703,-2.5703,-2.5703,-2.5703,-2.5703,-2.5703,-2.5703,-2.5703,-2.5703,-2.5703,-2.5703,-2.5703,-2.5703,-2.5703,-2.5703,-2.5703,-2.5703,0.0,0.0,0.0,0.0,-2.5537,-2.5477,0.0,0.0,0.0,0.0,0.0,0.0,0.0,0.0,-2.7619,-2.7934,-2.8546,0.0,-2.9005,-2.9005,-2.8773,-2.8608,0.0,0.0,0.0,0.0,0.0,0.0,0.0,0.0,0.0,0.0,0.0,0.0,0.0,0.0,0.0,0.0,-3.1375,-3.2087,-3.3087,-3.3288,-3.348,-3.3793,-3.3807,-3.3807,-3.3807,-3.3807,-3.3807,-3.3807,-3.3807,-3.3807,-3.3807,-3.3807,-3.3807,-3.3807,-3.3807,-3.3807,-3.3807,-3.3807,-3.3807,-3.3807,-3.3807,-3.3807,-3.3807,-3.3807,-3.3807,-3.3807,-3.3807,-3.3792,-3.3841,-3.4141,-3.4246,-3.43,0.0,0.0,0.0,0.0,0.0,0.0,0.0,0.0,0.0,0.0,-3.0898,-3.0898,-3.0898,-3.0898,-3.0703,0.0,0.0,0.0,0.0,0.0,0.0,0.0,0.0,-2.5703,-2.5703,-2.5703,-2.5703,-2.5703,-2.5703,-2.5703,-2.5703,-2.5703,-2.5703,-2.5703,-2.5703,-2.5703,-2.5703,-2.5703,-2.5703,-2.5703,-2.5703,0.0,0.0,0.0,0.0,0.0,-2.5481,-2.5683,0.0,-2.5796,-2.6254,-2.6854,0.0,0.0,0.0,0.0,-2.8157,-2.8448,-2.8877,-2.9005,-2.9005,-2.9005,-2.8839,-2.8682,-2.8725,0.0,0.0,0.0,0.0,0.0,0.0,0.0,0.0,0.0,-2.7003,0.0,0.0,0.0,0.0,0.0,-3.179,-3.2315,0.0,-3.289,-3.2983,-3.3196,-3.3404,-3.3522,-3.3522,-3.3707,-3.3807,-3.3807,-3.3807,-3.3807,-3.3807,-3.3807,-3.3807,-3.3807,-3.3807,-3.3807,-3.3807,-3.3807,-3.3807,-3.3807,-3.3807,-3.3807,-3.3807,-3.3807,-3.3807,-3.3807,-3.3807,-3.3807,-3.3815,-3.3961,-3.4006,-3.4043,0.0,0.0,0.0,0.0,0.0,0.0,0.0,0.0,0.0,0.0,0.0,0.0,0.0,0.0,0.0,0.0,0.0,0.0,0.0,0.0,0.0,0.0,-2.5762,-2.5703,-2.5703,-2.5703,-2.5703,-2.5703,-2.5703,-2.5703,-2.5703,-2.5703,-2.5703,-2.5703,-2.5703,-2.5683,-2.5683,-2.5683,-2.5683,-2.5662,-2.5662,0.0,0.0,0.0,0.0,0.0,0.0,0.0,0.0,-2.6785,-2.7201,-2.7731,-2.7483,0.0,0.0,0.0,0.0,0.0,-2.9005,-2.9005,-2.9005,-2.9005,-2.8952,-2.8839,-2.8552,0.0,0.0,0.0,0.0,0.0,0.0,0.0,0.0,0.0,0.0,0.0,0.0,0.0,0.0,-3.1469,-3.1995,0.0,-3.2484,-3.2501,-3.2534,-3.2599,-3.2983,-3.3199,-3.3199,-3.3465,-3.3634,-3.3707,-3.3707,-3.3734,-3.3807,-3.3807,-3.3807,-3.3807,-3.3807,-3.3807,-3.3807,-3.3807,-3.3807,-3.3807,0.0,0.0,-3.3807,-3.3807,-3.3807,-3.3807,-3.3807,-3.3807,-3.3807,-3.3807,-3.3807,-3.3807,0.0,0.0,0.0,0.0,0.0,0.0,0.0,0.0,0.0,0.0,0.0,0.0,0.0,0.0,0.0,0.0,0.0,0.0,0.0,0.0,0.0,-2.6816,-2.6094,-2.5703,-2.5703,-2.5703,-2.5703,-2.5703,-2.5703,-2.5703,-2.5703,-2.5703,-2.5703,-2.5703,-2.5703,-2.5662,-2.5628,-2.5628,-2.5573,-2.5537,-2.5537,0.0,0.0,0.0,0.0,0.0,0.0,0.0,0.0,-2.7509,-2.7968,-2.8574,-2.8369,0.0,0.0,0.0,0.0,0.0,-2.9005,-2.9005,-2.9005,-2.9005,-2.8749,-2.8565,-2.8839,0.0,0.0,0.0,0.0,0.0,0.0,0.0,0.0,0.0,0.0,-2.8596,0.0,0.0,-3.0975,-3.2202,0.0,-3.1694,-3.2434,-3.2501,-3.2665,-3.306,-3.3169,-3.3199,-3.3199,-3.2872,-3.2887,-3.3273,-3.3288,-3.3465,-3.3807,-3.3807,-3.3807,-3.3807,-3.3807,-3.3807,-3.3807,-3.3807,-3.3807,-3.3807,0.0,-3.3807,-3.3807,-3.3807,-3.3807,-3.3807,-3.3807,-3.3807,-3.3807,-3.3807,-3.3807,-3.3807,0.0,0.0,0.0,0.0,0.0,0.0,0.0,0.0,0.0,0.0,0.0,0.0,0.0,0.0,0.0,0.0,0.0,0.0,0.0,0.0,-2.8184,-2.7715,-2.6875,-2.6172,-2.5703,-2.5703,-2.5703,-2.5703,-2.5703,-2.5683,-2.5657,-2.5605,-2.5597,-2.5597,-2.5597,-2.5569,-2.5549,-2.5549,-2.5535,-2.5491,0.0,0.0,0.0,0.0,0.0,0.0,0.0,0.0,0.0,0.0,-2.8881,-2.9405,-2.9204,0.0,0.0,0.0,0.0,0.0,-2.9005,-2.9005,-2.9005,-2.9005,-2.8863,-2.8773,-2.8952,0.0,0.0,0.0,0.0,0.0,0.0,0.0,0.0,0.0,0.0,-2.8795,-3.093,-3.1101,-3.1485,0.0,0.0,-3.2333,-3.2484,-3.2501,-3.2583,-3.2811,-3.306,-3.3199,-3.3199,-3.3196,-3.3299,-3.3522,-3.3522,-3.3606,-3.3807,-3.3807,-3.3807,-3.3807,-3.3807,-3.3807,-3.3807,-3.3807,-3.3807,-3.3807,0.0,-3.3807,-3.3807,-3.3807,-3.3807,-3.3807,-3.3807,-3.3807,-3.3807,-3.3807,-3.3807,-3.3807,0.0,0.0,0.0,0.0,0.0,0.0,0.0,0.0,0.0,0.0,0.0,0.0,0.0,0.0,0.0,0.0,0.0,0.0,0.0,-2.9707,-2.9297,-2.8633,-2.7773,-2.6894,-2.6016,-2.5801,-2.5703,-2.5703,-2.5683,-2.5636,-2.5588,-2.5513,-2.5491,-2.5491,-2.5491,-2.5484,-2.5488,-2.5485,-2.5474,-2.5459,0.0,0.0,0.0,0.0,0.0,0.0,0.0,0.0,0.0,0.0,0.0,0.0,0.0,0.0,0.0,-2.9055,-2.9005,-2.8982,-2.8893,-2.8863,-2.8839,-2.8767,-2.8881,-2.9005,-2.9005,0.0,0.0,0.0,0.0,0.0,0.0,0.0,0.0,0.0,-2.8945,-2.9545,-3.2115,-3.2005,-3.2083,-3.3215,-3.3151,-3.2937,-3.2681,-3.2665,-3.2665,-3.2665,-3.2999,-3.3199,-3.3199,-3.339,-3.355,-3.3666,-3.3666,-3.3707,-3.3807,-3.3807,-3.3803,-3.379,-3.379,-3.3803,-3.3806,-3.3799,-3.379,-3.379,-3.3798,-3.3807,-3.3807,-3.3807,-3.3807,-3.3807,-3.3807,-3.3807,-3.3807,-3.3807,-3.3807,-3.3807,0.0,0.0,0.0,0.0,0.0,0.0,0.0,0.0,0.0,0.0,0.0,0.0,0.0,0.0,0.0,0.0,0.0,0.0,0.0,-3.0059,-2.957,-2.9512,-2.8672,-2.7793,-2.6934,-2.6113,-2.5703,-2.5703,-2.5635,-2.5567,-2.5517,-2.5493,-2.5491,-2.5491,-2.5491,-2.5474,-2.5401,-2.5413,-2.5375,-2.5317,-2.5317,0.0,0.0,0.0,0.0,0.0,0.0,0.0,0.0,0.0,0.0,0.0,0.0,0.0,-2.901,-2.9005,-2.9005,-2.8917,-2.8552,-2.8446,-2.8368,-2.8065,-2.8495,0.0,-2.9005,-2.8469,0.0,-2.7911,0.0,0.0,0.0,0.0,0.0,-2.8619,-3.0015,-3.1367,-3.2036,0.0,-3.2753,-3.3648,-3.3042,-3.2713,-3.3105,-3.3154,-3.3154,-3.3154,-3.3184,-3.3199,-3.3199,-3.2809,-3.2793,-3.3229,-3.3243,-3.3419,-3.3807,-3.3807,-3.3799,-3.3788,-3.3788,-3.3803,-3.3791,-3.3815,-3.3788,-3.3785,-3.3794,-3.3807,-3.3807,-3.3807,-3.3807,-3.3807,-3.3807,-3.3807,-3.3807,-3.3807,-3.3807,-3.3807,0.0,0.0,0.0,0.0,0.0,0.0,0.0,0.0,0.0,0.0,0.0,0.0,0.0,0.0,0.0,0.0,0.0,0.0,0.0,-3.0586,-3.041,-3.041,-2.9527,-2.8895,-2.8563,-2.7177,-2.6456,-2.6456,-2.5788,-2.5468,-2.5441,-2.5398,-2.5387,-2.5387,-2.5387,-2.5363,-2.5344,-2.5339,-2.5312,-2.5308,-2.5308,-2.5827,0.0,0.0,0.0,0.0,0.0,0.0,0.0,0.0,-2.9678,-2.9494,-2.9414,-2.9232,-2.9005,-2.9005,-2.9005,-2.8917,-2.8515,-2.8577,-2.862,-2.8051,-2.8456,0.0,0.0,-2.8106,-2.7897,-2.7897,-2.7648,0.0,0.0,0.0,-2.9364,-3.0182,-3.0687,-3.1395,-3.2616,-3.2372,-3.24,-3.3317,-3.3136,-3.3105,-3.3536,-3.3564,-3.3564,-3.3564,-3.3564,-3.3564,-3.3564,-3.3404,-3.339,-3.3564,-3.3564,-3.3652,-3.3807,-3.3807,-3.3803,-3.3795,-3.2697,-3.2758,-3.3771,-3.3229,-3.3103,-3.3319,-3.3397,-3.3255,-3.3011,-3.3317,-3.3437,-3.3447,-3.3707,-3.3807,-3.3807,-3.3807,-3.3807,-3.3807,0.0,0.0,0.0,0.0,0.0,0.0,0.0,0.0,0.0,0.0,0.0,0.0,0.0,0.0,0.0,0.0,0.0,0.0,-3.0898,-3.0898,-3.0879,-3.0837,-3.0218,-2.9868,-2.9852,-2.8394,-2.7517,-2.7277,-2.6291,-2.5654,-2.5379,-2.5312,-2.5308,-2.5308,-2.5308,-2.5308,-2.5308,-2.5308,-2.5308,-2.5284,-2.5224,-2.5926,0.0,0.0,0.0,0.0,0.0,0.0,0.0,0.0,-2.9513,-2.9392,-2.9299,-2.9156,-2.9005,-2.9005,-2.9005,-2.8917,-2.8515,-2.859,-2.862,0.0,0.0,0.0,-2.7663,-2.7725,-2.7897,-2.7897,-2.7871,0.0,0.0,0.0,0.0,0.0,-3.1232,-3.1666,-3.2816,-3.2416,-3.2264,-3.2887,-3.2983,-3.309,-3.3357,-3.339,-3.339,-3.339,-3.339,-3.3447,-3.3592,-3.3606,-3.3666,-3.3807,-3.3807,-3.3807,-3.3807,-3.3807,-3.379,-3.3778,-3.2593,-3.2648,-3.3789,-3.3184,-3.3045,-3.325,-3.335,-3.3211,-3.2934,-3.3273,-3.3375,-3.3422,-3.3694,-3.3807,-3.3807,-3.3807,-3.3807,-3.3807,0.0,0.0,0.0,0.0,0.0,0.0,0.0,0.0,-3.0898,-3.0898,-3.0898,0.0,0.0,0.0,0.0,0.0,0.0,0.0,-3.0898,-3.0898,-3.0837,-3.0696,-3.0695,-3.0671,-3.0606,-2.9683,-2.8857,-2.8093,-2.7163,-2.6213,-2.5308,-2.5308,-2.5308,-2.5308,-2.5308,-2.5303,-2.5303,-2.5303,-2.5303,-2.5274,-2.5082,-2.6156,-2.7838,0.0,0.0,0.0,0.0,0.0,0.0,0.0,-2.9402,-2.9351,-2.9078,-2.9005,-2.9005,-2.8994,-2.8994,-2.8917,-2.8496,-2.8394,0.0,0.0,0.0,0.0,0.0,-2.7334,-2.7897,-2.7897,0.0,-2.7807,-2.7824,0.0,0.0,-3.0716,-3.1722,-3.2501,-3.2501,-3.2484,-3.2484,-3.2501,-3.2501,-3.2501,-3.2501,-3.2501,-3.2501,-3.2501,-3.2501,-3.2697,-3.3169,-3.3199,-3.3394,-3.3762,-3.3793,-3.3775,-3.3807,-3.3807,-3.3807,-3.3807,-3.3807,-3.38,-3.3797,-3.3805,-3.3795,-3.3791,-3.3799,-3.3775,-3.3793,-3.3775,-3.3807,-3.3807,-3.3807,-3.3788,-3.3788,-3.3788,-3.3788,-3.3788,0.0,0.0,0.0,0.0,0.0,0.0,0.0,0.0,-3.0898,-3.0898,-3.0898,0.0,0.0,0.0,0.0,0.0,0.0,0.0,-3.0769,-3.0768,-3.0714,-3.0621,-3.0587,-3.054,-3.0529,-3.0216,-2.935,-2.7961,-2.708,-2.6482,-2.6192,-2.5596,-2.5308,-2.5308,-2.5308,-2.5219,-2.5094,-2.5094,-2.503,-2.4936,-2.4883,-2.5882,-2.739,0.0,0.0,0.0,0.0,0.0,0.0,0.0,0.0,0.0,-2.9028,-2.9005,-2.894,-2.8658,-2.8577,-2.8433,-2.7805,0.0,0.0,0.0,0.0,0.0,0.0,0.0,0.0,0.0,0.0,-2.8544,-2.9575,0.0,0.0,-3.1392,-3.1776,-3.2004,-3.2004,-3.1751,-3.1677,-3.1969,-3.2004,-3.2144,-3.2467,-3.2501,-3.2501,-3.2501,-3.2501,-3.2567,-3.2697,-3.2697,-3.2761,-3.2887,-3.3098,-3.3412,-3.3815,-3.3797,-3.3802,-3.3807,-3.3807,-3.3803,-3.3803,-3.3793,-3.364,-3.3373,-3.3386,-3.3181,-3.2903,-3.3225,-3.3536,-3.3762,-3.3494,-3.3375,-3.3375,-3.3375,-3.3375,-3.3422,0.0,0.0,0.0,0.0,0.0,0.0,0.0,0.0,-3.0898,-3.0898,-3.0898,-3.0898,0.0,0.0,0.0,0.0,0.0,0.0,-3.0716,-3.0679,-3.0638,-3.0558,-3.0517,-3.0495,-3.0462,-3.0411,-2.9904,-2.889,-2.7698,-2.6948,-2.6577,-2.5622,-2.5173,-2.5168,-2.5132,-2.5037,-2.493,-2.493,-2.4864,-2.4797,-2.4716,-2.5683,-2.718,0.0,0.0,0.0,0.0,0.0,0.0,0.0,0.0,0.0,-2.9005,-2.9005,-2.894,-2.8707,-2.8645,-2.8515,-2.7904,0.0,0.0,0.0,0.0,0.0,0.0,0.0,0.0,0.0,0.0,-2.899,-3.0191,-3.0672,0.0,-3.1497,-3.1547,-3.1547,-3.1547,-3.1351,-3.1291,-3.1528,-3.1547,-3.1677,-3.1967,-3.1986,-3.1986,-3.1986,-3.1986,-3.2056,-3.2196,-3.2213,-3.2386,-3.2693,-3.2886,-3.3262,-3.3797,-3.3797,-3.3786,-3.3793,-3.3111,-3.2951,-3.3299,-3.3648,-3.3666,-3.3451,-3.3451,-3.3288,-3.3042,-3.3332,-3.3578,-3.378,-3.3536,-3.3332,-3.3199,-3.3199,-3.3075,-3.2983,0.0,0.0,-3.0898,-3.0898,0.0,0.0,0.0,0.0,-3.0898,-3.0898,-3.0898,-3.0898,0.0,0.0,0.0,-3.0879,-3.077,-3.0692,-3.0684,-3.0614,-3.0554,-3.049,-3.0485,-3.0467,-3.0404,-3.0404,-3.0398,-3.0361,-2.8788,-2.7558,-2.6677,-2.561,-2.5075,-2.498,-2.4855,-2.479,-2.4775,-2.4775,-2.476,-2.4731,-2.4553,-2.5492,-2.7004,-2.6705,0.0,0.0,0.0,0.0,0.0,0.0,0.0,0.0,-2.9005,-2.9005,-2.8994,-2.897,-2.894,-2.8851,-2.842,0.0,0.0,0.0,0.0,0.0,0.0,0.0,0.0,0.0,0.0,-2.9331,-3.0074,-3.0751,-3.119,-3.119,-3.119,-3.119,-3.119,-3.119,-3.119,-3.119,-3.119,-3.119,-3.119,-3.119,-3.119,-3.119,-3.119,-3.1351,-3.1733,-3.1734,-3.2073,-3.2804,-3.2839,-3.3066,-3.3556,-3.3556,-3.3575,-3.3542,-3.2033,-3.1717,-3.2487,-3.3354,-3.3734,-3.3748,-3.3748,-3.3748,-3.3748,-3.3775,-3.3807,-3.3807,-3.3762,-3.3508,-3.3139,-3.3139,-3.2874,-3.2567,0.0,0.0,-3.0898,-3.0898,0.0,0.0,0.0,0.0,0.0,0.0,0.0,0.0,0.0,0.0,0.0,-3.0746,-3.0718,-3.0663,-3.0544,-3.0529,-3.0481,-3.0422,-3.0417,-3.0419,-3.0404,-3.0404,-3.0305,-3.0082,-2.9249,-2.834,-2.7357,-2.6454,-2.5602,-2.4842,-2.4818,-2.4716,-2.4559,-2.4559,-2.4469,-2.433,-2.4275,-2.4884,-2.5845,-2.6379,-2.7243,0.0,0.0,0.0,0.0,0.0,0.0,0.0,-2.9005,-2.9005,-2.894,-2.8633,-2.854,-2.8381,0.0,-2.7527,0.0,0.0,0.0,0.0,0.0,0.0,0.0,0.0,-2.933,-3.0091,-3.0818,-3.1089,-3.119,-3.119,-3.119,-3.119,-3.119,-3.119,-3.119,-3.119,-3.119,-3.119,-3.119,-3.119,-3.119,-3.119,-3.119,-3.1249,-3.1312,-3.1332,-3.1423,-3.1572,-3.1589,-3.1638,-3.1758,-3.1758,-3.176,-3.1759,-3.2079,-3.2201,-3.2211,-3.2859,-3.3227,-3.3332,-3.3332,-3.3332,-3.3346,-3.368,-3.3807,-3.3762,-3.3447,-3.306,-3.2648,-3.2648,-3.2583,-3.2517,0.0,0.0,0.0,0.0,0.0,0.0,0.0,0.0,0.0,0.0,0.0,0.0,0.0,-3.0794,0.0,0.0,-3.0614,-3.0578,-3.0507,-3.0463,-3.0449,-3.0404,-3.0404,-3.0404,-3.0404,-3.0267,-3.0143,-3.0006,-2.9594,-2.8903,-2.7952,-2.6635,-2.5736,-2.5212,-2.4729,-2.4452,-2.4348,-2.4348,-2.4294,-2.419,-2.419,-2.4677,-2.5485,-2.6282,-2.7108,-2.7908,-2.8712,0.0,0.0,0.0,0.0,0.0,0.0,0.0,-2.8952,-2.8749,-2.8682,-2.8527,0.0,0.0,0.0,0.0,0.0,0.0,0.0,0.0,0.0,0.0,-2.9583,-3.0328,-3.1055,-3.119,-3.119,-3.119,-3.119,-3.119,-3.119,-3.119,-3.119,-3.119,-3.119,-3.119,-3.119,-3.119,-3.119,-3.119,-3.119,-3.119,-3.119,-3.119,-3.119,-3.119,-3.119,-3.1186,-3.1192,-3.1211,-3.1191,-3.122,-3.1653,-3.1916,-3.1969,-3.2508,-3.2787,-3.2856,-3.2856,-3.2856,-3.2872,-3.3087,-3.3181,-3.3166,-3.2952,-3.2583,-3.2161,-3.2161,-3.2161,-3.2161,0.0,0.0,0.0,0.0,0.0,0.0,0.0,0.0,0.0,0.0,0.0,0.0,0.0,-3.0689,-3.0663,0.0,0.0,0.0,-3.0491,-3.0439,-3.0404,-3.0404,-3.0404,-3.0373,-3.0323,-3.0103,-2.9969,-2.9901,-2.9739,-2.9259,-2.8472,-2.671,-2.581,-2.5616,-2.4634,-2.419,-2.4208,-2.4141,-2.4151,-2.419,-2.4141,-2.4546,-2.5301,-2.6245,-2.7016,-2.7714,-2.8656,-2.9005,-2.9005,-2.9005,0.0,0.0,0.0,0.0,-2.9005,-2.9005,-2.894,-2.8737,0.0,0.0,0.0,0.0,0.0,0.0,0.0,0.0,0.0,-2.8993,-2.9685,-3.048,-3.1089,-3.119,-3.119,-3.119,-3.119,-3.119,-3.119,-3.119,-3.119,-3.119,-3.119,-3.119,-3.119,-3.119,-3.119,-3.119,-3.119,-3.119,-3.119,-3.119,-3.119,-3.119,-3.119,-3.119,-3.119,-3.119,-3.1196,-3.1207,-3.1193,-3.1372,-3.1715,-3.2092,-3.2316,-3.2384,-3.2384,-3.2384,-3.2384,-3.2467,-3.2501,-3.2501,-3.2501,-3.2213,-3.1807,-3.1807,-3.1807,-3.1789,0.0,0.0,0.0,0.0,0.0,0.0,0.0,0.0,0.0,0.0,-3.0793,-3.072,-3.0696,-3.0655,-3.0587,-3.0513,-3.0507,-3.0472,-3.0425,0.0,0.0,-3.0404,-3.0404,-3.0299,-3.0061,-3.0013,-2.9829,-2.9474,-2.9454,-2.9256,-2.8879,-2.7426,-2.6274,-2.5406,-2.4576,-2.419,-2.418,-2.3896,-2.3927,-2.417,-2.3886,-2.401,-2.452,-2.6025,-2.6667,-2.6961,-2.8455,-2.9005,-2.9005,-2.9005,-2.9005,0.0,0.0,0.0,-2.9005,-2.9005,-2.8761,-2.8394,0.0,0.0,0.0,0.0,0.0,0.0,0.0,0.0,0.0,0.0,-3.0093,-3.1072,-3.1173,-3.119,-3.119,-3.119,-3.119,-3.119,-3.119,-3.119,-3.119,-3.119,-3.119,-3.119,-3.119,-3.119,-3.119,-3.119,-3.119,-3.119,-3.119,-3.119,-3.119,-3.119,-3.119,-3.119,-3.119,-3.119,-3.1213,-3.1184,-3.1213,-3.123,-3.1291,-3.1349,-3.1564,-3.188,-3.188,-3.188,-3.1933,-3.2333,-3.2501,-3.2501,-3.2501,-3.2213,-3.1807,-3.1807,-3.1807,-3.1752,0.0,0.0,0.0,0.0,0.0,0.0,0.0,0.0,0.0,0.0,0.0,-3.0638,-3.06,-3.0558,-3.0528,-3.0456,-3.0446,-3.0439,-3.041,-3.0404,-3.0404,-3.0404,-3.0404,-3.0267,-3.0006,-2.9893,-2.9687,-2.9402,-2.9246,-2.9123,-2.8968,-2.7669,-2.6709,-2.6025,-2.5046,-2.4335,-2.3896,-2.3555,-2.3493,-2.3631,-2.3682,-2.4067,-2.4746,-2.6091,-2.6888,-2.742,-2.8583,0.0,0.0,-2.8929,-2.8851,-2.8694,-2.8929,0.0,0.0,0.0,-2.8412,0.0,-2.794,0.0,0.0,0.0,0.0,0.0,0.0,0.0,0.0,-2.8993,-3.0178,-3.119,-3.119,-3.119,-3.119,-3.119,-3.119,-3.119,-3.119,-3.119,-3.119,-3.119,-3.119,-3.119,-3.119,-3.119,-3.119,-3.119,-3.119,-3.119,-3.119,-3.119,-3.119,-3.119,-3.119,-3.119,-3.119,-3.119,-3.119,-3.119,-3.119,-3.119,-3.119,-3.119,-3.131,-3.1451,-3.1451,-3.1451,-3.147,-3.1694,-3.1769,-3.1769,-3.1769,-3.1657,-3.1451,-3.1451,-3.1621,-3.1734,0.0,0.0,0.0,0.0,0.0,0.0,0.0,0.0,0.0,0.0,0.0,-3.0567,-3.0511,0.0,0.0,0.0,-3.0404,-3.0404,-3.0404,-3.0404,-3.0404,-3.0404,-3.0323,-3.0182,-2.9931,-2.9731,-2.9532,-2.9299,-2.91,-2.9005,-2.8975,-2.7973,-2.7133,-2.6421,-2.5267,-2.4309,-2.3555,-2.323,-2.3117,-2.323,-2.3601,-2.4151,-2.4871,-2.6148,0.0,-2.7639,-2.844,0.0,0.0,0.0,0.0,-2.8329,-2.8639,-2.8502,0.0,0.0,0.0,0.0,0.0,0.0,0.0,0.0,0.0,0.0,0.0,0.0,-2.8738,0.0,-3.0025,-3.097,-3.1157,-3.119,-3.119,-3.119,-3.119,-3.119,-3.119,-3.119,-3.119,-3.119,-3.119,-3.119,-3.119,-3.119,-3.119,-3.119,-3.119,-3.119,-3.119,-3.119,-3.119,-3.119,-3.119,-3.119,-3.119,-3.119,-3.119,-3.119,-3.119,-3.119,-3.119,-3.119,-3.119,-3.119,-3.119,-3.119,-3.119,-3.119,-3.119,-3.119,-3.119,-3.119,-3.119,-3.119,-3.1389,-3.1603,0.0,0.0,0.0,0.0,0.0,0.0,0.0,0.0,0.0,0.0,0.0,-3.0507,-3.0503,-3.0446,-3.039,-3.0404,-3.0404,-3.0404,-3.0404,-3.0404,-3.0404,-3.0404,-3.015,0.0,-2.9722,-2.9523,-2.9289,-2.9028,-2.9005,-2.9005,-2.8994,-2.8541,-2.7548,-2.6067,-2.4878,-2.392,-2.32,-2.2873,-2.291,-2.3236,-2.3702,0.0,0.0,0.0,0.0,0.0,0.0,0.0,0.0,0.0,0.0,0.0,-2.7954,-2.794,-2.7926,0.0,0.0,0.0,0.0,0.0,0.0,0.0,0.0,0.0,0.0,0.0,0.0,0.0,-2.9617,-3.0378,-3.1072,-3.119,-3.119,-3.119,-3.119,-3.119,-3.119,-3.119,-3.119,-3.119,-3.119,-3.119,-3.119,-3.119,-3.119,-3.119,-3.119,-3.119,-3.119,-3.119,-3.119,-3.119,-3.119,-3.119,-3.119,-3.119,-3.119,-3.119,-3.119,-3.119,-3.119,-3.119,-3.119,-3.119,-3.119,-3.119,-3.119,-3.119,-3.119,-3.119,-3.119,-3.119,-3.119,-3.119,-3.121,-3.123,0.0,0.0,0.0,0.0,0.0,0.0,0.0,0.0,0.0,0.0,0.0,0.0,0.0,-3.0419,-3.0404,-3.0404,-3.0404,-3.0404,-3.0404,-3.0404,-3.0317,-3.015,-3.0061,-2.9845,-2.9513,-2.9434,-2.9267,-2.9005,-2.9005,-2.8863,-2.862,-2.825,-2.7396,-2.612,-2.5224,-2.4091,-2.286,-2.2581,-2.2504,0.0,0.0,0.0,0.0,0.0,0.0,0.0,0.0,0.0,0.0,0.0,0.0,0.0,-2.7826,-2.7722,-2.7454,-2.721,0.0,0.0,0.0,0.0,0.0,0.0,0.0,0.0,0.0,-2.7283,-2.7874,-2.8162,-2.9228,-3.0192,-3.0446,-3.0886,-3.119,-3.119,-3.119,-3.119,-3.119,-3.119,-3.119,-3.119,-3.119,-3.119,-3.119,-3.0858,-3.0781,-3.1171,-3.0838,-3.0797,-3.1171,-3.119,-3.119,-3.119,-3.119,-3.119,-3.119,-3.119,-3.119,-3.119,-3.119,-3.119,-3.119,-3.119,-3.119,-3.119,-3.119,-3.119,-3.119,-3.119,-3.119,-3.119,-3.119,-3.119,-3.119,-3.119,-3.119,-3.119,0.0,0.0,0.0,0.0,0.0,-3.0524,-3.0467,-3.0472,-3.0442,-3.0416,0.0,0.0,0.0,0.0,-3.0404,-3.0404,-3.0404,-3.0361,-3.0267,-3.026,-3.0162,-2.9908,-2.9837,-2.967,-2.9412,-2.931,-2.9189,-2.9005,-2.8863,-2.8658,-2.8394,-2.7922,-2.7157,-2.6157,-2.5293,-2.417,-2.2924,0.0,0.0,-2.2409,0.0,0.0,-2.504,0.0,0.0,0.0,0.0,0.0,0.0,0.0,0.0,0.0,-2.7409,-2.7301,-2.7035,-2.6791,-2.6691,0.0,-2.7036,0.0,0.0,0.0,0.0,0.0,0.0,0.0,-2.7503,-2.7756,-2.8618,-2.948,-2.9987,-3.0497,-3.0903,-3.1157,-3.119,-3.119,-3.119,-3.119,-3.119,-3.119,-3.119,-3.119,-3.119,-3.0658,-3.0477,-3.0858,-3.0335,0.0,-3.0559,-3.0972,-3.1207,-3.119,-3.119,-3.119,-3.119,-3.119,-3.119,-3.119,-3.119,-3.119,-3.119,-3.119,-3.119,-3.119,-3.119,-3.119,-3.119,-3.119,-3.119,-3.119,-3.119,-3.119,-3.119,-3.119,-3.119,-3.119,0.0,0.0,-3.0494,-3.0494,-3.0446,-3.0404,-3.0404,-3.0404,-3.0404,-3.0404,0.0,0.0,0.0,0.0,0.0,-3.0404,-3.0404,-3.0292,-3.0013,-3.0006,-2.9908,-2.9705,-2.9504,-2.9402,-2.9392,-2.9134,-2.8994,-2.8982,-2.859,-2.8394,-2.835,-2.7631,-2.6905,-2.618,-2.5031,-2.4118,-2.3376,0.0,-2.2296,-2.2431,0.0,-2.4474,-2.466,0.0,0.0,0.0,-2.6691,-2.6691,0.0,-2.6691,0.0,0.0,0.0,-2.6691,-2.6691,-2.6691,-2.6691,0.0,0.0,0.0,0.0,0.0,0.0,0.0,-2.6691,0.0,-2.6894,-2.7621,-2.779,-2.8263,-2.9751,-3.0074,-3.0345,-3.1055,-3.119,-3.119,-3.119,-3.119,-3.119,-3.119,-3.119,-3.119,-3.1171,-3.0638,-3.0272,-3.0272,-2.9717,-2.9384,-2.9406,-3.0554,-3.1208,-3.1205,-3.1188,-3.1207,-3.119,-3.119,-3.119,-3.119,-3.119,-3.119,-3.119,-3.119,-3.119,-3.119,-3.119,-3.119,-3.119,-3.119,-3.119,-3.119,-3.119,-3.119,-3.119,-3.119,-3.119,-3.119,0.0,-3.0467,-3.0428,-3.0428,-3.0414,-3.0404,-3.0404,-3.0404,-3.0404,0.0,0.0,0.0,-3.0404,-3.0404,-3.0404,-3.0404,-3.0404,-3.0292,-3.0013,-3.0006,-2.9845,-2.9494,-2.9424,-2.931,-2.9112,-2.9051,-2.8851,-2.8565,-2.8458,-2.8125,-2.7601,-2.7394,-2.7043,-2.6516,-2.5673,-2.4881,-2.4118,-2.2835,0.0,-2.2381,-2.3325,-2.4017,0.0,0.0,0.0,0.0,0.0,-2.6691,-2.6691,0.0,-2.6691,-2.6691,0.0,0.0,-2.6691,-2.6691,0.0,0.0,-2.6691,0.0,0.0,0.0,0.0,0.0,-2.6691,-2.6691,-2.6759,-2.6962,-2.7418,-2.7925,-2.8365,-2.9345,-3.0176,-3.0378,-3.0852,-3.119,-3.119,-3.119,-3.119,-3.119,-3.119,-3.1035,-3.058,-3.0,-2.9651,0.0,-2.9088,-2.8943,-2.9384,-3.0553,-3.1204,-3.1204,-3.1208,-3.1197,-3.119,-3.119,-3.119,-3.119,-3.119,-3.119,-3.119,-3.119,-3.119,-3.119,-3.119,-3.119,-3.119,-3.119,-3.119,-3.119,-3.119,-3.119,-3.119,-3.119,-3.119,-3.119,-3.0467,-3.0428,-3.0404,-3.0404,-3.0404,-3.0404,-3.0404,-3.0404,-3.0404,0.0,0.0,0.0,-3.0248,-3.0222,-3.0196,-3.0121,-3.0114,-3.0007,-2.9773,-2.9738,-2.9598,-2.9246,-2.9225,-2.9167,-2.9005,-2.9005,-2.8797,-2.8407,-2.8264,-2.7876,-2.7303,-2.7131,-2.6923,-2.6657,-2.593,-2.5242,-2.4544,0.0,0.0,0.0,-2.3187,0.0,0.0,-2.538,-2.6033,0.0,0.0,0.0,-2.6436,-2.6641,-2.6691,0.0,0.0,0.0,0.0,0.0,0.0,0.0,0.0,0.0,0.0,0.0,0.0,0.0,-2.6691,-2.6691,-2.6691,0.0,-2.7046,-2.7435,-2.7739,-2.8534,-2.9345,-3.0006,-3.0463,-3.0852,-3.1157,-3.119,-3.119,-3.119,-3.119,-3.0958,-3.0372,-2.9761,-2.9293,-2.9042,-2.8463,-2.8266,-2.8637,-2.9317,-2.9701,-2.9697,-3.0674,-3.1215,-3.1187,-3.1187,-3.12,-3.119,-3.119,-3.119,-3.119,-3.119,-3.119,-3.119,-3.119,-3.119,-3.119,-3.119,-3.119,-3.119,-3.119,-3.119,-3.119,-3.119,-3.119,-3.119,0.0,-3.0404,-3.0404,-3.0404,-3.0404,-3.0404,-3.0404,-3.0404,-3.0398,0.0,-3.0343,-3.0235,-2.9991,-2.9969,-2.9901,-2.9722,-2.9705,-2.9598,-2.9404,-2.9402,-2.9278,-2.9017,-2.9005,-2.9005,-2.9005,-2.9005,-2.8773,-2.8337,-2.8047,-2.7663,-2.7225,-2.6857,-2.6691,-2.6657,-2.6015,-2.538,-2.4756,-2.4047,0.0,-2.1788,-2.3227,-2.3852,0.0,0.0,-2.5841,-2.5906,-2.5906,-2.5943,-2.6067,-2.6556,-2.6691,0.0,0.0,0.0,0.0,0.0,-2.6691,0.0,0.0,0.0,0.0,0.0,-2.6691,0.0,-2.6691,-2.6691,-2.6691,-2.6691,-2.6691,-2.6894,-2.7553,-2.7739,-2.8246,-2.9616,-2.9987,-3.0362,-3.1089,-3.119,-3.119,-3.119,-3.119,-3.0958,-3.0372,-2.9805,-2.9225,-2.8559,-2.7959,-2.76,-2.7603,-2.7588,-2.7595,-2.7616,-2.9685,-3.0804,-3.0806,-3.0931,-3.1025,-3.1095,-3.1095,-3.1151,-3.119,-3.119,-3.119,-3.119,-3.119,-3.119,-3.119,-3.119,-3.119,-3.119,-3.119,-3.119,-3.119,-3.119,-3.119,-3.119,-3.041,-3.0404,-3.0404,-3.0404,-3.0404,-3.0404,-3.0404,-3.0404,-3.0317,-3.0115,-2.9943,-2.9815,-2.9754,-2.9754,-2.9729,-2.9705,-2.9705,-2.9598,-2.9404,-2.9402,-2.9278,-2.9017,-2.9005,-2.9005,-2.9005,-2.9005,-2.8676,-2.801,-2.794,-2.753,-2.6825,-2.6741,-2.6691,-2.6691,-2.6539,-2.5866,-2.4771,0.0,0.0,-2.2222,-2.2901,0.0,-2.4092,-2.4365,-2.4834,-2.5354,-2.5354,-2.5633,-2.6067,-2.6556,-2.6691,-2.6691,0.0,0.0,0.0,-2.6691,0.0,0.0,0.0,0.0,0.0,0.0,0.0,0.0,-2.6691,-2.6691,-2.6691,0.0,-2.6691,-2.6742,-2.6894,-2.7401,-2.7908,-2.8196,-2.9277,-3.0362,-3.1089,-3.119,-3.119,-3.119,-3.119,-3.0958,-3.0372,-3.0187,-2.9673,-2.8583,-2.7959,-2.7605,-2.7605,-2.7605,-2.7597,-2.761,-2.8077,-2.8295,-2.8294,-2.9265,-2.9995,-3.0477,-3.0477,-3.072,-3.119,-3.119,-3.119,-3.119,-3.119,-3.119,-3.119,-3.119,-3.119,-3.119,-3.119,-3.119,-3.119,-3.119,-3.119,-3.119,-3.0404,-3.0404,-3.0404,-3.0404,-3.0299,-3.0202,-3.0202,-3.0128,-3.0007,-2.9869,-2.9754,-2.9661,-2.9551,-2.9542,-2.9513,-2.9357,-2.9346,-2.9304,-2.9203,-2.9192,-2.9145,-2.9005,-2.9005,-2.9005,-2.9005,-2.8797,-2.8438,-2.7897,-2.7692,-2.7303,-2.6691,-2.6691,-2.6691,-2.6691,-2.6453,-2.5853,-2.497,0.0,-2.3791,-2.295,-2.3122,0.0,-2.378,-2.4107,-2.4493,-2.4796,-2.4796,-2.5316,-2.6049,-2.6279,-2.6505,0.0,-2.6691,-2.6691,-2.6691,0.0,-2.6691,-2.6691,0.0,0.0,0.0,-2.6691,0.0,0.0,0.0,-2.6691,-2.6691,-2.6691,-2.6691,-2.6691,-2.6691,-2.6996,-2.7367,-2.7739,-2.8449,-2.9228,-2.9989,-3.0734,-3.119,-3.119,-3.119,-3.0958,-3.0372,-3.0038,-2.9361,-2.814,-2.776,-2.76,-2.76,-2.76,-2.761,-2.7612,-2.7597,-2.7594,-2.7597,-2.8591,-2.9357,-2.9848,-3.0166,-3.0456,-3.076,-3.1055,-3.119,-3.119,-3.119,-3.119,-3.119,-3.119,-3.119,-3.119,-3.119,-3.119,-3.119,-3.119,-3.119,-3.119,-3.0398,-3.0361,-3.0317,-3.0317,-3.0115,-2.9947,-2.9947,-2.9804,-2.9687,-2.9643,-2.9598,-2.9504,-2.9351,-2.9259,-2.9112,-2.8899,-2.8827,-2.8815,-2.8875,-2.8875,-2.8917,-2.8994,-2.8929,-2.8875,-2.8875,-2.8502,-2.8143,-2.7779,-2.7454,-2.7099,-2.6691,-2.6691,-2.6657,-2.6556,-2.6174,-2.5652,0.0,0.0,0.0,-2.3593,0.0,-2.3445,-2.3491,-2.4045,-2.4246,-2.4266,-2.4369,-2.4969,-2.5726,-2.5924,-2.6175,-2.6436,-2.6641,-2.6573,0.0,0.0,0.0,0.0,0.0,0.0,0.0,0.0,0.0,-2.6691,0.0,0.0,0.0,0.0,0.0,0.0,0.0,0.0,0.0,0.0,0.0,0.0,0.0,-2.9922,0.0,-3.097,-3.0987,-3.0864,-3.0502,-2.9827,-2.895,-2.786,-2.7675,-2.76,-2.76,-2.76,-2.76,-2.76,-2.76,-2.76,-2.7601,-2.8249,-2.8794,-2.9225,-2.9717,-3.0,-3.0145,-3.0638,-3.0918,-3.1035,-3.1035,-3.1075,-3.119,-3.119,-3.119,-3.119,-3.119,-3.119,-3.119,-3.119,-3.119,-3.119,-3.0355,-3.0209,-3.0054,-3.0054,-2.9869,-2.972,-2.972,-2.9703,-2.9644,-2.9464,-2.9235,-2.9078,-2.9044,-2.8731,0.0,0.0,-2.8201,-2.8143,-2.8446,-2.8471,-2.8633,-2.8975,-2.8658,-2.8471,-2.8471,-2.8129,-2.7751,-2.7363,-2.7334,-2.7099,-2.6691,-2.6691,-2.647,-2.6085,-2.6015,0.0,0.0,0.0,-2.4095,0.0,-2.3569,-2.3582,0.0,-2.3672,-2.3702,-2.3752,-2.4225,-2.4491,-2.4732,0.0,-2.5726,-2.5524,0.0,-2.6087,-2.5561,-2.6436,0.0,0.0,0.0,0.0,0.0,0.0,-2.6691,0.0,0.0,0.0,-2.6691,-2.6691,0.0,0.0,0.0,0.0,0.0,0.0,0.0,0.0,-2.7925,-2.8687,-2.9501,-3.0159,-3.0207,-3.0441,-3.1044,-3.0081,-2.9111,-2.8439,-2.791,-2.76,-2.76,-2.76,-2.76,-2.76,-2.76,-2.7595,-2.76,-2.7685,-2.8033,-2.8606,-2.8662,-2.8973,-2.9496,-2.9563,-2.9892,-3.0414,-3.0414,-3.0699,-3.119,-3.119,-3.119,-3.119,-3.119,-3.119,-3.119,-3.119,-3.119,-3.119,-3.0122,-2.9988,-2.9829,-2.9829,-2.9652,-2.9532,-2.9532,-2.9395,-2.9251,-2.9171,-2.9067,-2.8917,0.0,0.0,0.0,0.0,0.0,-2.7968,0.0,0.0,-2.8188,-2.8347,-2.8201,-2.8102,-2.8102,-2.7751,-2.747,-2.7303,-2.7067,-2.6857,-2.6691,-2.6419,-2.6191,-2.5961,-2.5354,0.0,-2.4369,0.0,-2.3794,0.0,0.0,0.0,0.0,-2.3595,-2.3595,-2.3638,-2.3858,-2.4137,-2.4471,0.0,-2.5125,0.0,0.0,0.0,0.0,-2.5801,0.0,0.0,0.0,0.0,0.0,0.0,0.0,0.0,-2.6641,0.0,-2.6691,0.0,0.0,0.0,0.0,0.0,0.0,0.0,-2.6962,0.0,0.0,0.0,-2.8095,0.0,0.0,0.0,-2.9502,-2.938,-2.8936,-2.8036,-2.8067,-2.7968,-2.7625,-2.76,-2.76,-2.76,-2.76,-2.76,-2.76,-2.76,-2.7735,-2.7968,-2.8319,-2.863,-2.8896,-2.9607,-3.0059,-3.0314,-3.0679,-3.0975,-3.119,-3.119,-3.119,-3.119,-3.119,-3.119,-3.119,-3.119,-3.119,-3.119,-2.9804,-2.9722,-2.9626,-2.9626,-2.9435,-2.9289,-2.9289,-2.9019,-2.8839,-2.8839,-2.8767,0.0,-2.829,-2.8166,0.0,0.0,-2.7634,-2.7619,0.0,0.0,-2.7779,-2.7897,-2.7779,0.0,-2.7739,-2.7332,-2.7131,-2.7131,-2.6841,-2.6691,-2.6691,-2.6227,-2.5924,-2.5726,0.0,-2.4307,-2.4158,0.0,-2.3595,-2.3595,-2.3595,-2.3595,-2.3595,-2.3595,-2.3595,-2.3595,-2.3595,-2.3858,-2.4204,-2.4348,-2.4572,0.0,-2.5105,-2.5278,-2.5316,0.0,0.0,0.0,-2.5835,0.0,0.0,0.0,0.0,0.0,0.0,0.0,0.0,0.0,0.0,0.0,0.0,0.0,0.0,0.0,0.0,-2.6691,0.0,-2.6691,0.0,0.0,0.0,0.0,0.0,-2.8505,-2.8356,-2.7601,-2.7817,-2.7869,-2.761,-2.76,-2.76,-2.76,-2.76,-2.76,-2.76,-2.76,-2.76,-2.7625,-2.8042,-2.8262,-2.8271,-2.9141,-2.9635,-2.9848,-3.0456,-3.0797,-3.0975,-3.1131,-3.119,-3.119,-3.119,-3.119,-3.119,-3.119,-3.119,-3.119,-2.9433,-2.9404,-2.9412,-2.9412,-2.9181,-2.9017,-2.9017,-2.867,-2.842,0.0,0.0,0.0,0.0,0.0,0.0,0.0,0.0,-2.6906,-2.7286,0.0,-2.7485,0.0,0.0,-2.7334,0.0,-2.6923,-2.6725,-2.6725,-2.6708,-2.6691,-2.6691,-2.6227,-2.5726,-2.5202,-2.4652,-2.4116,-2.3616,-2.3595,-2.3595,-2.3595,-2.3595,-2.3595,-2.3595,0.0,-2.3595,-2.3595,-2.3595,0.0,0.0,-2.4225,-2.4074,0.0,0.0,0.0,0.0,0.0,0.0,0.0,0.0,0.0,0.0,-2.6031,0.0,0.0,0.0,0.0,-2.6691,0.0,0.0,0.0,0.0,0.0,0.0,0.0,0.0,0.0,0.0,0.0,0.0,0.0,0.0,0.0,0.0,-2.7636,-2.7359,0.0,-2.694,-2.695,-2.757,-2.76,-2.76,-2.76,-2.76,-2.76,-2.76,-2.76,-2.76,-2.76,-2.7625,-2.7625,-2.7625,-2.766,-2.8018,-2.8583,-2.9219,-2.9783,-3.0356,-3.0975,-3.119,-3.119,-3.119,-3.119,-3.119,-3.119,-3.119,-3.119,-2.9134,-2.9134,-2.9134,0.0,0.0,-2.8917,-2.8645,-2.8502,0.0,0.0,-2.7982,0.0,0.0,-2.7378,-2.7194,0.0,0.0,-2.6758,-2.689,-2.6906,0.0,0.0,0.0,-2.6906,0.0,0.0,-2.6691,-2.6691,-2.6691,-2.6556,-2.6227,-2.5707,-2.5182,-2.4652,0.0,-2.3773,0.0,0.0,0.0,0.0,0.0,-2.3595,-2.3595,0.0,-2.3595,-2.3595,-2.3595,-2.3595,0.0,-2.3815,-2.3752,-2.3734,-2.456,-2.4805,-2.4875,-2.5341,-2.5854,-2.622,0.0,0.0,-2.6344,-2.6708,0.0,0.0,0.0,0.0,0.0,0.0,0.0,0.0,0.0,0.0,0.0,0.0,0.0,0.0,0.0,0.0,0.0,0.0,0.0,0.0,0.0,0.0,0.0,0.0,-2.7019,0.0,-2.7588,-2.761,-2.76,-2.76,-2.76,-2.76,-2.76,-2.76,-2.76,-2.76,-2.76,-2.76,-2.761,-2.8018,-2.831,-2.8559,-2.9563,-3.0123,-3.0351,-3.0938,-3.119,-3.119,-3.119,-3.119,-3.119,-3.119,-3.119,-3.119,-2.9005,-2.9005,-2.9005,0.0,0.0,0.0,0.0,0.0,0.0,0.0,-2.756,0.0,-2.7115,0.0,-2.6988,0.0,-2.6691,-2.6691,-2.6691,-2.6691,0.0,-2.6691,-2.6691,0.0,0.0,0.0,0.0,0.0,-2.6522,-2.6297,-2.5979,-2.5259,-2.4716,-2.4369,0.0,-2.3595,-2.3595,-2.3595,-2.3595,0.0,0.0,-2.329,0.0,0.0,-2.3084,-2.3253,0.0,-2.323,-2.3629,-2.3629,-2.3948,-2.4388,-2.4814,-2.5183,-2.5483,-2.5573,-2.6077,-2.6554,-2.6213,-2.6243,0.0,-2.6838,-2.6471,0.0,-2.6475,0.0,-2.593,0.0,0.0,0.0,0.0,0.0,0.0,0.0,0.0,0.0,0.0,-2.6691,0.0,0.0,0.0,0.0,0.0,0.0,0.0,0.0,0.0,0.0,0.0,-2.7584,-2.7595,-2.7585,-2.76,-2.76,-2.76,-2.76,-2.76,-2.76,-2.76,-2.76,-2.761,-2.7993,-2.8189,-2.8238,-2.9225,-2.9651,-2.9695,-3.0314,-3.0679,-3.0878,-3.0878,-3.1015,-3.119,-3.119,-3.119,-3.119,-2.9005,-2.8975,-2.897,0.0,-2.8645,0.0,0.0,0.0,-2.7286,0.0,-2.6939,-2.6691,-2.6691,-2.6691,-2.6691,-2.6691,-2.6691,-2.6691,-2.6691,-2.6691,0.0,0.0,-2.6674,-2.6657,-2.6641,0.0,0.0,0.0,0.0,0.0,-2.5888,-2.4875,-2.4389,-2.4328,-2.3837,0.0,-2.3595,-2.3595,-2.3573,-2.3508,-2.292,-2.2672,-2.2581,-2.1941,-2.2095,-2.2578,-2.1955,-2.2569,-2.3645,-2.3673,-2.4511,-2.5544,-2.5574,-2.5612,-2.5659,-2.5689,-2.5704,-2.5704,-2.5704,-2.6069,-2.6463,-2.6463,-2.6829,0.0,0.0,0.0,-2.6947,0.0,0.0,0.0,0.0,0.0,0.0,0.0,0.0,0.0,0.0,0.0,0.0,0.0,0.0,0.0,0.0,0.0,0.0,0.0,0.0,0.0,0.0,-2.7534,-2.7603,-2.761,-2.76,-2.76,-2.76,-2.76,-2.76,-2.76,-2.76,-2.76,-2.76,-2.76,-2.76,-2.7625,-2.8238,-2.8487,-2.8559,-2.9157,-2.9739,-3.0251,-3.0251,-3.0617,-3.1114,-3.1151,-3.1151,-3.1151,-2.9005,-2.8761,-2.8476,0.0,-2.8303,-2.8192,0.0,0.0,0.0,0.0,-2.6758,-2.6691,-2.6691,-2.6691,-2.6691,-2.6691,-2.6691,0.0,0.0,0.0,0.0,-2.6175,-2.6191,-2.598,-2.5598,-2.5979,-2.598,-2.558,0.0,0.0,-2.4796,-2.4532,-2.4199,0.0,0.0,0.0,-2.3595,-2.3595,-2.3334,-2.292,-2.2762,-2.2406,-2.1931,0.0,-2.172,-2.1934,-2.2243,-2.2585,-2.294,-2.3337,-2.4067,-2.4863,-2.5367,-2.5889,-2.6437,-2.6941,-2.7091,-2.7091,-2.7091,-2.7189,-2.7297,-2.7297,-2.7016,-2.6755,0.0,0.0,0.0,0.0,0.0,0.0,0.0,0.0,0.0,0.0,0.0,0.0,0.0,0.0,0.0,-2.6691,0.0,0.0,0.0,0.0,0.0,0.0,0.0,0.0,0.0,0.0,-2.7603,-2.761,-2.76,-2.76,-2.76,-2.76,-2.76,-2.76,-2.76,-2.76,-2.76,-2.76,-2.76,-2.7625,-2.8238,-2.8487,-2.8559,-2.9157,-2.9496,-2.9629,-2.9629,-2.9717,-2.9913,-3.0372,-3.0518,-3.0477,-2.8773,-2.8438,0.0,-2.7692,0.0,0.0,-2.7131,-2.7035,0.0,-2.6725,-2.6691,0.0,-2.6419,-2.6384,-2.6298,-2.607,-2.6052,0.0,-2.6052,0.0,0.0,-2.567,-2.5652,-2.5521,-2.5221,-2.5503,0.0,-2.5202,0.0,0.0,-2.4389,0.0,0.0,0.0,0.0,-2.3595,-2.3595,-2.3595,-2.3246,-2.2672,-2.2369,-2.2033,0.0,-2.1316,-2.1339,-2.1638,-2.2246,-2.2671,-2.3,-2.3311,-2.4075,-2.4958,-2.5323,-2.574,-2.615,-2.6512,-2.6878,-2.7111,-2.7111,-2.7357,-2.76,-2.76,-2.7315,-2.7046,-2.7046,-2.6761,-2.6474,0.0,-2.6665,-2.6743,0.0,0.0,0.0,0.0,0.0,0.0,0.0,0.0,0.0,0.0,-2.6691,0.0,0.0,0.0,0.0,0.0,0.0,0.0,0.0,0.0,-2.6998,-2.757,-2.76,-2.76,-2.76,-2.76,-2.76,-2.76,-2.76,-2.76,-2.76,-2.76,-2.76,-2.7625,-2.7944,-2.8116,-2.814,-2.8472,-2.8779,-2.9019,-2.9293,-2.9406,-2.9406,-2.9496,-2.9673,-2.9848,-2.8394,-2.8061,0.0,0.0,0.0,0.0,0.0,-2.6607,0.0,-2.6607,0.0,-2.6367,-2.5943,-2.5888,-2.5707,-2.524,0.0,-2.5202,-2.5202,-2.5202,-2.5182,-2.5105,-2.5105,-2.5067,-2.4989,-2.5067,-2.5067,0.0,0.0,0.0,0.0,0.0,0.0,0.0,0.0,0.0,0.0,-2.3486,-2.3076,-2.242,-2.1902,-2.1603,-2.1459,-2.1058,-2.1207,-2.1669,-2.2221,-2.278,-2.3268,-2.3334,-2.421,-2.5259,-2.5259,-2.5315,-2.5398,-2.5398,-2.5837,-2.6363,-2.6363,-2.6904,-2.7473,-2.7473,-2.7524,-2.76,-2.76,-2.76,-2.7435,-2.6866,-2.7103,-2.7102,-2.6027,0.0,0.0,0.0,0.0,0.0,0.0,0.0,0.0,0.0,0.0,0.0,0.0,0.0,0.0,0.0,0.0,0.0,0.0,0.0,-2.6213,-2.7555,-2.76,-2.76,-2.76,-2.76,-2.76,-2.76,-2.76,-2.76,-2.76,-2.76,-2.76,-2.76,-2.76,-2.76,-2.76,-2.76,-2.791,-2.8439,-2.895,-2.9157,-2.9111,-2.8583,-2.8709,-2.9157,-2.7992,0.0,0.0,0.0,0.0,-2.621,-2.6138,-2.612,-2.612,-2.612,-2.5744,-2.543,-2.5354,-2.5335,-2.5297,-2.5221,-2.5202,0.0,0.0,0.0,0.0,-2.4572,-2.4552,-2.4328,-2.39,-2.4307,-2.4307,0.0,0.0,0.0,-2.3745,0.0,0.0,0.0,0.0,0.0,-2.2852,-2.2852,0.0,-2.1166,-2.1487,-2.1316,-2.0941,-2.1725,-2.2083,-2.2234,-2.2757,-2.2757,-2.2562,-2.3001,-2.3735,-2.4481,-2.4481,-2.4894,-2.5398,-2.5398,-2.5481,-2.5591,-2.5591,-2.6149,-2.6695,-2.6695,-2.7152,-2.76,-2.76,-2.76,-2.757,-2.745,-2.7495,-2.7482,-2.7141,0.0,0.0,0.0,0.0,0.0,0.0,0.0,0.0,0.0,0.0,-2.612,0.0,0.0,0.0,0.0,0.0,0.0,0.0,0.0,-2.6213,0.0,-2.76,-2.76,0.0,0.0,-2.76,-2.76,-2.76,-2.76,-2.76,-2.76,-2.76,-2.76,-2.76,-2.76,-2.76,-2.76,-2.766,-2.776,-2.787,-2.7919,-2.7894,-2.781,-2.782,-2.7919,0.0,0.0,0.0,0.0,0.0,0.0,0.0,-2.5354,-2.5278,-2.5559,-2.5354,-2.5105,-2.4831,-2.4792,-2.4657,-2.4389,-2.4369,-2.4369,-2.4369,-2.4369,-2.4246,-2.4006,-2.3991,-2.3858,-2.3595,-2.3858,-2.3858,-2.3595,0.0,0.0,-2.3595,0.0,0.0,0.0,0.0,-2.2965,0.0,0.0,0.0,-2.1245,-2.1496,-2.1572,-2.1581,-2.2108,-2.2456,-2.2744,-2.3007,-2.2932,-2.2744,-2.3007,-2.3365,-2.3679,-2.3679,-2.3901,-2.4208,-2.4208,-2.4496,-2.4823,-2.4823,-2.537,-2.6014,-2.6404,-2.6469,-2.6561,-2.693,-2.6733,-2.6561,-2.6956,-2.7034,-2.7109,-2.7356,-2.7081,0.0,0.0,0.0,0.0,0.0,0.0,-2.5596,0.0,0.0,0.0,0.0,0.0,0.0,0.0,0.0,-2.4448,-2.554,0.0,-2.6483,0.0,0.0,0.0,-2.76,0.0,-2.76,-2.76,-2.76,-2.76,-2.76,-2.76,-2.76,-2.76,-2.76,-2.76,-2.76,-2.76,-2.76,-2.76,-2.76,-2.76,-2.76,-2.76,-2.76,-2.76,0.0,-2.6774,0.0,0.0,-2.5726,-2.5521,-2.5105,-2.4556,-2.443,-2.4969,-2.4914,-2.4712,-2.4266,-2.4225,-2.4053,-2.3638,-2.3595,-2.3595,-2.3595,-2.3595,-2.3595,-2.3595,-2.3595,-2.3595,-2.3595,-2.3595,-2.3595,0.0,0.0,0.0,0.0,0.0,0.0,0.0,0.0,0.0,0.0,0.0,-2.1473,-2.142,-2.1524,-2.1875,-2.2293,-2.2447,-2.2732,-2.3108,-2.3108,-2.3108,-2.3108,-2.3108,-2.3108,-2.3108,-2.3108,-2.3108,-2.3108,-2.3108,-2.3543,-2.4031,-2.4031,-2.4595,-2.5315,-2.5892,-2.5701,-2.5536,-2.6122,-2.581,-2.5563,-2.6149,-2.6404,-2.6677,-2.7326,-2.7341,0.0,0.0,0.0,0.0,0.0,0.0,0.0,0.0,0.0,0.0,-2.5031,0.0,0.0,0.0,0.0,-2.4193,-2.554,-2.6034,-2.669,0.0,0.0,-2.76,-2.76,0.0,-2.76,-2.76,-2.76,-2.76,-2.76,-2.76,-2.76,-2.76,-2.76,-2.76,-2.76,-2.76,-2.76,-2.76,-2.76,-2.76,-2.76,-2.76,-2.76,-2.76,0.0,0.0,0.0,0.0,0.0,-2.4532,-2.4491,-2.4012,-2.3879,-2.441,-2.4053,-2.373,-2.3681,-2.3681,-2.3659,-2.3595,-2.3595,-2.3595,-2.3595,-2.3595,-2.3595,-2.3595,-2.3595,-2.3595,-2.3595,-2.3595,-2.3595,0.0,0.0,-2.3595,0.0,0.0,0.0,0.0,0.0,0.0,0.0,-2.0919,-2.0848,-2.0836,-2.1314,-2.1826,-2.2343,-2.2832,-2.3058,-2.3108,-2.3108,-2.3108,-2.3108,-2.3108,-2.3108,-2.3108,-2.3108,-2.3108,-2.3108,-2.3108,-2.3155,-2.3215,-2.3215,-2.3796,-2.4436,-2.4481,-2.4951,-2.5425,-2.5481,-2.5453,-2.5425,-2.5481,-2.6041,-2.6733,-2.746,-2.7075,-2.6663,0.0,0.0,0.0,0.0,0.0,-2.4471,-2.4471,0.0,0.0,-2.4471,-2.443,0.0,0.0,-2.3638,-2.4193,-2.554,-2.6034,-2.669,-2.757,-2.76,-2.76,-2.76,-2.76,-2.76,-2.76,-2.76,-2.76,-2.76,-2.76,-2.76,-2.76,-2.76,-2.76,-2.76,-2.76,-2.76,-2.76,-2.76,-2.76,-2.76,-2.76,-2.76,-2.76,0.0,0.0,0.0,0.0,0.0,0.0,0.0,-2.4341,-2.4425,-2.5046,-2.4242,-2.3595,-2.3595,-2.3595,-2.3595,-2.3595,-2.3595,-2.3595,-2.3595,-2.3595,-2.3595,-2.3595,-2.3595,-2.3595,-2.3595,-2.3595,-2.3595,0.0,0.0,0.0,0.0,0.0,0.0,0.0,0.0,-2.1272,-2.0797,-2.0759,-2.0907,-2.1232,-2.1757,-2.2309,-2.2794,-2.302,-2.3108,-2.3108,-2.3108,-2.3108,-2.3108,-2.3108,-2.3108,-2.3108,-2.3108,-2.3108,-2.3108,-2.3108,-2.3108,-2.3108,-2.3108,-2.3335,-2.3708,-2.4176,-2.4163,-2.415,-2.4624,-2.4366,-2.415,-2.4652,-2.5673,-2.659,-2.6878,-2.7083,-2.7076,-2.6686,0.0,0.0,0.0,0.0,0.0,-2.3967,0.0,-2.3921,0.0,-2.3921,0.0,0.0,0.0,-2.4605,-2.5555,-2.6057,-2.6711,-2.757,0.0,-2.76,-2.76,-2.76,-2.76,-2.76,-2.76,-2.76,-2.76,-2.76,-2.76,-2.76,-2.76,-2.76,-2.76,-2.76,-2.76,-2.76,-2.76,-2.76,-2.76,-2.76,-2.76,-2.76,-2.5259,0.0,-2.515,0.0,-2.4756,-2.4774,-2.4882,-2.4889,-2.5053,-2.5555,-2.4777,-2.4193,-2.4193,-2.4193,-2.4118,-2.3924,-2.3894,-2.3819,-2.361,-2.3595,-2.3595,-2.3595,-2.3595,0.0,-2.3595,-2.3595,-2.3595,-2.3595,-2.3595,0.0,0.0,0.0,0.0,0.0,-2.0979,-2.0801,-2.077,-2.0728,-2.1106,-2.1769,-2.2159,-2.2606,-2.3108,-2.3108,-2.3108,-2.3108,-2.3108,-2.3108,-2.3108,-2.3108,-2.3108,-2.3108,-2.3108,-2.3108,-2.3108,-2.3108,-2.3108,-2.3108,-2.3108,-2.3108,-2.3258,-2.3796,-2.3501,-2.3245,-2.3826,-2.3514,-2.3335,-2.4147,-2.5119,-2.5933,-2.6149,-2.6602,-2.6872,-2.6608,0.0,0.0,0.0,-2.4724,0.0,-2.3684,-2.3595,-2.3595,-2.3595,-2.3595,0.0,0.0,0.0,-2.5098,-2.5561,-2.6051,-2.6693,0.0,0.0,0.0,-2.76,-2.76,-2.76,-2.76,-2.76,-2.76,-2.76,-2.76,-2.76,-2.76,-2.76,-2.76,-2.76,-2.76,-2.76,-2.76,-2.76,-2.76,-2.76,-2.76,-2.76,-2.76,-2.5367,-2.54,-2.5444,-2.5558,-2.5585,-2.5585,-2.56,-2.56,-2.56,-2.5615,-2.56,-2.5585,-2.5585,-2.5585,-2.5307,-2.4649,-2.459,-2.4306,-2.364,-2.3595,-2.3595,0.0,0.0,-2.3595,-2.3595,-2.3595,-2.3595,-2.3595,0.0,0.0,-2.2694,0.0,-2.139,-2.0795,-2.0795,-2.0758,-2.0706,-2.0691,-2.1333,-2.2297,-2.2309,-2.2606,-2.3108,-2.3108,-2.3108,-2.3108,-2.3108,-2.3108,-2.3108,-2.3108,-2.3108,-2.3108,-2.3108,-2.3108,-2.3108,-2.3108,-2.3108,-2.3108,-2.3108,-2.3108,-2.3108,-2.3108,-2.3108,-2.3108,-2.3108,-2.3108,-2.3335,-2.4147,-2.4321,-2.4538,-2.5287,-2.5425,-2.5673,-2.639,0.0,0.0,0.0,-2.5008,0.0,-2.3684,-2.3595,-2.3595,-2.3595,-2.3595,0.0,0.0,0.0,0.0,0.0,0.0,0.0,-2.757,-2.76,0.0,-2.76,-2.76,-2.76,-2.76,-2.76,-2.76,-2.76,-2.76,-2.76,-2.76,-2.76,-2.76,-2.76,-2.76,-2.76,-2.76,-2.76,-2.76,-2.76,-2.76,-2.76,-2.76,-2.5523,-2.5538,-2.5553,-2.5593,-2.5615,-2.5749,-2.6213,-2.6273,-2.6437,-2.6911,-2.6971,-2.6971,-2.6971,-2.6153,-2.5501,0.0,-2.4859,-2.4515,0.0,-2.3864,-2.3595,-2.3595,-2.3595,-2.3595,-2.3595,-2.3595,-2.3595,-2.3595,0.0,0.0,0.0,-2.1199,-2.0733,-2.0144,-2.0552,-2.0728,-2.0742,-2.1468,-2.1995,-2.2347,-2.2694,-2.2945,-2.3108,-2.3108,-2.3108,-2.3108,-2.3108,-2.3108,-2.3108,-2.3108,-2.3108,-2.3108,-2.3108,-2.3108,-2.3108,-2.3108,-2.3108,-2.3108,-2.3108,-2.3108,-2.3108,-2.3108,-2.3108,-2.3108,-2.3108,-2.3108,-2.3155,-2.3424,-2.3914,-2.4379,-2.4595,-2.5063,-2.5481,-2.5701,-2.556,0.0,-2.5517,0.0,-2.4467,-2.4306,-2.3879,-2.3789,-2.4231,-2.4276,0.0,0.0,0.0,0.0,0.0,0.0,0.0,0.0,-2.76,0.0,-2.76,-2.76,-2.76,-2.76,-2.692,-2.6672,-2.6878,-2.7382,-2.76,-2.76,-2.76,-2.76,-2.76,-2.76,-2.76,-2.76,-2.76,-2.76,-2.76,-2.76,-2.76,-2.76,-2.5929,-2.5974,-2.6048,-2.6303,-2.6348,-2.6482,-2.6926,-2.6986,-2.7136,-2.754,-2.76,-2.76,-2.76,-2.6866,0.0,-2.6004,-2.56,-2.5232,-2.4993,-2.4335,-2.3984,-2.3984,-2.3729,-2.3486,-2.3268,-2.3268,0.0,-2.2891,-2.2276,-2.1585,-2.0809,-2.0781,-2.0527,-2.015,-2.0754,-2.1119,-2.133,-2.202,-2.2406,-2.2619,-2.297,-2.3108,-2.3108,-2.3108,-2.3108,-2.3108,-2.3108,-2.3108,-2.3108,-2.3108,-2.3108,-2.3108,-2.3108,-2.3108,-2.3108,-2.3108,-2.3108,-2.3108,-2.3108,-2.3108,-2.3108,-2.3108,-2.3108,-2.3108,-2.3108,-2.3108,-2.3108,-2.3108,-2.3514,-2.3855,-2.3855,-2.4221,-2.4639,-2.4922,-2.4979,-2.5011,-2.5071,0.0,-2.4794,0.0,0.0,-2.4522,0.0,-2.4978,-2.5247,0.0,0.0,0.0,0.0,0.0,-2.76,-2.76,-2.76,-2.7599,-2.7594,-2.6484,-2.6405,-2.7363,-2.673,-2.6691,-2.7174,-2.7384,-2.7661,-2.7974,-2.7705,-2.76,-2.76,-2.76,-2.76,-2.76,-2.76,-2.76,-2.76,-2.76,-2.76,-2.76,-2.6542,-2.6662,-2.6881,-2.748,-2.76,-2.76,-2.76,-2.76,-2.76,-2.76,-2.7575,-2.7509,-2.7509,-2.7509,-2.7245,-2.6584,0.0,0.0,-2.5719,-2.5038,-2.4657,-2.4596,-2.4007,-2.3378,-2.2755,-2.2755,-2.2404,-2.1763,-2.1198,-2.0902,-2.0841,-2.0781,-2.0754,-2.0779,-2.1333,-2.1832,-2.2309,-2.2347,-2.2631,-2.3108,-2.3108,-2.3108,-2.3108,-2.3108,-2.3108,-2.3108,-2.3108,-2.3108,-2.3108,-2.3108,-2.3108,-2.3108,-2.3108,-2.3108,-2.3108,-2.3108,-2.3108,-2.3108,-2.3108,-2.3108,-2.3108,-2.3108,-2.3108,-2.3108,-2.3108,-2.3108,-2.3108,-2.3108,-2.3108,-2.3108,-2.3108,-2.3108,-2.3335,-2.4089,-2.4205,-2.4253,-2.4381,-2.4922,-2.5134,-2.4562,0.0,0.0,-2.5518,-2.5565,-2.5872,0.0,0.0,0.0,0.0,0.0,-2.7604,-2.7604,-2.7604,-2.7569,-2.7506,-2.4662,-2.4463,-2.6941,-2.6984,-2.7402,-2.8126,-2.7595,-2.7804,-2.8543,-2.7979,-2.7705,-2.766,-2.766,-2.7645,-2.76,-2.76,-2.76,-2.76,-2.76,-2.76,-2.76,0.0,0.0,-2.7405,-2.757,-2.76,-2.76,-2.76,-2.76,-2.76,-2.76,-2.7111,-2.6747,-2.6747,-2.6747,-2.6465,-2.5734,-2.6243,-2.6527,-2.6363,-2.5749,-2.5127,-2.4534,-2.4375,-2.395,-2.3245,-2.322,-2.2916,-2.2233,-2.2089,-2.1784,-2.1324,-2.1312,-2.132,-2.1345,-2.187,-2.2184,-2.2334,-2.2732,-2.2982,-2.3108,-2.3108,-2.3108,-2.3108,-2.3108,-2.3108,-2.3108,-2.3108,-2.3108,-2.3108,-2.3108,-2.3108,-2.3108,-2.3108,-2.3108,-2.3108,-2.3108,-2.3108,-2.3108,-2.3108,-2.3108,-2.3108,-2.3108,-2.3108,-2.3108,-2.3108,-2.3108,-2.3108,-2.3108,-2.3108,-2.3108,-2.3108,-2.3108,-2.3155,-2.3335,-2.3395,-2.3598,-2.4237,-2.4023,-2.3974,0.0,-2.4147,-2.4112,-2.4641,-2.5185,-2.5803,0.0,0.0,-2.7435,-2.7585,-2.7602,-2.7583,-2.7583,-2.7583,-2.7331,-2.6764,-2.5185,-2.4998,-2.6155,-2.6737,-2.6794,-2.6506,-2.7567,-2.818,-2.839,-2.8919,-2.8858,-2.8353,-2.8353,-2.8053,-2.76,-2.76,-2.76,-2.76,-2.76,-2.76,-2.76,-2.76,-2.76,-2.76,-2.76,-2.76,-2.76,-2.76,-2.76,-2.76,-2.76,-2.7255,-2.6878,-2.6537,-2.651,-2.6203,-2.5453,-2.61,-2.6404,-2.6081,-2.5423,-2.4873,-2.4478,-2.416,-2.3675,-2.2962,-2.2936,-2.2631,-2.1981,-2.1981,-2.1829,-2.1493,-2.1744,-2.187,-2.1895,-2.2447,-2.2656,-2.2681,-2.2982,-2.3108,-2.3108,-2.3108,-2.3108,-2.3108,-2.3108,-2.3108,-2.3108,-2.3108,-2.3108,-2.3108,-2.3108,-2.3108,-2.3108,-2.3108,-2.3108,-2.3108,-2.3108,-2.3108,-2.3108,-2.3108,-2.3108,-2.3108,-2.3108,-2.3108,-2.3108,-2.3108,-2.3108,-2.3108,-2.3108,-2.3108,-2.3108,-2.3108,-2.3108,-2.3108,-2.3108,-2.3108,-2.3245,-2.3679,-2.3744,-2.3904,-2.431,-2.4327,-2.4474,-2.4818,-2.521,-2.5684,-2.6275,-2.6698,0.0,-2.7573,-2.7612,-2.7598,-2.7598,-2.6266,-2.5854,-2.6491,-2.5878,-2.5626,-2.5756,-2.645,-2.6741,-2.6728,-2.7322,-2.7982,-2.8771,-2.8937,-2.903,-2.9056,-2.9056,-2.8652,-2.8064,-2.8064,-2.7869,-2.76,-2.76,-2.76,-2.76,-2.76,-2.76,-2.76,-2.76,-2.76,-2.76,-2.76,-2.7524,-2.7433,-2.7433,-2.724,-2.6864,-2.6229,-2.6176,-2.5864,-2.5119,-2.5728,-2.596,-2.5425,-2.4873,-2.4489,-2.4381,-2.3835,-2.3205,-2.2515,-2.2501,-2.2253,-2.1732,-2.1732,-2.1732,-2.1744,-2.2221,-2.2406,-2.2431,-2.2895,-2.3108,-2.3108,-2.3108,-2.3108,-2.3108,-2.3108,-2.3108,-2.3108,-2.3108,-2.3108,-2.3108,-2.3108,-2.3108,-2.3108,-2.3108,-2.3108,-2.3108,-2.3108,-2.3108,-2.3108,-2.3108,-2.3108,-2.3108,-2.3108,-2.3108,-2.3108,-2.3108,-2.3108,-2.3108,-2.3108,-2.3108,-2.3108,-2.3108,-2.3108,-2.3108,-2.3108,-2.3108,-2.3108,-2.3108,-2.3108,-2.3108,-2.3108,0.0,-2.4118,-2.4118,-2.4667,-2.5063,-2.5063,-2.5175,-2.5412,-2.5846,-2.6146,-2.67,-2.7555,-2.7167,-2.6919,-2.6907,-2.4768,-2.4531,-2.6468,-2.6499,-2.624,-2.5737,-2.626,-2.685,-2.7491,-2.7078,-2.7656,-2.9034,-2.8596,-2.8826,-2.955,-2.955,-2.9244,-2.8742,-2.8637,-2.8248,-2.7735,-2.763,-2.76,-2.76,-2.76,-2.76,-2.76,-2.76,-2.76,-2.76,-2.76,-2.706,-2.6669,-2.6669,-2.5591,-2.4753,-2.4652,-2.4652,-2.4308,-2.3531,-2.4192,-2.4879,-2.537,-2.5301,-2.4983,-2.4334,-2.4226,-2.3785,-2.301,-2.298,-2.2934,-2.2844,-2.2844,-2.2844,-2.2844,-2.2945,-2.2982,-2.2982,-2.3058,-2.3108,-2.3108,-2.3108,-2.3108,-2.3108,-2.3108,-2.3108,-2.3108,-2.3108,-2.3108,-2.3108,-2.3108,-2.3108,-2.3108,-2.3108,-2.3108,-2.3108,-2.3108,-2.3108,-2.3108,-2.3108,-2.3108,-2.3108,-2.3108,-2.3108,-2.3108,-2.3108,-2.3108,-2.3108,-2.3108,-2.3108,-2.3108,-2.3108,-2.3108,-2.3108,-2.3108,-2.3108,-2.3108,-2.3108,-2.3108,-2.3108,-2.3108,0.0,-2.3275,-2.3275,-2.3395,-2.3442,-2.3442,-2.4076,-2.4565,-2.4818,-2.6413,-2.7438,-2.757,-2.519,-2.379,-2.3806,-2.5219,-2.6135,-2.6498,-2.6515,-2.6467,-2.6361,-2.6449,-2.6555,-2.6714,-2.728,-2.7689,-2.7969,-2.861,-2.905,-2.9363,-2.9363,-2.9385,-2.9397,-2.8816,-2.8532,-2.8368,-2.7809,-2.76,-2.76,-2.6428,-2.6733,-2.6878,-2.6481,-2.6733,-2.6878,-2.6481,-2.6135,-2.5906,-2.5906,-2.5315,-2.4738,-2.435,-2.4292,-2.3972,-2.3168,-2.3454,-2.3796,-2.4134,-2.415,-2.4018,-2.3649,-2.3649,-2.3484,-2.3108,-2.3108,-2.3108,-2.3108,-2.3108,-2.3108,-2.3108,-2.3108,-2.3108,-2.3108,-2.3108,-2.3108,-2.3108,-2.3108,-2.3108,-2.3108,-2.3108,-2.3108,-2.3108,-2.3108,-2.3108,-2.3108,-2.3108,-2.3108,-2.3108,-2.3108,-2.3108,-2.3108,-2.3108,-2.3108,-2.3108,-2.3108,-2.3108,-2.3108,-2.3108,-2.3108,-2.3108,-2.3108,-2.3108,-2.3108,-2.3108,-2.3108,-2.3108,-2.3108,-2.3108,-2.3108,-2.3108,-2.3108,-2.3108,-2.3108,-2.3108,-2.3108,-2.3108,-2.3108,-2.3108,-2.3108,-2.3108,-2.3108,-2.3108,-2.3454,-2.3673,-2.378,-2.4667,-2.519,-2.5175,-2.5026,-2.4913,-2.4929,-2.5941,-2.6486,-2.6498,-2.6492,-2.6499,-2.6499,-2.6499,-2.6499,-2.6499,-2.6871,-2.7284,-2.7736,-2.8149,-2.8629,-2.9174,-2.9643,-2.9389,-2.88,-2.94,-2.9156,-2.8404,-2.8196,-2.8154,-2.8094,-2.5398,-2.5864,-2.6068,-2.5508,-2.6014,-2.6256,-2.5508,-2.5398,-2.5342,-2.5175,-2.4979,-2.4639,-2.4076,-2.4031,-2.3767,-2.3155,-2.3108,-2.3108,-2.3108,-2.3108,-2.3108,-2.3108,-2.3108,-2.3108,-2.3108,-2.3108,-2.3108,-2.3108,-2.3108,-2.3108,-2.3108,-2.3108,-2.3108,-2.3108,-2.3108,-2.3108,-2.3108,-2.3108,-2.3108,-2.3108,-2.3108,-2.3108,-2.3108,-2.3108,-2.3108,-2.3108,-2.3108,-2.3195,-2.3308,-2.3308,-2.3396,-2.3496,-2.3496,-2.3496,-2.3496,-2.3496,-2.3409,-2.3283,-2.3145,-2.3108,-2.3108,-2.3108,-2.3108,-2.3108,-2.3108,-2.3108,-2.3108,-2.3108,-2.3108,-2.3108,-2.3108,-2.3108,-2.3108,-2.3108,0.0,-2.3108,-2.3108,-2.3108,-2.3108,-2.3108,-2.3108,-2.3108,-2.3108,-2.3108,-2.311,-2.3086,-2.3092,-2.3333,-2.3864,-2.5556,-2.6504,-2.6501,-2.6493,-2.6506,-2.6487,-2.6499,-2.6499,-2.6499,-2.6499,-2.6499,-2.6499,-2.6499,-2.685,-2.7417,-2.7417,-2.792,-2.8748,-2.9411,-2.91,-2.8346,-2.9697,-2.9519,-2.8569,-2.8746,-2.8831,-2.8727,-2.5398,-2.5425,-2.5453,-2.5398,-2.6014,-2.6256,-2.5508,-2.5398,-2.5147,-2.4452,-2.3738,-2.3245,-2.3185,-2.3198,-2.3155,-2.3108,-2.3108,-2.3108,-2.3108,-2.3108,-2.3108,-2.3108,-2.3108,-2.3108,-2.3108,-2.3108,-2.3108,-2.3108,-2.3108,-2.3108,-2.3108,-2.3108,-2.3108,-2.3108,-2.3108,-2.3108,-2.3108,-2.3108,-2.3108,-2.3108,-2.3108,-2.3108,-2.3108,-2.3108,-2.3108,-2.3108,-2.3108,-2.3446,-2.3941,-2.3941,-2.4268,-2.4662,-2.4662,-2.4662,-2.4662,-2.4662,-2.433,-2.3816,-2.3246,-2.3108,-2.3108,-2.3108,-2.3108,-2.3108,-2.3108,-2.3108,-2.3108,-2.3108,-2.3108,-2.3108,-2.3108,-2.3108,-2.3108,-2.3108,0.0,0.0,-2.3108,-2.3108,-2.3108,-2.3108,-2.3108,-2.3108,-2.3108,-2.3108,-2.3099,-2.3096,-2.3114,-2.4028,-2.6151,-2.6416,-2.6501,-2.6517,-2.6496,-2.6508,-2.6499,-2.6499,-2.6499,-2.6499,-2.6499,-2.6499,-2.6499,-2.6499,-2.6521,-2.6589,-2.6589,-2.704,-2.7802,-2.7855,-2.8317,-2.8972,-2.9267,-2.9319,-2.9247,-2.9455,-2.9532,-2.9442,-2.3975,-2.4394,-2.4567,-2.4063,-2.461,-2.4866,-2.4092,-2.3975,-2.3872,-2.3603,-2.3275,-2.3108,-2.3108,-2.3108,-2.3108,-2.3108,-2.3108,-2.3108,-2.3108,-2.3108,-2.3108,-2.3108,-2.3108,-2.3108,-2.3108,-2.3108,-2.3108,-2.3108,-2.3108,-2.3108,-2.3108,-2.3108,-2.3108,-2.3108,-2.3108,-2.2823,-2.2353,-2.2353,-2.2021,-2.1542,-2.1542,-2.1542,-2.1577,-2.1818,-2.1914,-2.2046,-2.2903,-2.2992,-2.2862,-2.4097,-2.3818,-2.3089,-2.3701,-2.3878,-2.3976,-2.4613,-2.4669,-2.4456,-2.4211,-2.3634,-2.3108,-2.3108,-2.3108,-2.3108,-2.3108,-2.3108,-2.3108,-2.3108,-2.3108,-2.3108,-2.3108,-2.3108,-2.3108,-2.3108,0.0,-2.3108,-2.3108,-2.3108,-2.3108,-2.3108,-2.3108,-2.3108,-2.3108,-2.3434,-2.3679,-2.3779,-2.4018,-2.4838,-2.6427,-2.6502,-2.6497,-2.6487,-2.6499,-2.6499,-2.6499,-2.6499,-2.6499,-2.6499,-2.6499,-2.6499,-2.6499,-2.6499,-2.6499,-2.6499,-2.6499,-2.6692,-2.704,-2.8084,-2.8363,-2.8349,-3.0009,-3.0353,-2.9926,-3.0093,-3.0163,-3.0058,-2.3108,-2.3531,-2.3738,-2.3198,-2.3767,-2.4031,-2.3215,-2.3305,-2.3395,-2.3138,-2.3108,-2.3108,-2.3108,-2.3108,-2.3108,-2.3108,-2.3108,-2.3108,-2.3108,-2.3108,-2.3108,-2.3108,-2.3108,-2.3108,-2.3108,-2.3108,-2.3108,-2.3108,-2.3108,-2.3108,-2.3108,-2.3108,-2.3108,-2.3108,-2.3108,-2.2793,-2.2261,-2.2002,-2.1553,-2.0985,-2.0855,-2.0782,-2.0838,-2.1252,-2.1408,-2.1554,-2.25,-2.256,-2.2351,-2.3685,-2.3372,-2.2587,-2.3535,-2.4058,-2.4441,-2.5124,-2.5209,-2.5059,-2.5059,-2.4349,-2.3597,-2.3421,-2.3246,-2.3108,-2.3108,-2.3108,-2.3108,-2.3108,-2.3108,-2.3108,-2.3108,-2.3108,-2.3108,-2.3108,-2.3108,-2.3108,-2.3108,-2.3108,-2.3108,-2.3108,-2.3271,-2.3371,-2.3371,-2.3916,-2.433,-2.4551,-2.4735,-2.5278,-2.6426,-2.651,-2.6499,-2.6499,-2.6499,-2.6499,-2.6499,-2.6499,-2.6499,-2.6499,-2.6499,-2.6499,-2.6499,-2.6499,-2.6499,-2.6499,-2.6499,-2.6499,-2.6589,-2.7736,-2.7855,-2.7537,-2.9827,-3.0389,-2.9968,-3.0599,-3.0821,-3.0731,-2.3108,-2.3108,-2.3108,-2.3108,-2.3767,-2.4031,-2.3215,-2.3767,-2.4002,-2.3185,-2.3108,-2.3108,-2.3108,-2.3108,-2.3108,-2.3108,-2.3108,-2.3108,-2.3108,-2.3108,-2.3108,-2.3108,-2.3108,-2.3108,-2.3108,-2.3108,-2.3108,-2.3108,-2.3108,-2.3108,-2.3108,-2.3108,-2.3108,-2.3108,-2.3095,-2.3078,-2.3047,-2.223,-2.1889,-2.1831,-2.1379,-2.1174,-2.123,-2.1697,-2.1886,-2.1886,-2.1886,-2.2232,-2.268,-2.268,-2.3039,-2.3672,-2.4671,-2.5652,-2.6452,-2.6487,-2.605,-2.5611,-2.5598,-2.5222,-2.4662,-2.4142,-2.3534,-2.3108,-2.3108,-2.3108,-2.3108,-2.3108,-2.3108,-2.3108,-2.3108,-2.3108,-2.3108,-2.3108,-2.3108,-2.3108,-2.3108,-2.3108,-2.3108,-2.3108,-2.3653,-2.4004,-2.4004,-2.4506,-2.4956,-2.5373,-2.5029,-2.5323,-2.6449,-2.6499,-2.6499,-2.6499,-2.6499,-2.6499,-2.6499,-2.6499,-2.6499,-2.6499,-2.6499,-2.6499,-2.6499,-2.6499,-2.6499,-2.6499,-2.6499,-2.6499,-2.6499,-2.6499,-2.6499,-2.6692,-2.833,-2.9002,-2.9223,-3.0866,-3.1511,-3.1406,-2.3108,-2.3108,-2.3108,-2.3108,-2.3305,-2.3365,-2.3138,-2.3305,-2.3365,-2.3138,-2.3108,-2.3108,-2.3108,-2.3108,-2.3108,-2.3108,-2.3108,-2.3108,-2.3108,-2.3108,-2.3108,-2.3108,-2.3108,-2.3108,-2.3108,-2.3108,-2.3108,-2.3108,-2.3108,-2.3108,-2.3108,-2.3108,-2.3108,-2.3078,-2.2506,-2.2261,-2.2223,-2.1748,-2.1127,-2.0509,-2.0793,-2.0509,-1.99,-2.0337,-2.051,-2.0614,-2.1623,-2.1648,-2.1436,-2.2791,-2.2445,-2.1642,-2.259,-2.3099,-2.3613,-2.5028,-2.532,-2.5338,-2.6052,-2.5799,-2.5234,-2.4707,-2.4155,-2.374,-2.374,-2.3396,-2.3108,-2.3108,-2.3108,-2.3108,-2.3108,-2.3108,-2.3108,-2.3108,-2.3108,-2.3108,-2.3108,-2.3108,-2.3258,-2.369,-2.3891,-2.4155,-2.4512,-2.5059,-2.5423,-2.5528,-2.5832,-2.6145,-2.6487,-2.6499,-2.6499,-2.6499,-2.6499,-2.6499,-2.6499,-2.6499,-2.6499,-2.6499,-2.6499,-2.6499,-2.6499,-2.6499,-2.6499,-2.6499,-2.6499,-2.6499,-2.6521,-2.7095,-2.7351,-2.7451,-2.8556,-2.938,-2.9981,-3.0464,-3.1029,-3.1466,-2.3108,-2.3108,-2.3108,-2.3108,-2.3108,-2.3108,-2.3108,-2.3108,-2.3108,-2.3108,-2.3108,-2.3108,-2.3108,-2.3108,-2.3108,-2.3108,-2.3108,-2.3108,-2.3108,-2.3108,-2.3108,-2.3108,-2.3108,-2.3108,-2.3108,-2.3108,-2.3108,-2.3108,-2.3108,-2.3108,-2.3108,-2.3108,-2.3108,-2.309,-2.2831,-2.2513,-2.2147,-2.2201,-2.1441,-2.0226,-2.0803,-2.0426,-1.958,-2.001,-2.0176,-2.0281,-2.1131,-2.1078,-2.0789,-2.1973,-2.1821,-2.126,-2.1811,-2.2253,-2.2813,-2.4036,-2.4671,-2.504,-2.5252,-2.5615,-2.5795,-2.5056,-2.4591,-2.433,-2.433,-2.4023,-2.371,-2.3496,-2.3446,-2.3371,-2.3145,-2.3108,-2.3108,-2.3108,-2.3296,-2.3446,-2.3446,-2.3634,-2.3898,-2.428,-2.4506,-2.4757,-2.5096,-2.5624,-2.5971,-2.5971,-2.6298,-2.6499,-2.6499,-2.6499,-2.6499,-2.6499,-2.6499,-2.6499,-2.6499,-2.6499,-2.6499,-2.6499,-2.6499,-2.6499,-2.6499,-2.6499,-2.6499,-2.6499,-2.6499,-2.6499,-2.6521,-2.704,-2.7229,-2.7317,-2.8149,-2.8812,-2.9348,-3.0042,-3.0614,-3.1058,-2.3108,-2.3108,-2.3108,-2.3108,-2.3108,-2.3108,-2.3108,-2.3108,-2.3108,-2.3108,-2.3108,-2.3108,-2.3108,-2.3108,-2.3108,-2.3108,-2.3108,-2.3108,-2.3108,-2.3108,-2.3108,-2.3108,-2.3108,-2.3108,-2.3108,-2.3108,-2.3108,-2.3108,-2.3108,-2.3108,-2.3108,-2.3017,-2.3072,-2.3195,-2.3493,-2.3242,-2.2604,-2.3103,-2.2297,-2.0707,-2.124,-2.0839,-2.0019,-2.0449,-2.0605,-2.0605,-2.0605,-2.0605,-2.0605,-2.0605,-2.1221,-2.1989,-2.1989,-2.259,-2.3294,-2.3551,-2.4228,-2.4671,-2.3854,-2.4981,-2.6129,-2.5123,-2.4784,-2.4718,-2.4831,-2.4748,-2.4541,-2.4041,-2.4004,-2.3885,-2.3255,-2.3124,-2.3124,-2.3124,-2.3592,-2.3941,-2.3941,-2.4442,-2.4813,-2.4883,-2.531,-2.5611,-2.5674,-2.6185,-2.6499,-2.6499,-2.6499,-2.6499,-2.6499,-2.649,-2.6502,-2.6502,-2.66,-2.6637,-2.6637,-2.6637,-2.6587,-2.6499,-2.6499,-2.6499,-2.6499,-2.6499,-2.6499,-2.6499,-2.6499,-2.6499,-2.6499,-2.6499,-2.6499,-2.6555,-2.7317,-2.7637,-2.7887,-2.9473,-3.0103,-3.0299,-2.3108,-2.3108,-2.3108,-2.3108,-2.3108,-2.3108,-2.3108,-2.3108,-2.3108,-2.3108,-2.3108,-2.3108,-2.3108,-2.3108,-2.3108,-2.3108,-2.3108,-2.3108,-2.3108,-2.3108,-2.3108,-2.3108,-2.3108,-2.3108,-2.3108,-2.3108,-2.3108,-2.3108,-2.3108,-2.3108,-2.3078,-2.2445,-2.2739,-2.3723,-2.1691,-2.1654,-2.3081,-2.2206,-2.156,-2.1131,-2.1665,-2.1298,-2.0478,-2.0566,-2.0605,-2.0605,-2.0605,-2.0605,-2.0605,-2.0605,-2.1221,-2.1989,-2.1989,-2.1631,-2.168,-2.4011,-2.4264,-2.3963,-2.4528,-2.5004,-2.5075,-2.4072,-2.3804,-2.4073,-2.5177,-2.448,-2.3598,-2.349,-2.4091,-2.4357,-2.3441,-2.3254,-2.3254,-2.3254,-2.3382,-2.3454,-2.3454,-2.4222,-2.4938,-2.5385,-2.5523,-2.5774,-2.626,-2.6411,-2.6499,-2.6499,-2.6499,-2.6499,-2.6499,-2.6494,-2.6491,-2.6491,-2.7324,-2.7745,-2.7745,-2.7745,-2.7318,-2.6499,-2.6499,-2.6499,-2.6499,-2.6499,-2.6499,-2.6499,-2.6499,-2.6499,-2.6499,-2.6499,-2.6499,-2.6521,-2.6679,-2.7162,-2.7769,-2.8117,-2.8716,-2.9411,-2.3108,-2.3108,-2.3108,-2.3108,-2.3108,-2.3108,-2.3108,-2.3108,-2.3108,-2.3108,-2.3108,-2.3108,-2.3108,-2.3108,-2.3108,-2.3108,-2.3108,-2.3108,-2.3108,-2.3108,-2.3108,-2.3108,-2.3108,-2.3108,-2.3108,-2.3108,-2.3108,-2.3108,-2.3108,-2.3108,-2.3108,-2.2973,-2.3287,-2.3954,-2.3018,-2.2764,-2.3029,-2.3074,-2.2517,-2.1617,-2.1895,-2.2,-2.1935,-2.1451,-2.1555,-2.1973,-2.1973,-2.1973,-2.1859,-2.0895,-2.1527,-2.2627,-2.214,-2.2,-2.2188,-2.3257,-2.3526,-2.3404,-2.301,-2.3562,-2.4036,-2.3036,-2.2776,-2.3106,-2.4331,-2.3956,-2.3317,-2.3075,-2.3418,-2.3551,-2.2786,-2.2627,-2.2627,-2.2627,-2.3254,-2.3736,-2.3736,-2.4832,-2.5699,-2.6009,-2.6047,-2.616,-2.6461,-2.6499,-2.6499,-2.6499,-2.6499,-2.6482,-2.6482,-2.651,-2.7,-2.8037,-2.8637,-2.874,-2.8369,-2.8369,-2.8005,-2.7278,-2.7014,-2.6889,-2.6876,-2.6612,-2.6499,-2.6499,-2.6499,-2.6499,-2.6499,-2.6499,-2.6499,-2.6499,-2.6499,-2.6748,-2.7162,-2.7571,-2.8524,-2.969,-2.3108,-2.3108,-2.3108,-2.3108,-2.3108,-2.3108,-2.3108,-2.3108,-2.3108,-2.3108,-2.3108,-2.3108,-2.3108,-2.3108,-2.3108,-2.3108,-2.3108,-2.3108,-2.3108,-2.3108,-2.3108,-2.3108,-2.3108,-2.3145,-2.3246,-2.3246,-2.3195,-2.3108,-2.3195,-2.3246,-2.3258,-2.3529,-2.3883,-2.4274,-2.4711,-2.4197,-2.3157,-2.427,-2.3672,-2.2027,-2.2178,-2.2664,-2.3184,-2.2515,-2.2776,-2.3514,-2.3514,-2.3599,-2.3489,-2.1718,-2.2264,-2.3599,-2.2776,-2.2962,-2.3404,-2.2914,-2.311,-2.3147,-2.1527,-2.2151,-2.2999,-2.2,-2.1773,-2.1962,-2.2813,-2.3147,-2.311,-2.2664,-2.2731,-2.2644,-2.2022,-2.1921,-2.1921,-2.1921,-2.3003,-2.3886,-2.4073,-2.5349,-2.6245,-2.6245,-2.6245,-2.6233,-2.6173,-2.6371,-2.649,-2.6506,-2.6489,-2.6666,-2.7042,-2.7041,-2.7889,-2.9729,-2.9807,-2.9495,-2.8895,-2.8895,-2.8709,-2.8386,-2.7833,-2.7519,-2.7406,-2.6989,-2.6776,-2.6776,-2.6675,-2.6637,-2.6625,-2.6537,-2.6499,-2.6499,-2.6499,-2.6499,-2.6589,-2.7384,-2.862,-2.9889,-2.3108,-2.3108,-2.3108,-2.3108,-2.3108,-2.3108,-2.3108,-2.3108,-2.3108,-2.3108,-2.3108,-2.3108,-2.3108,-2.3108,-2.3108,-2.3108,-2.3108,-2.3108,-2.3108,-2.3108,-2.3108,-2.3108,-2.3108,-2.3333,-2.3866,-2.3879,-2.364,-2.3108,-2.364,-2.3879,-2.386,-2.277,-2.3374,-2.5286,-2.299,-2.2986,-2.4649,-2.3977,-2.3036,-2.2065,-2.2962,-2.285,-2.2291,-2.3036,-2.3368,-2.3514,-2.3514,-2.4047,-2.4636,-2.3478,-2.3854,-2.4779,-2.4636,-2.4084,-2.3806,-2.5417,-2.4767,-2.3441,-2.3184,-2.2664,-2.1962,-2.1049,-2.0789,-2.0818,-2.0972,-2.1631,-2.2194,-2.2104,-2.2789,-2.3099,-2.2147,-2.1988,-2.1988,-2.1988,-2.2152,-2.2604,-2.345,-2.4517,-2.5194,-2.5194,-2.5194,-2.5075,-2.4791,-2.5812,-2.6509,-2.6516,-2.6507,-2.7347,-2.9233,-2.936,-2.9478,-2.9793,-2.9783,-2.9756,-2.9642,-2.9642,-2.9629,-2.9553,-2.8988,-2.8461,-2.7996,-2.7921,-2.7883,-2.7858,-2.7381,-2.7203,-2.7165,-2.6688,-2.6499,-2.6499,-2.6499,-2.6499,-2.6589,-2.7384,-2.7855,-2.8266,-2.3108,-2.3108,-2.3108,-2.3108,-2.3108,-2.3108,-2.3108,-2.3108,-2.3108,-2.3108,-2.3108,-2.3108,-2.3108,-2.3108,-2.3108,-2.3108,-2.3108,-2.3108,-2.3108,-2.3409,-2.3584,-2.3584,-2.3885,-2.4161,-2.4456,-2.4456,-2.433,-2.4048,-2.433,-2.4456,-2.4437,-2.4159,-2.4591,-2.5578,-2.4644,-2.4519,-2.4969,-2.4528,-2.4072,-2.3672,-2.3562,-2.3916,-2.4493,-2.4373,-2.4707,-2.5099,-2.4552,-2.4992,-2.5581,-2.4036,-2.4552,-2.5734,-2.5194,-2.5075,-2.5134,-2.4909,-2.4217,-2.3257,-2.2188,-2.1565,-2.1116,-2.0712,-2.0605,-2.0605,-2.0605,-2.0934,-2.1231,-2.1231,-2.1555,-2.1745,-2.1298,-2.1231,-2.1231,-2.1231,-2.2113,-2.2999,-2.3441,-2.485,-2.5629,-2.5087,-2.448,-2.4251,-2.449,-2.5696,-2.6491,-2.6492,-2.7631,-2.8784,-2.977,-2.9809,-2.9808,-2.9808,-2.9793,-2.9792,-2.9792,-2.9792,-2.9792,-2.9792,-2.9528,-2.9114,-2.8561,-2.8247,-2.8109,-2.8097,-2.7846,-2.7745,-2.772,-2.7482,-2.7381,-2.7344,-2.7065,-2.6763,-2.6521,-2.6905,-2.7317,-2.7887]},{"header":{"parameterUnit":"m.s-1","parameterCategory":1,"la1":30.6,"la2":28.766,"lo1":-90.7593,"lo2":-88.6598,"dy":0.0162,"dx":0.0183,"nx":116,"ny":114,"refTime":"2024-04-16T06:00:00:Z","depth":0,"parameterNumber":3,"parameterNumberName":"V-component_of_WINDS"},"data":[0.0,0.0,0.0,0.0,0.0,0.0,0.0,0.0,0.0,0.0,0.0,0.0,0.0,0.0,0.0,0.0,0.0,0.0,0.0,0.0,0.0,0.0,0.0,0.0,0.0,0.0,0.0,0.0,0.0,0.0,0.0,0.0,0.0,0.0,0.0,0.0,0.0,0.0,0.0,0.0,0.0,0.0,0.0,0.0,0.0,0.0,0.0,0.0,0.0,0.0,0.0,0.0,0.0,0.0,0.0,0.0,0.0,0.0,0.0,0.0,0.0,0.0,0.0,0.0,0.0,0.0,0.0,0.0,0.0,0.0,0.0,0.0,0.0,0.0,0.0,0.0,0.0,0.0,0.0,0.0,0.0,0.0,0.0,0.0,0.0,0.0,0.0,0.0,0.0,0.0,0.0,0.0,0.0,0.0,0.0,0.0,0.0,0.0,0.0,0.0,0.0,0.0,0.0,0.0,0.0,0.0,0.0,0.0,0.0,0.0,0.0,0.0,0.0,0.0,0.0,0.0,0.0,0.0,0.0,0.0,0.0,0.0,0.0,0.0,0.0,0.0,0.0,0.0,0.0,0.0,0.0,0.0,0.0,0.0,0.0,0.0,0.0,0.0,0.0,0.0,0.0,0.0,0.0,0.0,0.0,0.0,0.0,0.0,0.0,0.0,0.0,0.0,0.0,0.0,0.0,0.0,0.0,0.0,0.0,0.0,0.0,0.0,0.0,0.0,0.0,0.0,0.0,0.0,0.0,0.0,0.0,0.0,0.0,0.0,0.0,0.0,0.0,0.0,0.0,0.0,0.0,0.0,0.0,0.0,0.0,0.0,0.0,0.0,0.0,0.0,0.0,0.0,0.0,0.0,0.0,0.0,0.0,0.0,0.0,0.0,0.0,0.0,0.0,0.0,0.0,0.0,0.0,0.0,0.0,0.0,0.0,0.0,0.0,0.0,0.0,0.0,0.0,0.0,0.0,0.0,0.0,0.0,0.0,0.0,0.0,0.0,0.0,0.0,0.0,0.0,0.0,0.0,0.0,0.0,0.0,0.0,0.0,0.0,0.0,0.0,0.0,0.0,0.0,0.0,0.0,0.0,0.0,0.0,0.0,0.0,0.0,0.0,0.0,0.0,0.0,0.0,0.0,0.0,0.0,0.0,0.0,0.0,0.0,0.0,0.0,0.0,0.0,0.0,0.0,0.0,0.0,0.0,0.0,0.0,0.0,0.0,0.0,0.0,0.0,0.0,0.0,0.0,0.0,0.0,0.0,0.0,0.0,0.0,0.0,0.0,0.0,0.0,0.0,0.0,0.0,0.0,0.0,0.0,0.0,0.0,0.0,0.0,0.0,0.0,0.0,0.0,0.0,0.0,0.0,0.0,0.0,0.0,0.0,0.0,0.0,0.0,0.0,0.0,0.0,0.0,0.0,0.0,0.0,0.0,0.0,0.0,0.0,0.0,0.0,0.0,0.0,0.0,0.0,0.0,0.0,0.0,0.0,0.0,0.0,0.0,0.0,0.0,0.0,0.0,0.0,0.0,0.0,0.0,0.0,0.0,0.0,0.0,0.0,0.0,0.0,0.0,0.0,0.0,0.0,0.0,0.0,0.0,0.0,0.0,0.0,0.0,0.0,0.0,0.0,0.0,0.0,0.0,0.0,0.0,0.0,0.0,0.0,0.0,0.0,0.0,0.0,0.0,0.0,0.0,0.0,0.0,0.0,0.0,0.0,0.0,0.0,0.0,0.0,0.0,0.0,0.0,0.0,0.0,0.0,0.0,0.0,0.0,0.0,0.0,0.0,0.0,0.0,0.0,0.0,0.0,0.0,0.0,0.0,0.0,0.0,0.0,0.0,0.0,0.0,0.0,0.0,0.0,0.0,0.0,0.0,0.0,0.0,0.0,0.0,0.0,0.0,0.0,0.0,0.0,0.0,0.0,0.0,0.0,0.0,0.0,0.0,0.0,0.0,0.0,0.0,0.0,0.0,0.0,0.0,0.0,0.0,0.0,0.0,0.0,0.0,0.0,0.0,0.0,0.0,0.0,0.0,0.0,0.0,0.0,0.0,0.0,0.0,0.0,0.0,0.0,0.0,0.0,0.0,0.0,0.0,0.0,0.0,0.0,0.0,0.0,0.0,0.0,0.0,0.0,0.0,0.0,0.0,0.0,0.0,0.0,0.0,0.0,0.0,0.0,0.0,0.0,0.0,0.0,0.0,0.0,0.0,0.0,0.0,0.0,0.0,0.0,0.0,0.0,0.0,0.0,0.0,0.0,0.0,0.0,0.0,0.0,0.0,0.0,0.0,0.0,0.0,0.0,0.0,0.0,0.0,0.0,0.0,0.0,0.0,0.0,0.0,0.0,0.0,0.0,0.0,0.0,0.0,0.0,0.0,0.0,0.0,0.0,0.0,0.0,0.0,0.0,0.0,0.0,0.0,0.0,0.0,0.0,0.0,0.0,0.0,0.0,0.0,0.0,0.0,0.0,0.0,0.0,0.0,0.0,0.0,0.0,0.0,0.0,0.0,0.0,0.0,0.0,0.0,0.0,0.0,0.0,0.0,0.0,0.0,0.0,0.0,0.0,0.0,0.0,0.0,0.0,0.0,0.0,0.0,0.0,0.0,0.0,0.0,0.0,0.0,0.0,0.0,0.0,0.0,0.0,0.0,0.0,0.0,0.0,0.0,0.0,0.0,0.0,0.0,0.0,0.0,0.0,0.0,0.0,0.0,0.0,0.0,0.0,0.0,0.0,0.0,0.0,0.0,0.0,0.0,0.0,0.0,0.0,0.0,0.0,0.0,0.0,0.0,0.0,0.0,0.0,0.0,0.0,0.0,0.0,0.0,0.0,0.0,0.0,0.0,0.0,0.0,0.0,0.0,0.0,0.0,0.0,0.0,0.0,0.0,0.0,0.0,0.0,0.0,0.0,0.0,0.0,0.0,0.0,0.0,0.0,0.0,0.0,0.0,0.0,0.0,0.0,0.0,0.0,0.0,0.0,0.0,0.0,0.0,0.0,0.0,0.0,0.0,0.0,0.0,0.0,0.0,0.0,0.0,0.0,0.0,0.0,0.0,0.0,0.0,0.0,0.0,0.0,0.0,0.0,0.0,0.0,0.0,0.0,0.0,0.0,0.0,0.0,0.0,0.0,0.0,0.0,0.0,0.0,0.0,0.0,0.0,0.0,0.0,0.0,0.0,0.0,0.0,0.0,0.0,0.0,0.0,0.0,0.0,0.0,0.0,0.0,0.0,0.0,0.0,0.0,0.0,0.0,0.0,0.0,0.0,0.0,0.0,0.0,0.0,0.0,0.0,0.0,0.0,0.0,0.0,0.0,0.0,0.0,0.0,0.0,0.0,0.0,0.0,0.0,0.0,0.0,0.0,0.0,0.0,0.0,0.0,0.0,0.0,0.0,0.0,0.0,0.0,0.0,0.0,0.0,0.0,0.0,0.0,0.0,0.0,0.0,0.0,0.0,0.0,0.0,0.0,0.0,0.0,0.0,0.0,0.0,0.0,0.0,0.0,0.0,0.0,0.0,0.0,0.0,0.0,0.0,0.0,0.0,0.0,0.0,0.0,0.0,0.0,0.0,0.0,0.0,0.0,0.0,0.0,0.0,0.0,0.0,0.0,0.0,0.0,0.0,0.0,0.0,0.0,0.0,0.0,0.0,0.0,0.0,0.0,0.0,0.0,0.0,0.0,0.0,0.0,0.0,0.0,0.0,0.0,0.0,0.0,0.0,0.0,0.0,0.0,0.0,0.0,0.0,0.0,0.0,0.0,0.0,0.0,0.0,0.0,0.0,0.0,0.0,0.0,0.0,0.0,0.0,0.0,0.0,0.0,0.0,0.0,0.0,0.0,0.0,0.0,0.0,0.0,0.0,0.0,0.0,0.0,0.0,0.0,0.0,0.0,0.0,0.0,0.0,0.0,0.0,0.0,0.0,0.0,0.0,0.0,0.0,0.0,0.0,0.0,0.0,0.0,0.0,0.0,0.0,0.0,0.0,0.0,0.0,0.0,0.0,0.0,0.0,0.0,0.0,0.0,0.0,0.0,0.0,0.0,0.0,0.0,0.0,0.0,0.0,0.0,0.0,0.0,0.0,0.0,0.0,0.0,0.0,0.0,0.0,0.0,0.0,0.0,0.0,0.0,0.0,0.0,0.0,0.0,0.0,0.0,0.0,0.0,0.0,0.0,0.0,0.0,0.0,0.0,0.0,0.0,0.0,0.0,0.0,0.0,0.0,0.0,0.0,0.0,0.0,0.0,0.0,0.0,0.0,0.0,0.0,0.0,0.0,0.0,0.0,0.0,0.0,0.0,0.0,0.0,0.0,0.0,0.0,0.0,0.0,0.0,0.0,0.0,0.0,0.0,0.0,0.0,0.0,0.0,0.0,0.0,0.0,0.0,0.0,0.0,0.0,0.0,0.0,0.0,0.0,0.0,0.0,0.0,0.0,0.0,0.0,0.0,0.0,0.0,0.0,0.0,0.0,0.0,0.0,0.0,0.0,0.0,0.0,0.0,0.0,0.0,0.0,0.0,0.0,0.0,0.0,0.0,0.0,0.0,0.0,0.0,0.0,0.0,0.0,0.0,0.0,0.0,0.0,0.0,0.0,0.0,0.0,0.0,0.0,0.0,0.0,0.0,0.0,0.0,0.0,0.0,0.0,0.0,0.0,0.0,0.0,0.0,0.0,0.0,0.0,0.0,0.0,0.0,0.0,0.0,0.0,0.0,0.0,0.0,0.0,0.0,0.0,0.0,0.0,0.0,0.0,0.0,0.0,0.0,0.0,0.0,0.0,0.0,0.0,0.0,0.0,0.0,0.0,0.0,0.0,0.0,0.0,0.0,0.0,0.0,0.0,0.0,0.0,0.0,0.0,0.0,0.0,0.0,0.0,0.0,0.0,0.0,0.0,0.0,0.0,0.0,0.0,0.0,0.0,0.0,0.0,0.0,0.0,0.0,0.0,0.0,0.0,0.0,0.0,0.0,0.0,0.0,0.0,0.0,0.0,0.0,0.0,0.0,0.0,0.0,0.0,0.0,0.0,0.0,0.0,0.0,0.0,0.0,0.0,0.0,0.0,0.0,0.0,0.0,0.0,0.0,0.0,0.0,0.0,0.0,0.0,0.0,0.0,0.0,0.0,0.0,0.0,0.0,0.0,0.0,0.0,0.0,0.0,0.0,0.0,0.0,0.0,0.0,0.0,0.0,0.0,0.0,0.0,0.0,0.0,0.0,0.0,0.0,0.0,0.0,0.0,0.0,0.0,0.0,0.0,0.0,0.0,0.0,0.0,0.0,0.0,0.0,0.0,0.0,0.0,0.0,0.0,0.0,0.0,0.0,0.0,0.0,0.0,0.0,0.0,0.0,0.0,0.0,0.0,0.0,0.0,0.0,0.0,0.0,0.0,0.0,0.0,0.0,0.0,0.0,0.0,0.0,0.0,0.0,0.0,0.0,0.0,0.0,0.0,0.0,0.0,0.0,0.0,0.0,0.0,0.0,0.0,0.0,0.0,0.0,0.0,0.0,0.0,0.0,0.0,0.0,0.0,0.0,0.0,0.0,0.0,0.0,0.0,0.0,0.0,0.0,0.0,0.0,0.0,0.0,0.0,0.0,0.0,0.0,0.0,0.0,0.0,0.0,0.0,0.0,0.0,0.0,0.0,0.0,0.0,0.0,0.0,0.0,0.0,0.0,0.0,0.0,0.0,0.0,0.0,0.0,0.0,0.0,0.0,0.0,0.0,0.0,0.0,0.0,0.0,0.0,0.0,0.0,0.0,0.0,0.0,0.0,0.0,0.0,0.0,0.0,0.0,0.0,0.0,0.0,0.0,0.0,0.0,0.0,0.0,0.0,0.0,0.0,0.0,0.0,0.0,0.0,0.0,0.0,0.0,0.0,0.0,0.0,0.0,0.0,0.0,0.0,0.0,0.0,0.0,0.0,0.0,0.0,0.0,0.0,0.0,0.0,0.0,0.0,0.0,0.0,0.0,0.0,0.0,0.0,0.0,0.0,0.0,0.0,0.0,0.0,0.0,0.0,0.0,0.0,0.0,0.0,0.0,0.0,0.0,0.0,0.0,0.0,0.0,0.0,0.0,0.0,0.0,-0.6692,0.0,0.0,0.0,0.0,0.0,0.0,0.0,0.0,0.0,0.0,0.0,0.0,0.0,0.0,0.0,0.0,0.0,0.0,0.0,0.0,0.0,0.0,0.0,0.0,-0.8429,-0.8238,-0.7799,-0.7768,-0.7768,-0.7768,0.0,0.0,0.0,0.0,0.0,-0.7372,-0.6953,-0.6953,-0.7372,-0.6953,-0.7186,-0.8059,-0.8909,-1.0002,-1.1226,0.0,0.0,0.0,0.0,0.0,0.0,0.0,0.0,0.0,0.0,0.0,0.0,0.0,0.0,0.0,0.0,0.0,0.0,0.0,0.0,0.0,0.0,0.0,0.0,0.0,0.0,0.0,0.0,0.0,0.0,0.0,0.0,0.0,0.0,0.0,0.0,0.0,0.0,0.0,0.0,0.0,0.0,0.0,0.0,0.0,0.0,0.0,0.0,0.0,0.0,0.0,0.0,0.0,0.0,0.0,0.0,0.0,0.0,0.0,0.0,0.0,0.0,0.0,0.0,0.0,0.0,0.0,0.0,0.0,0.0,0.0,-0.6324,0.0,0.0,0.0,0.0,0.0,0.0,0.0,0.0,0.0,0.0,0.0,0.0,0.0,0.0,0.0,0.0,0.0,0.0,0.0,0.0,0.0,-0.7558,-0.729,-0.727,-0.7151,-0.6878,-0.6848,-0.6784,-0.6664,-0.609,0.0,0.0,0.0,-0.5256,-0.599,-0.5312,-0.5345,-0.6224,-0.5811,-0.6009,-0.6752,-0.8318,-0.946,-1.0168,-1.046,0.0,0.0,0.0,0.0,0.0,0.0,0.0,0.0,0.0,0.0,0.0,0.0,0.0,0.0,0.0,0.0,0.0,0.0,0.0,0.0,0.0,0.0,0.0,0.0,0.0,0.0,0.0,0.0,0.0,0.0,0.0,0.0,0.0,0.0,0.0,0.0,0.0,0.0,0.0,0.0,0.0,0.0,0.0,0.0,0.0,0.0,0.0,0.0,0.0,0.0,0.0,0.0,0.0,0.0,0.0,0.0,0.0,0.0,0.0,0.0,0.0,0.0,0.0,-0.4918,-0.4918,-0.4918,-0.4918,-0.5017,-0.5156,-0.5156,-0.5259,-0.5395,-0.5395,0.0,0.0,0.0,0.0,0.0,0.0,0.0,0.0,0.0,0.0,0.0,0.0,0.0,0.0,0.0,0.0,0.0,0.0,0.0,-0.724,-0.6464,-0.637,-0.58,-0.4415,-0.4293,-0.4016,-0.3374,-0.3234,-0.3184,-0.3198,-0.3087,-0.3097,-0.3241,-0.3111,-0.3478,-0.4345,-0.58,-0.6588,-0.6719,-0.7702,-0.8221,-0.8415,-0.9939,-1.0649,-1.0776,0.0,0.0,0.0,0.0,0.0,0.0,0.0,0.0,0.0,0.0,0.0,0.0,0.0,0.0,0.0,0.0,0.0,0.0,0.0,0.0,0.0,0.0,0.0,0.0,0.0,0.0,0.0,0.0,0.0,0.0,0.0,0.0,0.0,0.0,0.0,0.0,0.0,0.0,0.0,0.0,0.0,-0.3098,-0.2909,0.0,0.0,0.0,0.0,0.0,0.0,0.0,0.0,0.0,0.0,0.0,0.0,0.0,-0.2945,-0.3045,-0.3045,-0.3045,-0.3045,-0.3066,-0.306,-0.306,-0.306,-0.3465,-0.4171,-0.4171,0.0,-0.5395,-0.5395,0.0,0.0,0.0,0.0,0.0,0.0,0.0,0.0,0.0,0.0,0.0,0.0,0.0,0.0,0.0,0.0,0.0,0.0,0.0,0.0,0.0,-0.4231,-0.3658,-0.2969,-0.2911,-0.2768,-0.2448,-0.2521,-0.2591,-0.2593,-0.2668,-0.2698,-0.2711,-0.2712,-0.2898,-0.328,-0.4538,-0.517,-0.5203,-0.6617,-0.7274,-0.734,-0.8576,-0.9422,-0.9913,-1.0396,0.0,0.0,0.0,0.0,0.0,0.0,0.0,0.0,0.0,0.0,0.0,0.0,0.0,0.0,0.0,0.0,0.0,0.0,0.0,0.0,0.0,0.0,0.0,0.0,0.0,0.0,0.0,0.0,0.0,0.0,0.0,0.0,0.0,0.0,0.0,0.0,0.0,0.0,0.0,-0.2131,-0.1822,-0.1917,-0.1482,-0.1168,0.0,0.0,0.0,0.0,0.0,0.0,0.0,0.0,0.0,-0.1909,-0.1909,-0.2177,-0.2711,-0.2711,-0.2711,-0.2711,-0.2706,-0.2699,-0.2694,-0.2711,-0.2921,-0.3257,-0.3272,-0.3498,-0.3969,-0.4984,-0.5395,-0.5395,0.0,0.0,0.0,0.0,-0.5977,-0.6014,0.0,0.0,0.0,0.0,0.0,0.0,0.0,0.0,0.0,0.0,0.0,0.0,-0.313,-0.2565,-0.212,-0.1924,-0.1925,-0.1842,-0.1647,-0.1771,-0.1861,-0.1848,-0.1951,-0.2002,-0.1998,-0.2238,-0.2343,-0.2344,-0.3245,-0.368,-0.3713,-0.5266,-0.5994,-0.6059,-0.7172,-0.8291,-0.9338,-0.9983,-1.0396,-1.0593,0.0,0.0,0.0,0.0,0.0,0.0,0.0,0.0,0.0,0.0,0.0,0.0,0.0,0.0,0.0,0.0,0.0,0.0,0.0,0.0,0.0,0.0,0.0,0.0,0.0,0.0,0.0,0.0,0.0,0.0,0.0,0.0,0.0,0.0,0.0,0.0,0.0,-0.1246,-0.087,-0.0956,-0.039,0.0,0.0,0.0,0.0,0.0,0.0,0.0,0.0,0.0,-0.0303,-0.0939,-0.0973,-0.1308,-0.2011,-0.2011,-0.2011,-0.2011,-0.2011,-0.2007,-0.2002,-0.2018,-0.2127,-0.2329,-0.2344,-0.2469,-0.2804,-0.4143,-0.4815,-0.4984,-0.4984,-0.512,-0.5259,-0.5259,-0.5259,-0.5259,0.0,0.0,0.0,0.0,0.0,0.0,0.0,0.0,0.0,0.0,0.0,-0.3128,-0.2343,-0.2232,-0.1925,-0.1229,-0.1146,-0.0866,-0.0168,-0.0112,-0.0114,-0.0118,-0.0118,-0.015,-0.0124,-0.0953,-0.137,-0.1374,-0.231,-0.2778,-0.2778,-0.3713,-0.4146,-0.4212,-0.5994,-0.7697,-0.9306,-0.9338,-0.9849,-1.0593,-1.0593,0.0,0.0,0.0,0.0,0.0,0.0,0.0,0.0,0.0,0.0,0.0,0.0,0.0,0.0,0.0,0.0,0.0,0.0,0.0,0.0,0.0,0.0,0.0,0.0,0.0,0.0,0.0,0.0,0.0,0.0,0.0,0.0,0.0,0.0,0.0,0.0,0.0,0.0,-0.0062,-0.0033,0.0,0.0,0.0,0.0,0.0,0.0,0.0,0.0,0.0,-0.0034,-0.0067,-0.0067,-0.0101,-0.0135,-0.0135,-0.0135,-0.0135,-0.0135,-0.0135,-0.0135,-0.0135,-0.0573,-0.1383,-0.1382,-0.1887,-0.27,-0.2806,-0.3261,-0.3867,-0.3867,-0.4306,-0.4918,-0.4918,-0.4918,-0.4918,0.0,0.0,0.0,0.0,0.0,-0.6944,-0.6311,-0.5052,-0.3995,-0.3431,-0.251,-0.1814,-0.1535,-0.1062,-0.0671,-0.042,-0.0392,-0.028,-0.0028,0.0,0.0,0.0,0.0,0.0,0.0,-0.0309,-0.0477,-0.0458,-0.1371,-0.1812,-0.1809,-0.2744,-0.348,-0.4015,-0.4677,-0.5957,-0.7697,-0.8812,-0.9466,-0.9817,-1.0364,-1.0593,0.0,0.0,0.0,0.0,0.0,0.0,0.0,0.0,0.0,0.0,0.0,0.0,0.0,0.0,0.0,0.0,0.0,0.0,0.0,0.0,0.0,0.0,0.0,0.0,0.0,0.0,0.0,0.0,0.0,0.0,0.0,0.0,0.0,0.0,0.0,0.0,0.0,0.0,0.0,0.0,0.0,0.0,0.0,0.0,0.0,0.0,0.0,0.0,0.0,0.0,0.0,0.0,0.0,0.0,0.0,0.0,0.0,0.0,0.0,0.0,-0.0169,-0.0472,-0.0472,-0.064,-0.0977,-0.0974,-0.1812,-0.3103,-0.3103,-0.3239,-0.348,-0.348,-0.3781,-0.4204,0.0,0.0,0.0,0.0,0.0,-0.6499,-0.5864,-0.4658,-0.3605,-0.3065,-0.1898,-0.1006,-0.0755,-0.028,0.0,0.0,0.0,0.0,0.0,0.0,0.0,0.0,0.0,0.0,0.0,0.0,0.0,0.0,-0.0572,-0.087,-0.0894,-0.1785,-0.2521,-0.3111,-0.3713,-0.4677,-0.5895,-0.7665,-0.878,-0.9338,-0.9919,-1.0333,-1.0498,0.0,0.0,0.0,0.0,0.0,0.0,0.0,0.0,0.0,0.0,0.0,0.0,0.0,0.0,0.0,0.0,0.0,0.0,0.0,0.0,0.0,0.0,0.0,0.0,0.0,0.0,0.0,0.0,0.0,0.0,0.0,0.0,0.0,0.0,0.0,0.0542,0.0866,0.0909,0.0897,0.0904,0.0926,0.0908,0.0908,0.0908,0.0908,0.0908,0.0605,0.0437,0.0437,0.0168,0.0,0.0,0.0,0.0,0.0,0.0,0.0,0.0,0.0,0.0,0.0,0.0,0.0,0.0,0.0,-0.0708,-0.1801,-0.2056,-0.2308,-0.2532,-0.2532,-0.2841,-0.3262,0.0,0.0,0.0,0.0,0.0,-0.6278,-0.5085,-0.4241,-0.3396,-0.2335,-0.1535,-0.0783,-0.0084,0.0,0.0,0.0,0.0,0.0,0.0,0.0,0.0,0.0,0.0,0.0,0.0,0.0,0.0,0.0,0.0,0.0,-0.0032,-0.0869,-0.1272,-0.137,-0.3139,-0.3944,-0.411,-0.5858,-0.7632,-0.921,-0.9236,-0.9754,-1.0428,0.0,0.0,0.0,0.0,0.0,0.0,0.0,0.0,0.0,0.0,0.0,0.0,0.0,0.0,0.0,0.0,0.0,0.0,0.0,0.0,0.0,0.0,0.0,0.0,0.0,0.0,0.0,0.0,0.0,0.0,0.0,0.0,0.0,0.1362,0.1328,0.1691,0.26,0.2688,0.2715,0.2704,0.2699,0.2711,0.2711,0.2711,0.2711,0.2711,0.1842,0.134,0.134,0.0538,0.0067,0.0034,0.0034,0.0034,0.0,0.0,0.0,0.0,0.0,0.0,0.0,0.0,0.0,0.0,0.0,0.0,-0.0067,-0.0801,-0.1496,-0.2121,-0.2121,-0.2149,-0.2174,0.0,0.0,0.0,-0.7897,-0.6761,-0.5549,-0.4993,-0.3811,-0.2795,-0.2278,-0.109,-0.0224,-0.0028,0.0,0.0,0.0,0.0,0.0,0.0,0.0,0.0,0.0,0.0,0.0,0.0,0.0,0.0,0.0,0.0,0.0,0.0,-0.025,-0.0689,-0.1326,-0.1805,-0.2761,-0.4027,-0.4536,-0.576,-0.747,-0.8091,-0.8511,-0.8608,0.0,0.0,0.0,0.0,0.0,0.0,0.0,0.0,0.0,0.0,0.0,0.0,0.0,0.0,0.0,0.0,0.0,0.0,0.0,0.0,0.0,0.0,0.0,0.0,0.0,0.0,0.0,0.0,0.0,0.0,0.0,0.292,0.2911,0.238,0.2309,0.241,0.2685,0.2687,0.2702,0.2715,0.2699,0.2711,0.2711,0.2711,0.2711,0.2711,0.2444,0.231,0.231,0.2076,0.1643,0.0939,0.0939,0.0638,0.0,0.0,0.0,0.0,0.0,0.0,0.0,0.0,0.0,0.0,0.0,0.0,-0.0034,-0.0228,-0.0418,-0.0611,-0.0611,-0.0933,-0.1415,0.0,0.0,0.0,-0.7307,-0.6305,-0.5293,-0.4965,-0.3656,-0.2585,-0.225,-0.0923,0.0,0.0,0.0,0.0,0.0,0.0,0.0,0.0,0.0,0.0,0.0,0.0,0.0,0.0,0.0,0.0,0.0,0.0,0.0,0.0,0.0,-0.0274,-0.0771,-0.1129,-0.1893,-0.2902,-0.3626,-0.4546,-0.5628,-0.6443,-0.7265,-0.7897,-0.7046,-0.6687,-0.6593,-0.5719,-0.5395,-0.5395,-0.5395,0.0,0.0,0.0,0.0,0.0,0.0,0.0,0.0,0.0,0.0,0.0,0.0,0.0,0.0,0.0,0.0,0.0,0.0,0.0,0.0,0.0,0.0,0.0,0.0,0.3818,0.3883,0.3851,0.3478,0.338,0.3782,0.3816,0.3816,0.3816,0.3816,0.3816,0.3816,0.3816,0.3816,0.3816,0.3447,0.3245,0.3245,0.2878,0.2444,0.1876,0.1876,0.1642,0.1142,0.1145,0.1146,0.1113,0.0708,0.0539,0.0539,0.0169,0.0,0.0,0.0,0.0,0.0,0.0,0.0,0.0,0.0,-0.027,-0.064,0.0,0.0,0.0,-0.656,-0.5976,-0.5293,-0.4965,-0.3656,-0.2585,-0.225,-0.0923,0.0,0.0,0.0,0.0,0.0,0.0,0.0,0.0,0.0,0.0,0.0,0.0084,0.0112,0.0112,0.0196,0.0252,0.0252,0.0252,0.0199,0.0117,0.0117,0.0089,-0.0031,-0.0796,-0.1194,-0.1409,-0.2885,-0.3711,-0.4019,-0.469,-0.6061,-0.7637,-0.6854,-0.656,-0.6461,-0.5686,-0.5395,-0.5395,-0.5395,0.0,0.0,0.0,0.0,0.0,0.0,0.0,0.0,0.0,0.0,0.0,0.0,0.0,0.0,0.0,0.0,0.0,0.0,0.0,0.0,0.0,0.0,0.0,0.0,0.4576,0.4453,0.5292,0.4686,0.4453,0.5292,0.5395,0.5395,0.5395,0.5395,0.5395,0.5395,0.5395,0.5395,0.5395,0.0,0.0,0.0,0.0,0.2945,0.2845,0.2845,0.2811,0.2711,0.2693,0.2701,0.2666,0.1821,0.1417,0.1248,0.0472,0.0101,0.0,0.0,0.0,0.0,0.0,0.0,0.0,0.0,0.0,0.0,0.0,0.0,0.0,-0.656,-0.5976,-0.5293,-0.4965,-0.3656,-0.2585,-0.225,-0.0923,0.0,0.0,0.0,0.0,0.0,0.0,0.0,0.0,0.0,0.0,0.0,0.056,0.0895,0.0895,0.148,0.1786,0.1786,0.1786,0.1456,0.0875,0.0875,0.0567,0.0,-0.0176,-0.0653,-0.1306,-0.1643,-0.259,-0.3843,-0.3997,-0.4795,-0.5885,-0.5719,-0.5653,-0.562,-0.5458,-0.5395,-0.5395,-0.5395,-0.4891,-0.4251,-0.4048,-0.2878,0.0,0.0,0.0,0.0,0.0,0.0,0.0,0.0,0.0,0.0,0.0,0.0,0.0,0.0,0.0,0.0,0.0,0.0,0.0,0.5288,0.5206,0.5193,0.5362,0.5259,0.5193,0.5395,0.5395,0.5395,0.5395,0.5395,0.5395,0.5395,0.5395,0.5395,0.5395,0.5226,0.5123,0.5123,0.4957,0.4519,0.3747,0.3747,0.338,0.2711,0.0,0.0,0.2683,0.2528,0.2025,0.1281,0.1113,0.064,0.0,0.0,0.0,0.0,0.0,0.0,0.0,0.0,0.0,0.0,0.0,0.0,0.0,-0.5976,-0.5686,-0.5163,-0.4467,-0.3719,-0.2855,-0.1802,-0.134,-0.0811,-0.0084,-0.0336,-0.0252,0.0476,0.056,0.056,0.056,0.0196,0.0,0.0,0.0699,0.109,0.109,0.1813,0.2202,0.2202,0.2202,0.1813,0.109,0.109,0.0895,0.0532,0.0171,-0.0029,-0.0172,-0.1282,-0.2278,-0.3212,-0.3963,-0.4381,-0.4632,-0.5087,-0.498,-0.4596,-0.4662,-0.4417,-0.4048,-0.4048,-0.3747,-0.328,-0.2811,-0.2043,-0.1207,0.0,0.0,0.0,0.0,0.0,0.0,0.0,0.0,0.0,0.0,0.0,0.0,0.0,0.0,0.4855,0.5329,0.0,0.5395,0.5395,0.5395,0.5395,0.5395,0.5395,0.5395,0.5395,0.5395,0.5395,0.5395,0.5395,0.5395,0.5395,0.5467,0.5511,0.5511,0.5576,0.5617,0.5617,0.5617,0.5372,0.4913,0.4819,0.4583,0.4136,0.4082,0.4054,0.4048,0.3553,0.3086,0.2616,0.2189,0.1755,0.1316,0.0843,0.064,0.0607,0.0169,0.0,0.0,0.0,0.0,0.0,0.0,0.0,0.0,-0.5395,-0.5395,-0.5094,-0.4156,-0.3903,-0.3244,-0.1746,-0.1925,-0.1758,-0.056,-0.0838,-0.0503,0.0978,0.0978,0.095,0.109,0.042,0.0056,0.0196,0.0923,0.1368,0.1535,0.2259,0.2649,0.2649,0.2649,0.2259,0.1535,0.1535,0.1397,0.1062,0.0476,0.0392,0.0559,-0.1227,-0.2267,-0.2758,-0.3802,-0.401,-0.3753,-0.4365,-0.4173,-0.3602,-0.3723,-0.3304,-0.2689,-0.2689,-0.2566,-0.231,-0.1541,-0.1173,-0.0906,-0.0202,0.0,0.0,0.0,0.0,0.0,0.0,0.0,0.0,0.0,0.0,0.4215,0.4048,0.4755,0.5458,0.562,0.5653,0.5719,0.5885,0.5752,0.5653,0.5653,0.5653,0.5653,0.5653,0.5491,0.5395,0.5395,0.5395,0.5395,0.5395,0.5539,0.5589,0.5589,0.5725,0.58,0.58,0.58,0.58,0.58,0.5688,0.5623,0.5638,0.5507,0.5428,0.5428,0.4643,0.4171,0.3939,0.309,0.2695,0.2627,0.1884,0.1582,0.1518,0.0809,0.0404,0.0236,0.0067,0.0,0.0,0.0,0.0,0.0,0.0,0.0,-0.526,-0.4839,-0.4211,-0.3635,-0.3205,-0.2593,-0.2148,-0.1981,-0.1452,-0.0503,0.0978,0.0504,0.0392,0.1062,0.042,0.028,0.095,0.1675,0.2397,0.3037,0.3846,0.4236,0.4236,0.4236,0.3873,0.3148,0.3148,0.2399,0.109,0.1006,0.0307,-0.0866,-0.1117,-0.2014,-0.3251,-0.2693,-0.2837,-0.3309,-0.2926,-0.2803,-0.2812,-0.2853,-0.2776,-0.2706,-0.2706,-0.2131,-0.1441,-0.134,-0.0772,-0.0135,-0.0034,0.0,0.0168,0.0939,0.114,0.114,0.114,0.1842,0.2544,0.0,0.0,0.5024,0.4184,0.4755,0.562,0.6396,0.6556,0.6822,0.7572,0.7046,0.6556,0.6556,0.6556,0.6556,0.6556,0.5881,0.5395,0.5395,0.5395,0.5395,0.5395,0.5539,0.5589,0.5589,0.5725,0.58,0.58,0.58,0.58,0.58,0.5786,0.5774,0.5794,0.5629,0.5564,0.5564,0.5359,0.4782,0.3936,0.3064,0.2699,0.2699,0.2598,0.2546,0.2533,0.2432,0.189,0.1045,0.027,0.0,0.0,0.0,0.0,0.0,0.0,0.0,-0.5157,-0.447,-0.4038,-0.3568,-0.2947,-0.285,-0.2676,-0.2259,-0.117,-0.0223,0.0418,0.0559,0.0783,0.109,0.042,0.0336,0.1062,0.1814,0.2538,0.3287,0.4098,0.4491,0.4491,0.4491,0.3873,0.2704,0.3178,0.2565,0.109,0.109,0.053,-0.0529,-0.1367,-0.2371,-0.3372,-0.2982,-0.276,-0.2597,-0.1928,-0.1467,-0.1201,-0.1701,-0.155,0.0,-0.1129,-0.0854,-0.0545,-0.0554,-0.0295,0.0099,0.0602,0.0772,0.0839,0.1207,0.1708,0.1976,0.0,0.2377,0.3447,0.3447,0.4453,0.5292,0.4891,0.5514,0.6268,0.6621,0.7111,0.7567,0.0,0.7697,0.747,0.747,0.747,0.747,0.747,0.7149,0.6924,0.6924,0.6924,0.6695,0.6203,0.6359,0.6237,0.5747,0.5939,0.6105,0.6105,0.6105,0.6105,0.6105,0.5979,0.5915,0.5911,0.5762,0.5728,0.5704,0.5667,0.5362,0.4918,0.4475,0.4273,0.4237,0.3666,0.3473,0.342,0.2913,0.2476,0.2008,0.1076,0.0438,0.0,0.0,0.0,0.0,0.0,0.0,-0.5144,-0.4411,-0.4193,-0.3797,-0.2913,-0.3275,-0.3345,-0.2621,-0.1586,-0.0695,-0.0056,0.0307,0.067,0.1062,0.042,0.0336,0.1062,0.1619,0.2343,0.3287,0.3901,0.4294,0.4491,0.4294,0.3624,0.2508,0.2899,0.2371,0.109,0.0893,0.0279,-0.0696,-0.1977,-0.2982,-0.368,-0.34,-0.2871,-0.212,-0.1368,-0.0643,-0.0056,-0.0472,-0.0242,0.0335,0.0548,0.0612,0.0619,0.0601,0.0605,0.0735,0.1368,0.1744,0.1952,0.1689,0.233,0.0,0.2209,0.3045,0.4082,0.4317,0.4921,0.5395,0.5395,0.6108,0.6785,0.7013,0.7762,0.8447,0.8672,0.8517,0.8355,0.8355,0.8355,0.8355,0.8355,0.8576,0.8705,0.8705,0.8285,0.773,0.7111,0.7074,0.6829,0.6194,0.6242,0.63,0.63,0.63,0.63,0.63,0.6149,0.6095,0.6095,0.5942,0.5851,0.5859,0.5825,0.573,0.5601,0.5498,0.5428,0.5359,0.468,0.4375,0.4306,0.3699,0.3297,0.2963,0.228,0.1481,0.0708,0.0,0.0,0.0,0.0,0.0,-0.5311,-0.5091,-0.4947,-0.4559,-0.368,-0.41,-0.4181,-0.3456,-0.3317,-0.2421,-0.0195,-0.0641,-0.0419,0.1006,0.042,0.0336,0.1062,0.1118,0.1814,0.3259,0.34,0.379,0.4491,0.379,0.3372,0.3259,0.2565,0.184,0.1062,0.0362,-0.0779,-0.2174,-0.2954,-0.3732,-0.4405,-0.3622,-0.2871,-0.212,-0.1368,-0.0643,0.0084,0.0784,0.1031,0.1176,0.1879,0.2128,0.2119,0.2122,0.2122,0.0,0.2156,0.292,0.353,0.2702,0.0,0.3949,0.3915,0.3949,0.4251,0.516,0.5395,0.5395,0.5395,0.6108,0.6948,0.78,0.8678,0.953,1.0396,0.9817,0.9274,0.9274,0.9274,0.9274,0.9274,1.0009,1.0523,0.0,0.9,0.7994,0.7962,0.7418,0.7078,0.7078,0.658,0.63,0.63,0.63,0.63,0.63,0.6293,0.6293,0.6293,0.6093,0.6005,0.5996,0.5877,0.5725,0.5601,0.5601,0.5531,0.5395,0.5362,0.5359,0.5359,0.5326,0.4746,0.3969,0.3936,0.3353,0.2499,0.0,0.0,0.0,0.0,0.0,0.0,-0.5324,-0.4662,-0.4254,-0.4423,-0.4473,0.0,0.0,0.0,0.0,0.0,-0.1534,-0.0894,-0.0391,-0.0587,-0.0196,0.1034,0.0641,0.128,0.3259,0.3317,0.3483,0.3763,0.3511,0.2871,0.1842,0.2091,0.1282,-0.0363,-0.0111,-0.1085,-0.2954,-0.3234,-0.3818,-0.4436,-0.3622,-0.3176,-0.2843,-0.1591,-0.0642,0.0167,0.0,0.1519,0.1222,0.1958,0.2201,0.22,0.2189,0.2524,0.3061,0.3676,0.4587,0.5111,0.0,0.0,0.4788,0.4151,0.4453,0.5024,0.5329,0.5395,0.5557,0.6137,0.6953,0.7832,0.8716,0.9588,1.0269,1.0555,1.0333,1.0174,1.0174,1.0174,1.0174,1.0174,1.0428,0.0,0.0,0.0,0.0,0.9173,0.8418,0.7802,0.7394,0.6673,0.63,0.63,0.63,0.63,0.63,0.63,0.63,0.63,0.6219,0.618,0.618,0.6018,0.5914,0.5858,0.5782,0.5667,0.5531,0.5531,0.5465,0.5395,0.5395,0.5223,0.4918,0.4918,0.4758,0.4195,0.0,0.0,0.0,0.0,0.0,0.0,0.0,0.0,0.0,0.0,0.0,0.0,0.0,0.0,0.0,0.0,0.0,-0.1675,-0.1146,-0.109,-0.0559,0.0643,0.0251,0.0919,0.2871,0.2899,0.3204,0.379,0.3234,0.2454,0.148,0.1171,0.0251,-0.109,-0.1169,-0.1974,-0.3317,-0.3649,-0.407,-0.446,-0.3929,-0.3428,-0.2871,-0.187,-0.0865,0.0,0.1672,0.1898,0.1647,0.2676,0.301,0.3021,0.3031,0.3359,0.388,0.4749,0.5314,0.5436,0.0,0.4743,0.516,0.464,0.4957,0.5395,0.5395,0.5395,0.5653,0.6527,0.7405,0.8253,0.9139,1.0009,1.0593,1.0593,1.0593,1.0593,1.0593,1.0593,1.0593,1.0593,1.0593,1.0593,0.0,0.0,0.0,1.0203,0.9393,0.8816,0.8536,0.7454,0.6834,0.6834,0.649,0.63,0.63,0.63,0.63,0.63,0.63,0.63,0.63,0.618,0.606,0.5999,0.5926,0.579,0.5664,0.5659,0.5634,0.5531,0.5498,0.5462,0.5462,0.5428,0.5395,0.5087,0.0,0.0,0.0,0.0,0.0,0.0,0.0,0.0,0.0,0.0,0.0,0.0,0.0,0.0,0.0,0.0,0.0,0.0,-0.1312,-0.1174,-0.0838,-0.0084,-0.0056,0.0643,0.212,0.2148,0.2871,0.4322,0.2871,0.212,0.2035,-0.0056,-0.109,-0.1229,-0.2619,-0.3287,-0.34,-0.4181,-0.4491,-0.4491,-0.4491,-0.3594,-0.2259,-0.2204,-0.1284,0.0196,0.1675,0.2232,0.248,0.3984,0.4491,0.4491,0.4487,0.4515,0.468,0.5328,0.5149,0.4779,0.4867,0.4985,0.5133,0.5347,0.5388,0.5395,0.5395,0.5428,0.5719,0.6593,0.747,0.8318,0.0,0.0,1.0593,1.0593,1.0593,1.0593,1.0593,1.0593,1.0593,0.0,0.0,0.0,0.0,0.0,0.0,1.0995,0.0,1.0067,1.0407,0.8801,0.7859,0.7859,0.6911,0.6377,0.6377,0.6338,0.63,0.63,0.63,0.63,0.63,0.63,0.618,0.6022,0.6022,0.5941,0.5819,0.5822,0.5822,0.5788,0.5647,0.5593,0.5601,0.5462,0.5428,0.5296,0.0,0.0,0.0,0.0,0.0,0.0,0.0,0.0,0.0,0.0,0.0,0.0,0.0,0.0,0.0,0.0,0.0,0.0,-0.276,-0.2232,-0.1591,-0.0838,-0.0811,-0.014,0.1341,0.1368,0.1563,0.198,0.1563,0.109,0.056,-0.0028,-0.0866,-0.1924,-0.2313,-0.3121,-0.4208,-0.4405,-0.4491,-0.4491,-0.4491,-0.3901,-0.2954,-0.2397,-0.1281,0.0195,0.1672,0.2565,0.3176,0.0,0.0,0.0,0.0,0.4796,0.5273,0.546,0.551,0.5414,0.4881,0.4935,0.5106,0.5179,0.5277,0.5395,0.5395,0.5914,0.6625,0.7502,0.8355,0.9236,0.0,0.0,0.0,1.0593,1.0593,0.0,1.0593,1.0593,0.0,1.0593,0.0,1.0593,1.0593,1.0787,0.0,0.0,1.0432,1.0143,1.0666,0.9562,0.8917,0.8917,0.7936,0.7403,0.7403,0.6679,0.63,0.63,0.63,0.63,0.63,0.63,0.6261,0.6219,0.6219,0.6099,0.5967,0.5937,0.5878,0.58,0.5762,0.5755,0.5737,0.5704,0.5704,0.5665,0.0,0.0,0.0,0.0,0.0,0.0,0.0,0.0,0.0,0.0,0.0,0.0,0.0,0.0,0.0,0.0,0.0,0.0,0.0,-0.2926,-0.2202,-0.1146,-0.109,-0.0419,0.1062,0.109,0.1257,0.1591,0.1257,0.0726,-0.0028,-0.0671,-0.1591,-0.2732,-0.3065,-0.368,-0.4491,-0.4491,-0.4491,0.0,0.0,-0.3818,-0.276,-0.2371,-0.1282,0.0195,0.1672,0.0,0.0,0.0,0.0,0.4012,0.432,0.471,0.5109,0.5406,0.0,0.5167,0.4786,0.486,0.5116,0.5553,0.5822,0.6075,0.647,0.692,0.7502,0.8388,0.8947,0.0,1.0428,0.0,0.0,0.0,0.0,0.0,1.0593,1.0593,1.0593,0.0,1.0593,0.0,1.0767,1.0902,1.1169,0.0,1.1086,1.098,1.1446,1.049,0.997,0.997,0.8993,0.8237,0.7821,0.6795,0.63,0.63,0.63,0.63,0.63,0.63,0.63,0.63,0.0,0.6219,0.6141,0.6141,0.6099,0.6018,0.5941,0.5897,0.5866,0.583,0.5791,0.5803,0.0,0.0,0.0,0.0,0.0,0.0,0.0,0.0,0.0,0.0,-0.273,-0.2493,0.0,0.0,0.0,0.0,0.0,0.0,0.0,0.0,-0.2619,-0.1452,-0.1202,-0.0503,0.0782,0.0894,0.1256,0.1898,0.1256,0.0586,-0.0167,-0.1448,-0.2536,-0.3428,-0.407,-0.4405,-0.4491,-0.4491,-0.4491,-0.4491,-0.4491,-0.3622,-0.2343,0.0,-0.1341,0.0056,0.0,0.0,0.0,0.0,0.2704,0.3398,0.3935,0.4278,0.4625,0.5191,0.4948,0.4518,0.4651,0.4785,0.5101,0.5973,0.6442,0.6915,0.7665,0.7994,0.8388,0.9139,0.0,0.9722,1.0611,1.0681,1.0618,1.0744,0.0,1.0593,1.0593,1.0681,1.0776,1.0776,1.0839,1.0987,1.1152,1.1194,1.1411,1.1866,1.194,1.2037,1.2285,1.1465,1.0932,1.0783,0.9965,0.9031,0.8008,0.7138,0.6683,0.6686,0.6686,0.669,0.6701,0.6578,0.65,0.65,0.6342,0.63,0.63,0.63,0.63,0.63,0.6099,0.6022,0.6022,0.5902,0.586,0.586,0.0,0.0,0.0,0.0,0.0,0.0,0.0,0.0,0.0,0.0,-0.1479,-0.1153,0.0,0.0,0.0,0.0,0.0,0.0,0.0,0.0,0.0,-0.2899,-0.1758,-0.0978,-0.0726,-0.0112,0.0252,0.0392,0.0252,-0.0196,-0.0922,-0.1173,-0.2009,-0.3317,-0.3511,-0.3929,-0.4491,-0.4491,-0.4491,-0.4491,-0.4491,-0.3932,-0.3037,-0.2426,0.0,0.0,0.0,0.0,0.0,0.0,0.2732,0.3287,0.2756,0.3453,0.4515,0.4653,0.4598,0.4494,0.4522,0.4707,0.4955,0.5132,0.5943,0.6752,0.6883,0.8027,0.0,0.0,0.9881,1.0611,1.1437,1.1045,1.0839,1.1469,0.0,0.0,0.0,0.0,1.1586,0.0,0.0,0.0,0.0,0.0,0.0,0.0,1.2091,1.2245,1.2298,1.215,1.1657,1.082,1.064,1.0078,0.9036,0.8884,0.878,0.877,0.877,0.877,0.8768,0.791,0.7545,0.7506,0.6659,0.0,0.63,0.63,0.63,0.63,0.6261,0.6261,0.6261,0.6219,0.6219,0.6219,0.0,0.0,0.0,0.0,0.0,0.0,0.0,-0.2845,-0.2056,-0.0775,-0.0558,-0.0387,-0.0029,-0.0311,-0.0671,0.0,0.0,0.0,0.0,0.0,0.0,0.0,0.0,0.0,-0.0532,-0.0168,0.0,0.0,0.0,-0.0588,-0.1675,-0.1675,-0.2482,-0.3929,-0.3959,-0.4181,-0.4491,-0.4491,-0.4491,-0.4491,-0.4491,-0.4042,0.0,0.0,0.0,0.0,0.0,0.0,0.0,0.0,0.3037,0.3204,0.2454,0.3262,0.4491,0.4491,0.4491,0.457,0.4921,0.497,0.5218,0.6499,0.7104,0.76,0.8538,0.0,0.0,0.0,1.0636,1.1351,1.1741,0.0,0.0,0.0,0.0,0.0,0.0,0.0,0.0,0.0,0.0,0.0,0.0,0.0,1.275,1.2842,1.251,1.2305,1.2305,1.2305,1.2077,1.1583,1.1087,1.0565,1.0078,0.9556,0.9306,0.9284,0.9284,0.9309,0.9273,0.8789,0.8589,0.8556,0.8091,0.755,0.7061,0.7061,0.6778,0.63,0.63,0.63,0.63,0.63,0.63,0.63,0.0,0.0,0.0,0.0,0.0,0.0,-0.2577,-0.1775,-0.0998,-0.0098,0.0,0.0,0.0,0.0,-0.0224,0.0,0.0,0.0,0.0,0.0,0.0,0.0,0.0,0.0,0.0,0.0,0.0,-0.0224,-0.0224,0.0,0.0,0.0,0.0,0.0,-0.4491,-0.4491,-0.4491,-0.4491,-0.4491,0.0,0.0,-0.4042,0.0,0.0,0.0,0.0,0.0,0.0,0.0,0.0,0.3317,0.3231,0.2811,0.3508,0.4491,0.4491,0.4491,0.4653,0.5324,0.5337,0.5695,0.7803,0.8284,0.8646,1.0009,1.0466,0.0,0.0,1.1226,1.1865,1.202,0.0,1.307,0.0,1.31,0.0,0.0,0.0,0.0,0.0,0.0,0.0,0.0,0.0,0.0,1.3664,1.2842,1.2305,1.2305,1.2305,1.2305,1.2305,1.1539,1.1124,1.1124,1.0346,0.9938,0.9938,0.9938,0.9938,0.9933,0.9718,0.9627,0.9609,0.9399,0.8833,0.8115,0.7889,0.7343,0.662,0.638,0.63,0.63,0.63,0.63,0.63,0.0,0.0,0.0,0.0,0.0,0.0,-0.1708,-0.134,-0.0972,-0.0101,0.0,0.0,0.0,0.0,-0.0028,0.0,0.0,0.0,0.0,0.0,0.0,0.0,0.0,0.0,0.0,0.0,0.0,-0.1006,-0.1006,0.0,0.0,0.0,0.0,0.0,0.0,-0.4491,-0.4491,-0.4491,0.0,0.0,0.0,0.0,0.0,0.0,0.0,0.0,0.0,0.0,0.0,0.0,0.0,0.3481,0.4018,0.4333,0.4491,0.4491,0.0,0.0,0.5324,0.5788,0.628,0.72,0.832,0.921,0.937,0.0,0.0,1.0593,1.1226,1.202,1.2757,1.2948,1.3252,0.0,0.0,1.2978,0.0,0.0,0.0,0.0,0.0,0.0,0.0,0.0,0.0,1.3787,1.2842,1.2305,1.2305,1.2305,1.2305,1.2305,1.2224,1.215,1.215,1.2077,1.204,1.204,1.204,1.204,1.1996,1.1077,1.0677,1.0621,0.9707,0.9232,0.0,0.8178,0.7747,0.7584,0.6659,0.63,0.63,0.63,0.63,0.63,0.0,0.0,0.0,0.0,0.0,0.0,-0.1507,-0.0839,-0.0404,-0.0034,0.0,0.0,0.0,0.0,0.0,0.0,0.0,0.0,0.0,0.0,0.0,0.0,0.0,0.0,0.0,0.0,-0.014,-0.0448,-0.0448,0.0,0.0,0.0,0.0,0.0,0.0,0.0,-0.3763,0.0,0.0,0.0,0.0,0.0,0.0,0.0,0.0,0.0,0.0,0.0,0.0,0.0,0.0,0.0,0.4851,0.5074,0.0,0.0,0.5414,0.5877,0.6327,0.6654,0.7205,0.8645,0.9153,0.9434,0.9951,0.0,1.0593,1.0593,1.1632,1.2604,1.2948,1.3786,1.454,1.4864,0.0,0.0,1.3786,0.0,0.0,0.0,0.0,0.0,0.0,0.0,1.3836,1.2931,1.2519,1.2305,1.2305,1.2305,1.2305,1.2305,1.2305,1.2305,1.2305,1.2305,1.2305,1.2305,1.2305,1.2305,1.2298,1.189,1.168,1.168,1.1267,1.0776,0.0,0.9756,0.9266,0.8604,0.7588,0.7223,0.7142,0.6539,0.63,0.63,0.0,0.0,0.0,0.0,0.0,-0.1976,-0.104,-0.0404,0.0,0.0,0.0,0.0,0.0,0.0,0.0,0.0,0.0,0.0,0.0,0.0,0.0,0.0,0.0,0.0,0.0,0.0,-0.0112,-0.0336,-0.0336,-0.0699,0.0,0.0,0.0,0.0,0.0,0.0,0.0,0.0,0.0,0.0,0.0,0.0,0.0,0.0,0.0,0.0,0.0,0.0,0.0,0.0,0.0,0.0,0.0,0.0,0.0,0.0,0.6274,0.6856,0.7297,0.7616,0.8184,0.9721,0.9899,0.9849,0.0,0.0,1.0688,1.0895,1.2058,1.307,1.3304,1.4481,1.541,0.0,0.0,1.5196,1.4628,0.0,0.0,0.0,0.0,0.0,0.0,1.3734,1.3114,1.2755,1.2445,1.2305,1.2305,1.2305,1.2305,1.2305,1.2305,1.2305,1.2305,1.2305,1.2305,1.2305,1.2305,1.2305,1.2305,1.2305,1.2305,1.2305,1.2305,1.189,0.0,1.0929,1.0378,0.9627,0.865,0.8082,0.7708,0.7022,0.6539,0.63,0.0,0.0,0.0,0.0,0.0,-0.1006,-0.0135,0.0,0.0,0.0,0.0,0.0,0.0,0.0,0.0,0.0,0.0,0.0,0.0,0.0,0.0,0.0,0.0,0.0,0.0,0.0,-0.0364,-0.109,-0.109,-0.148,-0.2202,-0.2202,-0.2202,-0.2204,0.0,0.0,0.0,0.0,0.0,0.0,0.0,0.0,0.0,0.0,0.0,0.0,0.0,0.0,0.0,0.0,0.0,0.0,0.0,0.6588,0.6588,0.0,0.6827,0.726,0.7993,0.8569,0.9175,0.9901,1.0341,1.0593,0.0,0.0,1.0839,1.1617,1.242,1.3252,1.4025,1.4835,1.541,1.541,1.541,0.0,1.5381,0.0,0.0,0.0,0.0,0.0,1.5395,1.4319,1.3702,1.3673,1.2806,0.0,1.2305,1.2305,1.2305,1.2305,1.2305,1.2305,1.2305,1.2305,1.2305,1.2305,1.2305,1.2305,1.2305,1.2305,1.2305,1.2305,1.2305,1.2298,0.0,1.1199,1.0779,1.0683,0.9685,0.8694,0.779,0.779,0.7142,0.63,0.0,0.0,0.0,0.0,0.0,0.0,-0.0135,0.0,0.0,0.0,0.0,0.0,0.0,0.0,0.0,0.0,0.0,0.0,0.0,0.0,0.0,0.0,0.0,0.0,0.0,0.0,-0.0112,-0.0336,-0.0336,-0.0476,-0.0699,-0.1202,-0.1452,-0.1452,-0.1452,-0.1452,0.0,0.0,0.0,0.0,0.0,0.0,0.0,0.0,0.0,0.0,0.0,0.0,0.0,0.0,0.0,0.0,0.0,0.0,0.0,0.8181,0.8463,0.8518,0.8495,0.9098,0.9849,1.0336,1.0519,1.0593,1.0593,0.0,1.15,1.1741,1.287,1.3906,1.4145,1.4874,1.541,1.541,1.541,0.0,0.0,0.0,0.0,0.0,0.0,1.4074,0.0,0.0,1.2732,1.2732,1.2482,1.2305,1.2305,1.2305,1.2305,1.2305,1.2305,1.2305,1.2305,1.2305,1.2305,1.2305,1.2305,1.2305,1.2305,1.2305,1.2305,1.2305,1.2305,1.2305,1.2268,1.1959,1.1829,1.1729,1.0724,1.0129,0.9702,0.83,0.7617,0.7226,0.0,0.0,0.0,0.0,0.0,0.0,-0.0067,0.0,0.0,0.0,0.0,0.0,0.0,0.0,0.0,0.0,0.0,0.0,0.0,0.0,0.0,0.0,0.0,0.0,0.0,0.0,0.0,0.0,0.0,0.0,0.0,-0.0476,-0.0671,-0.0671,-0.0671,-0.0671,0.0,0.0,0.0,0.0,0.0,0.0,0.0,0.0,0.0,0.0,0.0,0.0,0.0,0.0,0.0,0.0,0.0,0.0,0.0,0.0,0.9371,0.9491,0.9221,0.9721,1.0327,1.0546,1.0593,1.0681,0.0,0.0,1.1981,1.2596,1.3265,1.3936,1.454,1.4805,1.505,1.5352,1.541,0.0,0.0,0.0,0.0,0.0,0.0,0.0,0.0,1.2519,1.2305,1.2305,1.2305,1.2305,1.2305,1.2305,1.2305,1.2305,1.2305,1.2305,1.2305,1.2305,1.2305,1.2305,1.2305,1.2305,1.2305,1.2305,1.2305,1.2305,1.2305,1.2305,0.0,1.2305,1.2305,1.2261,1.16,1.1144,1.064,0.9401,0.8694,0.8263,0.0,0.0,0.0,0.0,0.0,0.0,0.0,0.0,0.0,0.0,0.0,0.0,0.0,0.0,0.0,0.0,0.0,0.0,0.0,0.0,0.0,0.0,0.0,0.0,0.0,0.0,0.0,0.0,0.0,0.0,0.0,0.0,0.0,0.0,0.0,0.0,0.0,0.0,0.0,0.0,0.0,0.0,0.0,0.0,0.0,0.0,0.0,0.0,0.0,0.0,0.0,0.0,0.0,0.0,0.0,0.0,0.0,0.0,0.0,1.0347,1.0593,1.0593,1.0656,1.0863,1.1562,0.0,0.0,1.3717,1.3515,1.3545,1.505,1.4746,1.454,1.5294,1.541,0.0,0.0,0.0,0.0,0.0,1.4908,0.0,1.3744,1.2915,1.2372,1.2305,1.2305,1.2305,1.2305,1.2305,1.2305,1.2305,1.2305,1.2305,1.2305,1.2305,1.2305,1.2305,1.2305,1.2305,1.2305,1.2305,1.2305,0.0,1.2305,1.2305,1.2305,1.2305,1.2305,1.2305,1.2305,1.1723,1.0917,1.0838,1.0228,0.9386,0.0,0.0,0.0,0.0,0.0,0.0,0.0,0.0,0.0,0.0,0.0,0.0,0.0,0.0,0.0,0.0,0.0,0.0,0.0,0.0,0.0,0.0,0.0,0.0,0.0,0.0,0.0,0.0,0.0,0.0,0.0,0.0,0.0,0.0,0.0,0.0,0.0,0.0,0.0,0.0,0.0,0.0,0.0,0.0,0.0,0.0,0.187,0.2565,0.0,0.0,0.0,0.0,0.0,0.0,0.0,0.0,0.9476,1.0167,1.0425,0.0,1.0593,1.0593,1.1045,1.1413,0.0,0.0,0.0,0.0,0.0,0.0,0.0,0.0,0.0,0.0,0.0,0.0,0.0,0.0,0.0,0.0,1.56,1.5477,1.3875,1.3491,1.3062,1.2342,1.2305,1.2305,1.2305,1.2305,1.2305,1.2305,1.2305,1.2305,1.2305,1.2305,1.2305,1.2305,1.2305,1.2305,1.2305,1.2305,1.2305,1.2305,1.2305,1.2305,1.2305,1.2305,1.2305,1.2305,1.2305,1.2174,1.1859,1.1093,1.0634,1.0323,0.0,0.0,0.0,0.0,0.0,0.0,0.0,0.0,0.0,0.0,0.0,0.0,0.0,0.0,0.0,0.0,0.0,0.0,0.0,0.0,0.0,0.0,0.0,0.0,0.0,0.0,0.0,0.0,0.0,0.0,0.0,0.0,0.0,0.0,0.0,0.0,0.0,0.0,0.0,0.0,0.0,0.0,0.0,0.0,0.0,0.0,0.2313,0.3011,0.0,0.4752,0.5461,0.6015,0.0,0.0,0.0,0.0,0.9833,1.0354,1.0546,1.0593,1.0593,1.0593,1.0926,1.1226,1.117,0.0,0.0,0.0,0.0,0.0,0.0,0.0,0.0,0.0,1.4776,0.0,0.0,0.0,0.0,0.0,1.5419,1.5544,0.0,1.4386,1.4171,1.3665,1.32,1.2952,1.2952,1.2519,1.2305,1.2305,1.2305,1.2305,1.2305,1.2305,1.2305,1.2305,1.2305,1.2305,1.2305,1.2305,1.2305,1.2305,1.2305,1.2305,1.2305,1.2305,1.2305,1.2305,1.2305,1.2305,1.2224,1.1694,1.1502,1.1391,0.0,0.0,0.0,0.0,0.0,0.0,0.0,0.0,0.0,0.0,0.0,0.0,0.0,0.0,0.0,0.0,0.0,0.0,0.0,0.0,0.0,0.0,0.0,0.0,0.0,0.0,0.0,0.0,0.0,0.0,0.0,0.0,0.0,0.0,0.0,0.0056,0.0168,0.0168,0.0224,0.0336,0.0336,0.0,0.0,0.0,0.0,0.0,0.0,0.0,0.0,0.4663,0.5411,0.6211,0.7076,0.0,0.0,0.0,0.0,0.0,1.0593,1.0593,1.0593,1.0593,1.0681,1.0926,1.15,0.0,0.0,0.0,0.0,0.0,0.0,0.0,0.0,0.0,0.0,0.0,0.0,0.0,0.0,1.4591,1.5218,0.0,1.5234,1.5199,1.5128,1.4985,1.4171,1.3709,1.3709,1.3098,1.2659,1.2519,1.2519,1.2445,1.2305,1.2305,1.2305,1.2305,1.2305,1.2305,1.2305,1.2305,1.2305,1.2305,0.0,0.0,1.2305,1.2305,1.2305,1.2305,1.2305,1.2305,1.2305,1.2305,1.2305,1.2305,0.0,0.0,0.0,0.0,0.0,0.0,0.0,0.0,0.0,0.0,0.0,0.0,0.0,0.0,0.0,0.0,0.0,0.0,0.0,0.0,0.0,0.0,0.0,0.0,0.0,0.0,0.0,0.0,0.0,0.0,0.0,0.0,0.0,0.0,0.0,0.0336,0.0923,0.0923,0.1284,0.187,0.187,0.0,0.0,0.0,0.0,0.0,0.0,0.0,0.0,0.5566,0.6041,0.6466,0.7238,0.0,0.0,0.0,0.0,0.0,1.0593,1.0593,1.0593,1.0593,1.1108,1.1469,1.0926,0.0,0.0,0.0,0.0,0.0,0.0,0.0,0.0,0.0,0.0,1.4689,0.0,0.0,1.5613,1.5145,0.0,1.6941,1.534,1.5199,1.4843,1.3991,1.3781,1.3709,1.3709,1.4378,1.4343,1.3528,1.3491,1.3098,1.2305,1.2305,1.2305,1.2305,1.2305,1.2305,1.2305,1.2305,1.2305,1.2305,0.0,1.2305,1.2305,1.2305,1.2305,1.2305,1.2305,1.2305,1.2305,1.2305,1.2305,1.2305,0.0,0.0,0.0,0.0,0.0,0.0,0.0,0.0,0.0,0.0,0.0,0.0,0.0,0.0,0.0,0.0,0.0,0.0,0.0,0.0,0.0,0.0,0.0,0.0,0.0,0.0,0.0,0.0,0.0,0.0196,0.0616,0.1006,0.1202,0.1202,0.1202,0.1368,0.1703,0.1703,0.1898,0.2202,0.0,0.0,0.0,0.0,0.0,0.0,0.0,0.0,0.0,0.0,0.5974,0.6687,0.7519,0.0,0.0,0.0,0.0,0.0,1.0593,1.0593,1.0593,1.0593,1.0863,1.1045,1.0681,0.0,0.0,0.0,0.0,0.0,0.0,0.0,0.0,0.0,0.0,1.507,1.365,1.4503,1.5017,0.0,0.0,1.5552,1.5234,1.5199,1.5021,1.4565,1.3991,1.3709,1.3709,1.3665,1.3411,1.2952,1.2952,1.2732,1.2305,1.2305,1.2305,1.2305,1.2305,1.2305,1.2305,1.2305,1.2305,1.2305,0.0,1.2305,1.2305,1.2305,1.2305,1.2305,1.2305,1.2305,1.2305,1.2305,1.2305,1.2305,0.0,0.0,0.0,0.0,0.0,0.0,0.0,0.0,0.0,0.0,0.0,0.0,0.0,0.0,0.0,0.0,0.0,0.0,0.0,0.0,0.0,0.0,0.0,0.0,0.0,0.0,0.0,0.0,0.0168,0.0643,0.1369,0.1924,0.2202,0.2202,0.2202,0.2286,0.2454,0.2482,0.2593,0.2732,0.0,0.0,0.0,0.0,0.0,0.0,0.0,0.0,0.0,0.0,0.0,0.0,0.0,0.0,0.0,1.0396,1.0593,1.0656,1.0839,1.0863,1.0926,1.1115,1.087,1.0593,1.0593,0.0,0.0,0.0,0.0,0.0,0.0,0.0,0.0,0.0,1.4432,1.4892,1.2529,1.3627,1.4326,1.3462,1.3774,1.4279,1.4807,1.4843,1.4843,1.4843,1.4135,1.3709,1.3709,1.3237,1.2879,1.2629,1.2629,1.2519,1.2305,1.2305,1.2429,1.2633,1.2633,1.2765,1.2977,1.2721,1.2633,1.2633,1.2385,1.2305,1.2305,1.2305,1.2305,1.2305,1.2305,1.2305,1.2305,1.2305,1.2305,1.2305,0.0,0.0,0.0,0.0,0.0,0.0,0.0,0.0,0.0,0.0,0.0,0.0,0.0,0.0,0.0,0.0,0.0,0.0,0.0,0.0,0.0,0.0,0.0,0.0,0.0,0.0,0.0,0.0,0.0699,0.1396,0.212,0.2174,0.2202,0.2202,0.2202,0.2593,0.3231,0.3289,0.3707,0.4322,0.4322,0.0,0.0,0.0,0.0,0.0,0.0,0.0,0.0,0.0,0.0,0.0,0.0,0.0,1.0523,1.0593,1.0593,1.0776,1.15,1.171,1.1896,1.2642,1.1694,0.0,1.0593,1.1756,0.0,1.2978,0.0,0.0,0.0,0.0,0.0,1.4386,1.4558,1.4253,1.3147,0.0,1.4454,1.2622,1.3983,1.4736,1.3882,1.3818,1.3818,1.3818,1.3745,1.3709,1.3709,1.4522,1.4557,1.3637,1.36,1.3164,1.2305,1.2305,1.2721,1.3608,1.3608,1.4088,1.4956,1.4007,1.3608,1.3564,1.2677,1.2305,1.2305,1.2305,1.2305,1.2305,1.2305,1.2305,1.2305,1.2305,1.2305,1.2305,0.0,0.0,0.0,0.0,0.0,0.0,0.0,0.0,0.0,0.0,0.0,0.0,0.0,0.0,0.0,0.0,0.0,0.0,0.0,0.0,0.0,0.0,0.0515,0.082,0.081,0.0741,0.0693,0.0693,0.1916,0.2649,0.2899,0.34,0.3624,0.3624,0.3624,0.379,0.4042,0.407,0.4236,0.4491,0.4491,0.4583,0.0,0.0,0.0,0.0,0.0,0.0,0.0,0.0,0.8091,0.8877,0.9204,0.9888,1.0593,1.0593,1.0593,1.0776,1.1593,1.1437,1.1382,1.2673,1.1787,0.0,0.0,1.2551,1.3009,1.3009,1.3485,0.0,0.0,0.0,1.3654,1.4437,1.5008,1.4933,1.3635,1.4966,1.5367,1.3419,1.381,1.3882,1.2915,1.2842,1.2842,1.2842,1.2842,1.2842,1.2842,1.32,1.3237,1.2842,1.2842,1.2666,1.2305,1.2305,1.2765,1.3697,1.3128,1.3028,1.3388,1.3006,1.3165,1.3674,1.3324,1.352,1.4055,1.3419,1.3171,1.3091,1.2519,1.2305,1.2305,1.2305,1.2305,1.2305,0.0,0.0,0.0,0.0,0.0,0.0,0.0,0.0,0.0,0.0,0.0,0.0,0.0,0.0,0.0,0.0,0.0,0.0,0.0,0.0,0.0135,0.0404,0.0989,0.1435,0.1728,0.1892,0.1834,0.1609,0.285,0.3548,0.368,0.4236,0.4491,0.4491,0.4491,0.4491,0.4491,0.4491,0.4491,0.4515,0.4732,0.4805,0.0,0.0,0.0,0.0,0.0,0.0,0.0,0.0,0.8812,0.9338,0.9626,1.011,1.0593,1.0593,1.0593,1.0776,1.1593,1.1406,1.1382,0.0,0.0,0.0,1.3455,1.3373,1.3009,1.3009,1.3518,0.0,0.0,0.0,0.0,0.0,1.536,1.5316,1.4311,1.5332,1.5649,1.4343,1.4171,1.3918,1.3266,1.3237,1.3237,1.3237,1.3237,1.3091,1.2769,1.2732,1.2629,1.2305,1.2305,1.2305,1.2305,1.2305,1.2633,1.3263,1.2593,1.2614,1.3182,1.2905,1.31,1.3688,1.339,1.3629,1.4235,1.3528,1.3273,1.3208,1.2556,1.2305,1.2305,1.2305,1.2305,1.2305,0.0,0.0,0.0,0.0,0.0,0.0,0.0,0.0,0.0,0.0,0.0,0.0,0.0,0.0,0.0,0.0,0.0,0.0,0.0,0.0,0.0404,0.1273,0.1307,0.1775,0.2678,0.3448,0.3447,0.2705,0.3305,0.3918,0.4491,0.4491,0.4491,0.4491,0.4491,0.4519,0.4519,0.4519,0.4519,0.457,0.5246,0.5262,0.5097,0.0,0.0,0.0,0.0,0.0,0.0,0.0,0.9306,0.9466,1.0333,1.0593,1.0593,1.0624,1.0624,1.0776,1.1586,1.1834,0.0,0.0,0.0,0.0,0.0,1.4154,1.3009,1.3009,0.0,1.6095,1.6105,0.0,0.0,1.5905,1.5515,1.5199,1.5199,1.5234,1.5234,1.5199,1.5199,1.5199,1.5199,1.5199,1.5199,1.5199,1.5199,1.4772,1.3781,1.3709,1.328,1.2372,1.2342,1.2335,1.2305,1.2305,1.2305,1.2305,1.2305,1.3314,1.5136,1.4132,1.3697,1.3653,1.2721,1.2335,1.2342,1.2335,1.2305,1.2305,1.2305,1.2298,1.2298,1.2298,1.2298,1.2298,0.0,0.0,0.0,0.0,0.0,0.0,0.0,0.0,0.0,0.0,0.0,0.0,0.0,0.0,0.0,0.0,0.0,0.0,0.0873,0.0906,0.1307,0.2242,0.2878,0.3345,0.3613,0.4482,0.4714,0.4241,0.4319,0.4461,0.4648,0.4542,0.4491,0.4491,0.4491,0.4759,0.5191,0.5191,0.5492,0.5987,0.6204,0.6393,0.6639,0.0,0.0,0.0,0.0,0.0,0.0,0.0,0.0,0.0,1.053,1.0593,1.0713,1.1288,1.1437,1.1741,1.3114,0.0,0.0,0.0,0.0,0.0,0.0,0.0,0.0,0.0,0.0,1.5417,1.6016,0.0,0.0,1.6342,1.6278,1.6175,1.6175,1.6749,1.6932,1.6245,1.6175,1.5939,1.5269,1.5199,1.5199,1.5199,1.5199,1.5057,1.4772,1.4772,1.4629,1.4343,1.4348,1.4011,1.3277,1.327,1.2933,1.2305,1.2305,1.2597,1.3145,1.2845,1.3082,1.3696,1.3404,1.3702,1.4307,1.3593,1.2915,1.2372,1.3025,1.3273,1.3273,1.3273,1.3273,1.3208,0.0,0.0,0.0,0.0,0.0,0.0,0.0,0.0,0.0,0.0,0.0,0.0,0.0,0.0,0.0,0.0,0.0,0.0,0.1274,0.1641,0.2277,0.3178,0.3713,0.4184,0.4553,0.5123,0.5306,0.5094,0.4884,0.4752,0.4716,0.4836,0.4893,0.4921,0.5199,0.555,0.5928,0.5928,0.6199,0.6615,0.6912,0.7153,0.7378,0.0,0.0,0.0,0.0,0.0,0.0,0.0,0.0,0.0,1.0593,1.0593,1.0713,1.1163,1.132,1.1593,1.2901,0.0,0.0,0.0,0.0,0.0,0.0,0.0,0.0,0.0,0.0,1.5823,1.6478,1.6697,0.0,1.7101,1.7173,1.7173,1.7173,1.7647,1.7794,1.7207,1.7173,1.6932,1.6376,1.6298,1.6298,1.6298,1.6298,1.6158,1.579,1.5755,1.5578,1.5202,1.5204,1.4896,1.4303,1.4303,1.3822,1.2845,1.3252,1.323,1.2824,1.2455,1.2629,1.3135,1.3135,1.3491,1.3983,1.3382,1.2806,1.2378,1.2915,1.3382,1.3709,1.3709,1.3954,1.4171,0.0,0.0,0.0,0.0,0.0,0.0,0.0,0.0,0.0,0.0,0.0,0.0,0.0,0.0,0.0,0.0101,0.0839,0.1374,0.1541,0.2342,0.3211,0.4082,0.4115,0.4519,0.5395,0.5395,0.5428,0.5524,0.5109,0.489,0.4824,0.5298,0.5559,0.5624,0.6312,0.6642,0.6696,0.6696,0.675,0.6858,0.7536,0.7672,0.7648,0.913,0.0,0.0,0.0,0.0,0.0,0.0,0.0,0.0,1.0593,1.0593,1.0624,1.0688,1.0713,1.0895,1.1772,0.0,0.0,0.0,0.0,0.0,0.0,0.0,0.0,0.0,0.0,1.6892,1.7363,1.7754,1.8008,1.8008,1.8008,1.8008,1.8008,1.8008,1.8008,1.8008,1.8008,1.8008,1.8008,1.8008,1.8008,1.8008,1.8008,1.7647,1.6784,1.674,1.6342,1.5471,1.5444,1.5419,1.5336,1.5336,1.4817,1.3851,1.4768,1.4706,1.379,1.2845,1.2445,1.2409,1.2409,1.2409,1.2409,1.2335,1.2305,1.2305,1.2372,1.2989,1.3854,1.3854,1.4422,1.5057,0.0,0.0,0.0,0.0,0.0,0.0,0.0,0.0,0.0,0.0,0.0,0.0,0.0,0.0,0.0,0.0973,0.1207,0.1909,0.3311,0.3613,0.4148,0.5057,0.509,0.5193,0.5395,0.5395,0.5719,0.6429,0.552,0.5284,0.5721,0.5744,0.597,0.6367,0.6534,0.6912,0.745,0.745,0.7803,0.8348,0.8507,0.8659,0.8868,0.9471,0.9781,0.0,0.0,0.0,0.0,0.0,0.0,0.0,1.0593,1.0593,1.0713,1.1351,1.1531,1.1865,0.0,1.3687,0.0,0.0,0.0,0.0,0.0,0.0,0.0,0.0,1.6934,1.7373,1.7793,1.7949,1.8008,1.8008,1.8008,1.8008,1.8008,1.8008,1.8008,1.8008,1.8008,1.8008,1.8008,1.8008,1.8008,1.8008,1.8008,1.7906,1.7716,1.7681,1.7598,1.7411,1.742,1.7044,1.6313,1.6313,1.5835,1.4894,1.5087,1.5101,1.4849,1.3863,1.3382,1.3382,1.3382,1.3382,1.3346,1.2592,1.2305,1.2372,1.3091,1.3991,1.4879,1.4879,1.5021,1.5163,0.0,0.0,0.0,0.0,0.0,0.0,0.0,0.0,0.0,0.0,0.0,0.0,0.0,0.0638,0.0,0.0,0.2342,0.2978,0.3949,0.4417,0.4891,0.5395,0.5395,0.5395,0.5395,0.5815,0.6235,0.6687,0.6561,0.6606,0.6808,0.6919,0.7107,0.7378,0.7561,0.7857,0.8235,0.8235,0.8454,0.8804,0.8804,0.8951,0.9244,0.9566,0.9866,1.0123,1.0486,0.0,0.0,0.0,0.0,0.0,0.0,0.0,1.0681,1.1108,1.1226,1.1562,0.0,0.0,0.0,0.0,0.0,0.0,0.0,0.0,0.0,0.0,1.708,1.751,1.793,1.8008,1.8008,1.8008,1.8008,1.8008,1.8008,1.8008,1.8008,1.8008,1.8008,1.8008,1.8008,1.8008,1.8008,1.8008,1.8008,1.8008,1.8008,1.8008,1.8008,1.8008,1.8008,1.7779,1.729,1.7256,1.6804,1.5864,1.6346,1.6306,1.5852,1.4857,1.4426,1.4414,1.4414,1.4414,1.4378,1.3875,1.3702,1.3738,1.4243,1.5021,1.586,1.586,1.586,1.586,0.0,0.0,0.0,0.0,0.0,0.0,0.0,0.0,0.0,0.0,0.0,0.0,0.0,0.1441,0.1909,0.0,0.0,0.0,0.4217,0.4957,0.5395,0.5395,0.5395,0.5458,0.562,0.633,0.685,0.7144,0.7864,0.8217,0.8198,0.823,0.8293,0.8385,0.8663,0.8804,0.8811,0.8936,0.891,0.8804,0.8936,0.9025,0.9178,0.9552,0.9833,1.0087,1.0466,1.0593,1.0593,1.0593,0.0,0.0,0.0,0.0,1.0593,1.0593,1.0713,1.1139,0.0,0.0,0.0,0.0,0.0,0.0,0.0,0.0,0.0,1.6697,1.7139,1.7598,1.7949,1.8008,1.8008,1.8008,1.8008,1.8008,1.8008,1.8008,1.8008,1.8008,1.8008,1.8008,1.8008,1.8008,1.8008,1.8008,1.8008,1.8008,1.8008,1.8008,1.8008,1.8008,1.8008,1.8008,1.8008,1.8008,1.7605,1.6856,1.7648,1.7569,1.6819,1.6044,1.5587,1.5446,1.5446,1.5446,1.5446,1.5269,1.5199,1.5199,1.5199,1.5755,1.6602,1.6602,1.6602,1.6636,0.0,0.0,0.0,0.0,0.0,0.0,0.0,0.0,0.0,0.0,0.0672,0.1173,0.1273,0.2043,0.2878,0.3747,0.3949,0.435,0.516,0.0,0.0,0.5395,0.5395,0.5752,0.6527,0.6654,0.7437,0.8941,0.9075,0.9506,1.0191,0.8944,0.8632,0.9059,0.8884,0.8804,0.8831,0.9413,0.9335,0.8857,0.9439,0.9337,0.8925,0.9472,0.9706,0.9813,1.0392,1.0593,1.0593,1.0593,1.0593,0.0,0.0,0.0,1.0593,1.0593,1.1076,1.1834,0.0,0.0,0.0,0.0,0.0,0.0,0.0,0.0,0.0,0.0,1.733,1.7939,1.7998,1.8008,1.8008,1.8008,1.8008,1.8008,1.8008,1.8008,1.8008,1.8008,1.8008,1.8008,1.8008,1.8008,1.8008,1.8008,1.8008,1.8008,1.8008,1.8008,1.8008,1.8008,1.8008,1.8008,1.8008,1.8008,1.793,1.7823,1.793,1.794,1.7794,1.7691,1.7182,1.6419,1.6419,1.6419,1.6358,1.5552,1.5199,1.5199,1.5199,1.5755,1.6602,1.6602,1.6602,1.6706,0.0,0.0,0.0,0.0,0.0,0.0,0.0,0.0,0.0,0.0,0.0,0.2277,0.2744,0.3178,0.3782,0.4722,0.4788,0.4957,0.5362,0.5395,0.5395,0.5395,0.5395,0.5815,0.6687,0.7177,0.8059,0.9306,0.9786,1.0206,1.0579,1.0208,0.982,0.9472,0.9583,0.9525,0.9413,1.009,1.0185,0.9909,0.984,0.9724,0.9654,0.969,0.9786,0.998,1.0439,0.0,0.0,1.0744,1.0895,1.1195,1.0744,0.0,0.0,0.0,1.1841,0.0,1.2917,0.0,0.0,0.0,0.0,0.0,0.0,0.0,0.0,1.6697,1.7379,1.8008,1.8008,1.8008,1.8008,1.8008,1.8008,1.8008,1.8008,1.8008,1.8008,1.8008,1.8008,1.8008,1.8008,1.8008,1.8008,1.8008,1.8008,1.8008,1.8008,1.8008,1.8008,1.8008,1.8008,1.8008,1.8008,1.8008,1.8008,1.8008,1.8008,1.8008,1.8008,1.8008,1.7759,1.7389,1.7389,1.7389,1.7354,1.6941,1.6759,1.6759,1.6759,1.701,1.7389,1.7389,1.7035,1.674,0.0,0.0,0.0,0.0,0.0,0.0,0.0,0.0,0.0,0.0,0.0,0.328,0.3915,0.0,0.0,0.0,0.5395,0.5395,0.5395,0.5395,0.5395,0.5395,0.562,0.6141,0.7013,0.7897,0.8748,0.9626,1.0269,1.0593,1.0618,1.116,1.0894,0.9977,1.0401,1.0413,1.009,1.0771,1.0965,1.0771,1.0569,1.0532,1.0589,1.0465,0.0,1.0783,1.1095,0.0,0.0,0.0,0.0,1.1989,1.1389,1.1624,0.0,0.0,0.0,0.0,0.0,0.0,0.0,0.0,0.0,0.0,0.0,0.0,1.6592,0.0,1.7291,1.7881,1.7988,1.8008,1.8008,1.8008,1.8008,1.8008,1.8008,1.8008,1.8008,1.8008,1.8008,1.8008,1.8008,1.8008,1.8008,1.8008,1.8008,1.8008,1.8008,1.8008,1.8008,1.8008,1.8008,1.8008,1.8008,1.8008,1.8008,1.8008,1.8008,1.8008,1.8008,1.8008,1.8008,1.8008,1.8008,1.8008,1.8008,1.8008,1.8008,1.8008,1.8008,1.8008,1.8008,1.8008,1.7579,1.707,0.0,0.0,0.0,0.0,0.0,0.0,0.0,0.0,0.0,0.0,0.0,0.3949,0.3982,0.4788,0.5359,0.5395,0.5395,0.5395,0.5395,0.5395,0.5395,0.5395,0.6203,0.0,0.7929,0.878,0.9658,1.053,1.0593,1.0593,1.0624,1.1423,1.1376,1.0664,1.1207,1.1186,1.0788,1.1466,1.1391,1.0897,1.1947,0.0,0.0,0.0,0.0,0.0,0.0,0.0,0.0,0.0,0.0,0.0,1.2887,1.2917,1.2948,0.0,0.0,0.0,0.0,0.0,0.0,0.0,0.0,0.0,0.0,0.0,0.0,0.0,1.71,1.7539,1.7939,1.8008,1.8008,1.8008,1.8008,1.8008,1.8008,1.8008,1.8008,1.8008,1.8008,1.8008,1.8008,1.8008,1.8008,1.8008,1.8008,1.8008,1.8008,1.8008,1.8008,1.8008,1.8008,1.8008,1.8008,1.8008,1.8008,1.8008,1.8008,1.8008,1.8008,1.8008,1.8008,1.8008,1.8008,1.8008,1.8008,1.8008,1.8008,1.8008,1.8008,1.8008,1.8008,1.8008,1.7974,1.794,0.0,0.0,0.0,0.0,0.0,0.0,0.0,0.0,0.0,0.0,0.0,0.0,0.0,0.5193,0.5395,0.5395,0.5395,0.5395,0.5395,0.5395,0.5653,0.6203,0.6527,0.7372,0.8812,0.9139,0.9722,1.0593,1.0593,1.0863,1.1382,1.2174,1.2557,1.2564,1.2439,1.2044,1.1491,1.2197,1.2378,0.0,0.0,0.0,0.0,0.0,0.0,0.0,0.0,0.0,0.0,0.0,0.0,0.0,1.3161,1.3334,1.3876,1.4392,0.0,0.0,0.0,0.0,0.0,0.0,0.0,0.0,0.0,1.5752,1.6134,1.63,1.6875,1.7432,1.7578,1.7832,1.8008,1.8008,1.8008,1.8008,1.8008,1.8008,1.8008,1.8008,1.8008,1.8008,1.8008,1.8496,1.8586,1.8042,1.8529,1.8596,1.8042,1.8008,1.8008,1.8008,1.8008,1.8008,1.8008,1.8008,1.8008,1.8008,1.8008,1.8008,1.8008,1.8008,1.8008,1.8008,1.8008,1.8008,1.8008,1.8008,1.8008,1.8008,1.8008,1.8008,1.8008,1.8008,1.8008,1.8008,0.0,0.0,0.0,0.0,0.0,0.3816,0.4384,0.4486,0.4686,0.5329,0.0,0.0,0.0,0.0,0.5395,0.5395,0.5395,0.5524,0.5815,0.5848,0.6239,0.7111,0.7405,0.8124,0.9274,0.9594,1.0015,1.0593,1.0863,1.1288,1.1834,1.2909,1.3466,1.358,1.3378,1.2953,1.2382,0.0,0.0,1.2905,0.0,0.0,1.3314,0.0,0.0,0.0,0.0,0.0,0.0,0.0,0.0,0.0,1.3965,1.4174,1.4717,1.5235,1.541,0.0,1.4756,0.0,0.0,0.0,0.0,0.0,0.0,0.0,1.5919,1.6065,1.6564,1.7063,1.7357,1.7607,1.7842,1.7988,1.8008,1.8008,1.8008,1.8008,1.8008,1.8008,1.8008,1.8008,1.8008,1.8787,1.9044,1.8496,1.9233,0.0,1.8911,1.861,1.8291,1.8008,1.8008,1.8008,1.8008,1.8008,1.8008,1.8008,1.8008,1.8008,1.8008,1.8008,1.8008,1.8008,1.8008,1.8008,1.8008,1.8008,1.8008,1.8008,1.8008,1.8008,1.8008,1.8008,1.8008,1.8008,0.0,0.0,0.4048,0.4048,0.4788,0.5395,0.5395,0.5395,0.5395,0.5395,0.0,0.0,0.0,0.0,0.0,0.5395,0.5395,0.5785,0.6654,0.6687,0.7111,0.7994,0.8844,0.9306,0.9338,1.0174,1.0624,1.0656,1.1406,1.1834,1.1888,1.3476,1.4006,1.3665,1.3982,1.389,1.3496,0.0,1.2905,1.2983,0.0,1.4094,1.4202,0.0,0.0,0.0,1.541,1.541,0.0,1.541,0.0,0.0,0.0,1.541,1.541,1.541,1.541,0.0,0.0,0.0,0.0,0.0,0.0,0.0,1.541,0.0,1.5527,1.5987,1.6085,1.6359,1.722,1.7363,1.7519,1.793,1.8008,1.8008,1.8008,1.8008,1.8008,1.8008,1.8008,1.8008,1.8042,1.8821,1.9332,1.9332,2.0139,2.0623,2.059,1.9795,1.8937,1.8061,1.8052,1.8018,1.8008,1.8008,1.8008,1.8008,1.8008,1.8008,1.8008,1.8008,1.8008,1.8008,1.8008,1.8008,1.8008,1.8008,1.8008,1.8008,1.8008,1.8008,1.8008,1.8008,1.8008,1.8008,0.0,0.4384,0.5024,0.5024,0.5226,0.5395,0.5395,0.5395,0.5395,0.0,0.0,0.0,0.5395,0.5395,0.5395,0.5395,0.5395,0.5785,0.6654,0.6687,0.7372,0.8877,0.9172,0.9594,1.0238,1.0466,1.0895,1.1469,1.1679,1.2412,1.3537,1.3995,1.4455,1.4888,1.4673,1.4365,1.389,1.3184,0.0,1.2954,1.3467,1.3831,0.0,0.0,0.0,0.0,0.0,1.541,1.541,0.0,1.541,1.541,0.0,0.0,1.541,1.541,0.0,0.0,1.541,0.0,0.0,0.0,0.0,0.0,1.541,1.541,1.5449,1.5566,1.587,1.6163,1.6418,1.6985,1.7422,1.7539,1.7812,1.8008,1.8008,1.8008,1.8008,1.8008,1.8008,1.8236,1.8877,1.9716,2.0236,0.0,2.1037,2.127,2.0623,2.0366,1.9831,1.8981,1.8937,1.8652,1.8008,1.8008,1.8008,1.8008,1.8008,1.8008,1.8008,1.8008,1.8008,1.8008,1.8008,1.8008,1.8008,1.8008,1.8008,1.8008,1.8008,1.8008,1.8008,1.8008,1.8008,1.8008,0.4519,0.5024,0.5395,0.5395,0.5395,0.5395,0.5395,0.5395,0.5395,0.0,0.0,0.0,0.5914,0.5943,0.6075,0.6437,0.647,0.6859,0.7735,0.7795,0.8382,0.9786,0.9849,1.0079,1.0593,1.0593,1.0982,1.1803,1.2143,1.2962,1.4213,1.454,1.4962,1.5391,1.4971,1.4832,1.4821,0.0,0.0,0.0,1.3932,0.0,0.0,1.525,1.5642,0.0,0.0,0.0,1.5806,1.5497,1.541,0.0,0.0,0.0,0.0,0.0,0.0,0.0,0.0,0.0,0.0,0.0,0.0,0.0,1.541,1.541,1.541,0.0,1.5615,1.588,1.6056,1.6515,1.6985,1.7324,1.7588,1.7812,1.7988,1.8008,1.8008,1.8008,1.8008,1.8327,1.921,2.0074,2.0751,2.1101,2.1939,2.2034,2.1191,2.1154,2.0749,1.989,1.9825,1.9411,1.8554,1.8554,1.8378,1.8008,1.8008,1.8008,1.8008,1.8008,1.8008,1.8008,1.8008,1.8008,1.8008,1.8008,1.8008,1.8008,1.8008,1.8008,1.8008,1.8008,1.8008,1.8008,0.0,0.5395,0.5395,0.5395,0.5395,0.5395,0.5395,0.5395,0.5428,0.0,0.5624,0.598,0.6752,0.685,0.7144,0.7929,0.7994,0.8382,0.9236,0.9306,0.969,1.0561,1.0593,1.0593,1.0593,1.0593,1.1045,1.1919,1.2634,1.3455,1.4362,1.5079,1.541,1.5391,1.5019,1.525,1.5885,1.5542,0.0,1.4251,1.4976,1.5269,0.0,0.0,1.6581,1.6624,1.6624,1.6567,1.6407,1.5642,1.541,0.0,0.0,0.0,0.0,0.0,1.541,0.0,0.0,0.0,0.0,0.0,1.541,0.0,1.541,1.541,1.541,1.541,1.541,1.5527,1.5948,1.6056,1.6349,1.7142,1.7357,1.7529,1.7949,1.8008,1.8008,1.8008,1.8008,1.8327,1.921,2.0009,2.0846,2.1815,2.2641,2.2802,2.2055,2.2043,2.1656,2.0763,2.0737,2.0341,1.9437,1.9422,1.9012,1.8134,1.8134,1.8076,1.8008,1.8008,1.8008,1.8008,1.8008,1.8008,1.8008,1.8008,1.8008,1.8008,1.8008,1.8008,1.8008,1.8008,1.8008,1.8008,0.5362,0.5395,0.5395,0.5395,0.5395,0.5395,0.5395,0.5395,0.5653,0.6367,0.7051,0.7572,0.773,0.773,0.7827,0.7994,0.7994,0.8382,0.9236,0.9306,0.969,1.0561,1.0593,1.0593,1.0593,1.0593,1.1296,1.2765,1.2917,1.3726,1.5177,1.5323,1.541,1.541,1.5322,1.5503,1.5933,0.0,0.0,1.6594,1.626,0.0,1.6635,1.6824,1.7108,1.7385,1.7385,1.7006,1.6407,1.5642,1.541,1.541,0.0,0.0,0.0,1.541,0.0,0.0,0.0,0.0,0.0,0.0,0.0,0.0,1.541,1.541,1.541,0.0,1.541,1.5439,1.5527,1.586,1.6153,1.632,1.6946,1.7529,1.7949,1.8008,1.8008,1.8008,1.8008,1.8327,1.921,1.9464,2.0204,2.1784,2.2641,2.301,2.2857,2.2857,2.2498,2.1669,2.1641,2.1225,2.0369,2.0349,1.99,1.9044,1.9044,1.8687,1.8008,1.8008,1.8008,1.8008,1.8008,1.8008,1.8008,1.8008,1.8008,1.8008,1.8008,1.8008,1.8008,1.8008,1.8008,1.8008,0.5395,0.5395,0.5395,0.5395,0.5752,0.6042,0.6042,0.6404,0.6859,0.7274,0.773,0.8156,0.8613,0.8646,0.8812,0.9256,0.9288,0.9486,0.9913,0.9945,1.0142,1.0593,1.0593,1.0593,1.0593,1.0982,1.1779,1.3009,1.3394,1.4213,1.541,1.541,1.541,1.541,1.5777,1.6233,1.6803,0.0,1.805,1.846,1.7542,0.0,1.7476,1.7757,1.7959,1.814,1.814,1.744,1.6436,1.6065,1.569,0.0,1.541,1.541,1.541,0.0,1.541,1.541,0.0,0.0,0.0,1.541,0.0,0.0,0.0,1.541,1.541,1.541,1.541,1.541,1.541,1.5586,1.584,1.6056,1.6467,1.6875,1.7314,1.7744,1.8008,1.8008,1.8008,1.8327,1.921,1.9694,2.0655,2.2384,2.2884,2.3108,2.3108,2.3108,2.2912,2.251,2.2498,2.2097,2.1272,2.1253,2.0796,1.9944,1.9497,1.9077,1.862,1.8202,1.8008,1.8008,1.8008,1.8008,1.8008,1.8008,1.8008,1.8008,1.8008,1.8008,1.8008,1.8008,1.8008,1.8008,0.5428,0.5524,0.5653,0.5653,0.6367,0.6948,0.6948,0.7535,0.8059,0.8221,0.8382,0.8775,0.9466,0.9684,1.0059,1.0769,1.0958,1.0989,1.0832,1.0832,1.0776,1.0624,1.0744,1.0832,1.0832,1.1624,1.242,1.3213,1.3876,1.4599,1.541,1.541,1.5468,1.5642,1.6236,1.6978,0.0,0.0,0.0,1.9709,0.0,1.8276,1.8312,1.8744,1.89,1.8874,1.8741,1.7934,1.6866,1.6595,1.6197,1.5767,1.5497,1.5575,0.0,0.0,0.0,0.0,0.0,0.0,0.0,0.0,0.0,1.541,0.0,0.0,0.0,0.0,0.0,0.0,0.0,0.0,0.0,0.0,0.0,0.0,0.0,1.7275,0.0,1.7881,1.7891,1.818,1.8967,1.9977,2.1227,2.2763,2.3017,2.3108,2.3108,2.3108,2.3108,2.3108,2.3108,2.2802,2.2152,2.212,2.1698,2.0846,2.0139,1.9716,1.9529,1.8821,1.8395,1.8236,1.8236,1.8168,1.8008,1.8008,1.8008,1.8008,1.8008,1.8008,1.8008,1.8008,1.8008,1.8008,0.5557,0.6009,0.656,0.656,0.7274,0.7859,0.7859,0.7924,0.8291,0.9043,0.9817,1.0333,1.0428,1.1101,0.0,0.0,1.2336,1.242,1.171,1.1648,1.1351,1.0618,1.1288,1.1648,1.1648,1.2451,1.3274,1.4055,1.4154,1.4599,1.541,1.541,1.5748,1.6379,1.6454,0.0,0.0,0.0,1.9123,0.0,1.9646,1.957,0.0,1.9644,1.9669,1.9579,1.8927,1.8581,1.8259,0.0,1.6866,1.7135,0.0,1.6301,1.7079,1.5767,0.0,0.0,0.0,0.0,0.0,0.0,1.541,0.0,0.0,0.0,1.541,1.541,0.0,0.0,0.0,0.0,0.0,0.0,0.0,0.0,1.6163,1.6562,1.6989,1.7412,1.7484,1.7664,1.8104,1.9628,2.1005,2.197,2.2702,2.3108,2.3108,2.3108,2.3108,2.3108,2.3108,2.3053,2.2955,2.2975,2.2549,2.1753,2.1647,2.1195,2.0462,2.0365,1.9879,1.9144,1.9144,1.8721,1.8008,1.8008,1.8008,1.8008,1.8008,1.8008,1.8008,1.8008,1.8008,1.8008,0.6334,0.6854,0.7437,0.7437,0.8188,0.8748,0.8748,0.9198,0.9646,1.0009,1.0364,1.0776,0.0,0.0,0.0,0.0,0.0,1.2856,0.0,0.0,1.2366,1.1996,1.2336,1.2512,1.2512,1.3274,1.3846,1.4213,1.4658,1.5079,1.541,1.5835,1.6208,1.6539,1.7385,0.0,1.8741,0.0,1.9527,0.0,0.0,0.0,0.0,1.9798,1.9798,1.9747,1.9449,1.9071,1.8608,0.0,1.7715,0.0,0.0,0.0,0.0,1.6715,0.0,0.0,0.0,0.0,0.0,0.0,0.0,0.0,1.5497,0.0,1.541,0.0,0.0,0.0,0.0,0.0,0.0,0.0,1.5566,0.0,0.0,0.0,1.6221,0.0,0.0,0.0,1.8976,1.9308,2.0308,2.2451,2.2476,2.2598,2.3078,2.3108,2.3108,2.3108,2.3108,2.3108,2.3108,2.3108,2.2914,2.2598,2.2125,2.1721,2.1333,2.0301,1.9661,1.9266,1.8754,1.8337,1.8008,1.8008,1.8008,1.8008,1.8008,1.8008,1.8008,1.8008,1.8008,1.8008,0.7535,0.7929,0.8355,0.8355,0.9069,0.9658,0.9658,1.0383,1.0926,1.0926,1.1115,0.0,1.2081,1.232,0.0,0.0,1.3515,1.3545,0.0,0.0,1.3213,1.3009,1.3213,0.0,1.3342,1.4115,1.454,1.454,1.5108,1.541,1.541,1.6151,1.6595,1.6866,0.0,1.8821,1.9044,0.0,1.9798,1.9798,1.9798,1.9798,1.9798,1.9798,1.9798,1.9798,1.9798,1.9449,1.8953,1.8768,1.8474,0.0,1.7743,1.7495,1.744,0.0,0.0,0.0,1.6698,0.0,0.0,0.0,0.0,0.0,0.0,0.0,0.0,0.0,0.0,0.0,0.0,0.0,0.0,0.0,0.0,1.541,0.0,1.541,0.0,0.0,0.0,0.0,0.0,1.9001,1.9809,2.24,2.2226,2.2317,2.3065,2.3108,2.3108,2.3108,2.3108,2.3108,2.3108,2.3108,2.3108,2.3078,2.2506,2.223,2.2187,2.093,2.0225,1.9944,1.9077,1.8596,1.8337,1.811,1.8008,1.8008,1.8008,1.8008,1.8008,1.8008,1.8008,1.8008,0.921,0.9236,0.9274,0.9274,0.9977,1.0561,1.0561,1.1257,1.1772,0.0,0.0,0.0,0.0,0.0,0.0,0.0,0.0,1.4991,1.4204,0.0,1.3816,0.0,0.0,1.4154,0.0,1.4962,1.5352,1.5352,1.5381,1.541,1.541,1.6151,1.6866,1.7605,1.8367,1.9097,1.9773,1.9798,1.9798,1.9798,1.9798,1.9798,1.9798,0.0,1.9798,1.9798,1.9798,0.0,0.0,1.8927,1.915,0.0,0.0,0.0,0.0,0.0,0.0,0.0,0.0,0.0,0.0,1.6464,0.0,0.0,0.0,0.0,1.541,0.0,0.0,0.0,0.0,0.0,0.0,0.0,0.0,0.0,0.0,0.0,0.0,0.0,0.0,0.0,0.0,1.8684,1.9696,0.0,2.1913,2.2514,2.3083,2.3108,2.3108,2.3108,2.3108,2.3108,2.3108,2.3108,2.3108,2.3108,2.3078,2.3078,2.3078,2.3005,2.2537,2.1784,2.089,2.0042,1.9199,1.8337,1.8008,1.8008,1.8008,1.8008,1.8008,1.8008,1.8008,1.8008,1.0174,1.0174,1.0174,0.0,0.0,1.0776,1.132,1.1624,0.0,0.0,1.2826,0.0,0.0,1.4025,1.4421,0.0,0.0,1.5294,1.5021,1.4991,0.0,0.0,0.0,1.4991,0.0,0.0,1.541,1.541,1.541,1.5642,1.6151,1.6894,1.7633,1.8367,0.0,1.9553,0.0,0.0,0.0,0.0,0.0,1.9798,1.9798,0.0,1.9798,1.9798,1.9798,1.9798,0.0,1.9501,1.9579,1.9784,1.9668,1.9643,1.9743,2.0067,1.966,1.9137,0.0,0.0,1.8965,1.8485,0.0,0.0,0.0,0.0,0.0,0.0,0.0,0.0,0.0,0.0,0.0,0.0,0.0,0.0,0.0,0.0,0.0,0.0,0.0,0.0,0.0,0.0,0.0,0.0,2.1157,0.0,2.254,2.2912,2.3108,2.3108,2.3108,2.3108,2.3108,2.3108,2.3108,2.3108,2.3108,2.3108,2.3065,2.2537,2.2168,2.1815,2.0365,1.9562,1.9243,1.8361,1.8008,1.8008,1.8008,1.8008,1.8008,1.8008,1.8008,1.8008,1.0593,1.0593,1.0593,0.0,0.0,0.0,0.0,0.0,0.0,0.0,1.3666,0.0,1.4569,0.0,1.4844,0.0,1.541,1.541,1.541,1.541,0.0,1.541,1.541,0.0,0.0,0.0,0.0,0.0,1.5661,1.6036,1.651,1.7523,1.8248,1.8741,0.0,1.9798,1.9798,1.9798,1.9798,0.0,0.0,2.0156,0.0,0.0,2.0333,2.0169,0.0,2.0462,2.045,2.045,2.0409,2.0464,2.0867,2.0667,2.0452,2.1269,2.0836,2.0192,2.0665,2.0595,0.0,1.9814,1.9587,0.0,1.8884,0.0,1.803,0.0,0.0,0.0,0.0,0.0,0.0,0.0,0.0,0.0,0.0,1.541,0.0,0.0,0.0,0.0,0.0,0.0,0.0,0.0,0.0,0.0,0.0,2.2637,2.29,2.3095,2.3108,2.3108,2.3108,2.3108,2.3108,2.3108,2.3108,2.3108,2.3065,2.2567,2.2322,2.2261,2.0846,2.0236,2.0171,1.9266,1.8754,1.8462,1.8462,1.8269,1.8008,1.8008,1.8008,1.8008,1.0593,1.0618,1.0688,0.0,1.132,0.0,0.0,0.0,1.4204,0.0,1.4932,1.541,1.541,1.541,1.541,1.541,1.541,1.541,1.541,1.541,0.0,0.0,1.5439,1.5468,1.5497,0.0,0.0,0.0,0.0,0.0,1.6652,1.8031,1.8715,1.8794,1.9475,0.0,1.9798,1.9798,1.9824,1.9901,2.0547,2.082,2.0919,2.1561,2.1431,2.1008,2.1575,2.17,2.1666,2.1693,2.1638,2.1577,2.1602,2.1587,2.1531,2.1556,2.1568,2.1568,2.1568,2.1064,2.0536,2.0536,1.9989,0.0,0.0,0.0,1.9265,0.0,0.0,0.0,0.0,0.0,0.0,0.0,0.0,0.0,0.0,0.0,0.0,0.0,0.0,0.0,0.0,0.0,0.0,0.0,0.0,0.0,0.0,2.2297,2.2552,2.3065,2.3108,2.3108,2.3108,2.3108,2.3108,2.3108,2.3108,2.3108,2.3108,2.3108,2.3108,2.3078,2.2261,2.1908,2.1815,2.0942,2.0107,1.9365,1.9365,1.8854,1.81,1.8076,1.8076,1.8076,1.0593,1.1076,1.1686,0.0,1.205,1.2258,0.0,0.0,0.0,0.0,1.5255,1.541,1.541,1.541,1.541,1.541,1.541,0.0,0.0,0.0,0.0,1.6197,1.6208,1.6472,1.7024,1.651,1.6472,1.7052,0.0,0.0,1.814,1.8528,1.8992,0.0,0.0,0.0,1.9798,1.9798,2.0105,2.0547,2.0721,2.1077,2.1599,0.0,2.3089,2.2912,2.2585,2.2438,2.2494,2.2983,2.2789,2.2387,2.2791,2.2555,2.2184,2.2556,2.2681,2.2681,2.2681,2.2563,2.2402,2.2402,2.1975,2.1521,0.0,0.0,0.0,0.0,0.0,0.0,0.0,0.0,0.0,0.0,0.0,0.0,0.0,0.0,0.0,1.541,0.0,0.0,0.0,0.0,0.0,0.0,0.0,0.0,0.0,0.0,2.2552,2.3065,2.3108,2.3108,2.3108,2.3108,2.3108,2.3108,2.3108,2.3108,2.3108,2.3108,2.3108,2.3078,2.2261,2.1908,2.1815,2.0942,2.0462,2.0268,2.0268,2.0139,1.9846,1.921,1.8977,1.9044,1.1045,1.1779,0.0,1.3394,0.0,0.0,1.454,1.4717,0.0,1.5352,1.541,0.0,1.5835,1.5892,1.5997,1.633,1.6358,0.0,1.6358,0.0,0.0,1.695,1.6978,1.7174,1.7578,1.7202,0.0,1.7605,0.0,0.0,1.8715,0.0,0.0,0.0,0.0,1.9798,1.9798,1.9798,2.0207,2.082,2.1088,2.1746,0.0,2.3725,2.4279,2.4511,2.4438,2.4205,2.3974,2.4352,2.418,2.3892,2.4189,2.4003,2.3701,2.4029,2.3884,2.3619,2.3619,2.3365,2.3108,2.3108,2.2869,2.2644,2.2644,2.2406,2.2018,0.0,2.0974,2.0428,0.0,0.0,0.0,0.0,0.0,0.0,0.0,0.0,0.0,0.0,1.541,0.0,0.0,0.0,0.0,0.0,0.0,0.0,0.0,0.0,2.2305,2.3083,2.3108,2.3108,2.3108,2.3108,2.3108,2.3108,2.3108,2.3108,2.3108,2.3108,2.3108,2.3078,2.2628,2.2414,2.2384,2.1896,2.1491,2.1132,2.0751,2.059,2.059,2.0462,2.0204,1.9944,1.1834,1.2604,0.0,0.0,0.0,0.0,0.0,1.5555,0.0,1.5555,0.0,1.5921,1.6567,1.6652,1.6894,1.755,0.0,1.7605,1.7605,1.7605,1.7633,1.7743,1.7743,1.7797,1.7907,1.7797,1.7797,0.0,0.0,0.0,0.0,0.0,0.0,0.0,0.0,0.0,0.0,1.9927,2.0371,2.1091,2.1712,2.2715,2.3885,2.4601,2.5217,2.5824,2.6482,2.6263,2.5673,2.5745,2.568,2.5536,2.5536,2.5481,2.5398,2.5398,2.4951,2.4423,2.4423,2.3855,2.3258,2.3258,2.3198,2.3108,2.3108,2.3108,2.297,2.2493,2.1898,2.1461,2.1455,0.0,0.0,0.0,0.0,0.0,0.0,0.0,0.0,0.0,0.0,0.0,0.0,0.0,0.0,0.0,0.0,0.0,0.0,0.0,2.1995,2.307,2.3108,2.3108,2.3108,2.3108,2.3108,2.3108,2.3108,2.3108,2.3108,2.3108,2.3108,2.3108,2.3108,2.3108,2.3108,2.3108,2.2702,2.197,2.1227,2.0942,2.1005,2.1784,2.1585,2.0942,1.2757,0.0,0.0,0.0,0.0,1.614,1.6293,1.6322,1.6322,1.6322,1.6838,1.7274,1.7385,1.7413,1.7468,1.7578,1.7605,0.0,0.0,0.0,0.0,1.8474,1.8501,1.8794,1.9397,1.8821,1.8821,0.0,0.0,0.0,1.9618,0.0,0.0,0.0,0.0,0.0,2.0622,2.0622,0.0,2.2402,2.3092,2.3778,2.4573,2.5777,2.6318,2.6497,2.718,2.7001,2.6475,2.7051,2.6828,2.631,2.631,2.5892,2.5398,2.5398,2.5315,2.5203,2.5203,2.4652,2.4089,2.4089,2.3603,2.3108,2.3108,2.3108,2.3083,2.2982,2.2867,2.2454,2.1444,0.0,0.0,0.0,0.0,0.0,0.0,0.0,0.0,0.0,0.0,1.6322,0.0,0.0,0.0,0.0,0.0,0.0,0.0,0.0,2.1995,0.0,2.3108,2.3108,0.0,0.0,2.3108,2.3108,2.3108,2.3108,2.3108,2.3108,2.3108,2.3108,2.3108,2.3108,2.3108,2.3108,2.3005,2.2884,2.272,2.2659,2.2689,2.2823,2.2781,2.2659,0.0,0.0,0.0,0.0,0.0,0.0,0.0,1.7385,1.7495,1.7118,1.7385,1.7743,1.8124,1.8178,1.8328,1.8715,1.8741,1.8741,1.8741,1.8741,1.89,1.9267,1.9254,1.9449,1.9798,1.9449,1.9449,1.9798,0.0,0.0,1.9798,0.0,0.0,0.0,0.0,2.0497,0.0,0.0,0.0,2.3236,2.3562,2.4491,2.5719,2.6348,2.6821,2.7165,2.748,2.739,2.7165,2.748,2.7357,2.706,2.706,2.6837,2.6534,2.6534,2.6269,2.5987,2.5987,2.5425,2.4794,2.4408,2.4308,2.4179,2.3826,2.4018,2.4179,2.3796,2.3708,2.3204,2.1517,2.05,0.0,0.0,0.0,0.0,0.0,0.0,1.7062,0.0,0.0,0.0,0.0,0.0,0.0,0.0,0.0,1.9931,2.143,0.0,2.1977,0.0,0.0,0.0,2.3108,0.0,2.3108,2.3108,2.3108,2.3108,2.3108,2.3108,2.3108,2.3108,2.3108,2.3108,2.3108,2.3108,2.3108,2.3108,2.3108,2.3108,2.3108,2.3108,2.3108,2.3108,0.0,1.5187,0.0,0.0,1.6866,1.7174,1.7743,1.8463,1.8661,1.7934,1.7977,1.8286,1.8874,1.8927,1.9176,1.9747,1.9798,1.9798,1.9798,1.9798,1.9798,1.9798,1.9798,1.9798,1.9798,1.9798,1.9798,0.0,0.0,0.0,0.0,0.0,0.0,0.0,0.0,0.0,0.0,0.0,2.2677,2.3894,2.4063,2.5109,2.6626,2.6752,2.7151,2.76,2.76,2.76,2.76,2.76,2.76,2.76,2.76,2.76,2.76,2.76,2.7203,2.6747,2.6747,2.6203,2.5481,2.4894,2.5091,2.5259,2.4681,2.4979,2.5231,2.4652,2.4408,2.3758,2.1932,2.1505,0.0,0.0,0.0,0.0,0.0,0.0,0.0,0.0,0.0,0.0,1.7813,0.0,0.0,0.0,0.0,2.03,2.143,2.1508,2.2002,0.0,0.0,2.3108,2.3108,0.0,2.3108,2.3108,2.3108,2.3108,2.3108,2.3108,2.3108,2.3108,2.3108,2.3108,2.3108,2.3108,2.3108,2.3108,2.3108,2.3108,2.3108,2.3108,2.3108,2.3108,0.0,0.0,0.0,0.0,0.0,1.8528,1.8581,1.9228,1.9423,1.8688,1.9176,1.9605,1.9695,1.9695,1.9721,1.9798,1.9798,1.9798,1.9798,1.9798,1.9798,1.9798,1.9798,1.9798,1.9798,1.9798,1.9798,0.0,0.0,1.9798,0.0,0.0,0.0,0.0,0.0,0.0,0.0,2.2581,2.3358,2.4559,2.5178,2.5896,2.6686,2.727,2.754,2.76,2.76,2.76,2.76,2.76,2.76,2.76,2.76,2.76,2.76,2.76,2.7534,2.7484,2.7484,2.6956,2.6377,2.631,2.5837,2.537,2.5315,2.5342,2.537,2.5315,2.4766,2.4018,2.3092,2.2518,2.2126,0.0,0.0,0.0,0.0,0.0,1.8608,1.8608,0.0,0.0,1.8608,1.8661,0.0,0.0,1.9747,2.03,2.143,2.1508,2.2002,2.3083,2.3108,2.3108,2.3108,2.3108,2.3108,2.3108,2.3108,2.3108,2.3108,2.3108,2.3108,2.3108,2.3108,2.3108,2.3108,2.3108,2.3108,2.3108,2.3108,2.3108,2.3108,2.3108,2.3108,2.3108,0.0,0.0,0.0,0.0,0.0,0.0,0.0,2.0154,2.0359,2.0372,2.0028,1.9798,1.9798,1.9798,1.9798,1.9798,1.9798,1.9798,1.9798,1.9798,1.9798,1.9798,1.9798,1.9798,1.9798,1.9798,1.9798,0.0,0.0,0.0,0.0,0.0,0.0,0.0,0.0,2.2221,2.2746,2.3515,2.4371,2.5247,2.5929,2.6587,2.7225,2.7495,2.76,2.76,2.76,2.76,2.76,2.76,2.76,2.76,2.76,2.76,2.76,2.76,2.76,2.76,2.76,2.7382,2.7034,2.6616,2.6602,2.6587,2.6176,2.6416,2.6587,2.6149,2.5119,2.4205,2.3884,2.3234,2.2669,2.2343,0.0,0.0,0.0,0.0,0.0,1.9408,0.0,1.9371,0.0,1.9371,0.0,0.0,0.0,2.0691,2.1443,2.1816,2.2314,2.3083,0.0,2.3108,2.3108,2.3108,2.3108,2.3108,2.3108,2.3108,2.3108,2.3108,2.3108,2.3108,2.3108,2.3108,2.3108,2.3108,2.3108,2.3108,2.3108,2.3108,2.3108,2.3108,2.3108,2.3108,1.81,0.0,1.8483,0.0,1.9516,1.9839,2.0786,2.093,2.1069,2.1443,2.079,2.03,2.03,2.03,2.0238,2.0075,2.0049,1.9987,1.9811,1.9798,1.9798,1.9798,1.9798,0.0,1.9798,1.9798,1.9798,1.9798,1.9798,0.0,0.0,0.0,0.0,0.0,2.2498,2.29,2.3322,2.4215,2.5098,2.5944,2.6408,2.7001,2.76,2.76,2.76,2.76,2.76,2.76,2.76,2.76,2.76,2.76,2.76,2.76,2.76,2.76,2.76,2.76,2.76,2.76,2.7473,2.6956,2.7214,2.7458,2.693,2.7229,2.7382,2.6642,2.5673,2.4879,2.4652,2.4163,2.3566,2.2978,0.0,0.0,0.0,2.0792,0.0,1.9874,1.9798,1.9798,1.9798,1.9798,0.0,0.0,0.0,2.1106,2.1496,2.2005,2.2547,0.0,0.0,0.0,2.3108,2.3108,2.3108,2.3108,2.3108,2.3108,2.3108,2.3108,2.3108,2.3108,2.3108,2.3108,2.3108,2.3108,2.3108,2.3108,2.3108,2.3108,2.3108,2.3108,2.3108,2.3108,1.9333,1.9579,1.9968,2.1256,2.1468,2.1468,2.1481,2.1481,2.1481,2.1493,2.1481,2.1468,2.1468,2.1468,2.1282,2.0729,2.0679,2.044,1.9836,1.9798,1.9798,0.0,0.0,1.9798,1.9798,1.9798,1.9798,1.9798,0.0,0.0,2.0795,0.0,2.2053,2.2694,2.2694,2.3411,2.4567,2.4605,2.5367,2.6572,2.6587,2.7001,2.76,2.76,2.76,2.76,2.76,2.76,2.76,2.76,2.76,2.76,2.76,2.76,2.76,2.76,2.76,2.76,2.76,2.76,2.76,2.76,2.76,2.76,2.76,2.76,2.7382,2.6642,2.6484,2.6256,2.5508,2.537,2.5119,2.4394,0.0,0.0,0.0,2.1031,0.0,1.9874,1.9798,1.9798,1.9798,1.9798,0.0,0.0,0.0,0.0,0.0,0.0,0.0,2.3083,2.3108,0.0,2.3108,2.3108,2.3108,2.3108,2.3108,2.3108,2.3108,2.3108,2.3108,2.3108,2.3108,2.3108,2.3108,2.3108,2.3108,2.3108,2.3108,2.3108,2.3108,2.3108,2.3108,2.3108,2.0807,2.0912,2.1017,2.1428,2.1493,2.1606,2.1995,2.2046,2.2184,2.2531,2.2581,2.2581,2.2581,2.1945,2.1446,0.0,2.0905,2.0616,0.0,2.0024,1.9798,1.9798,1.9798,1.9798,1.9798,1.9798,1.9798,1.9798,0.0,0.0,0.0,2.2291,2.2725,2.3326,2.3799,2.4215,2.4664,2.5585,2.6213,2.6632,2.7106,2.7405,2.76,2.76,2.76,2.76,2.76,2.76,2.76,2.76,2.76,2.76,2.76,2.76,2.76,2.76,2.76,2.76,2.76,2.76,2.76,2.76,2.76,2.76,2.76,2.76,2.7534,2.7306,2.6852,2.6431,2.6203,2.5728,2.5315,2.5091,2.49,0.0,2.2975,0.0,2.1599,2.0531,2.0037,1.9962,2.0377,2.0415,0.0,0.0,0.0,0.0,0.0,0.0,0.0,0.0,2.3108,0.0,2.3108,2.3108,2.3108,2.3108,2.366,2.391,2.3884,2.3335,2.3108,2.3108,2.3108,2.3108,2.3108,2.3108,2.3108,2.3108,2.3108,2.3108,2.3108,2.3108,2.3108,2.3108,2.1757,2.1794,2.1857,2.2071,2.2108,2.2221,2.2543,2.2594,2.2719,2.3058,2.3108,2.3108,2.3108,2.2493,0.0,2.182,2.1481,2.1219,2.1018,2.0465,2.0125,2.0125,1.9911,1.9927,2.0182,2.0182,0.0,2.0521,2.1186,2.1917,2.2709,2.3182,2.3614,2.4014,2.4679,2.5113,2.542,2.6243,2.6761,2.7016,2.7435,2.76,2.76,2.76,2.76,2.76,2.76,2.76,2.76,2.76,2.76,2.76,2.76,2.76,2.76,2.76,2.76,2.76,2.76,2.76,2.76,2.76,2.76,2.76,2.76,2.76,2.76,2.76,2.7229,2.6904,2.6904,2.6549,2.6135,2.5864,2.581,2.5341,2.4,0.0,2.2522,0.0,0.0,2.0577,0.0,2.1006,2.1232,0.0,0.0,0.0,0.0,0.0,2.3108,2.3108,2.3108,2.3261,2.3568,2.3534,2.3827,2.4368,2.509,2.5273,2.4955,2.4227,2.373,2.3421,2.3195,2.3108,2.3108,2.3108,2.3108,2.3108,2.3108,2.3108,2.3108,2.3108,2.3108,2.3108,2.2272,2.2372,2.2506,2.3007,2.3108,2.3108,2.3108,2.3108,2.3108,2.3108,2.3138,2.3185,2.3185,2.3185,2.3014,2.2555,0.0,0.0,2.1581,2.1056,2.0781,2.0822,2.0279,2.0322,2.0989,2.0989,2.1307,2.1906,2.2534,2.2861,2.2944,2.4118,2.4679,2.4709,2.5367,2.6019,2.6587,2.6632,2.7031,2.76,2.76,2.76,2.76,2.76,2.76,2.76,2.76,2.76,2.76,2.76,2.76,2.76,2.76,2.76,2.76,2.76,2.76,2.76,2.76,2.76,2.76,2.76,2.76,2.76,2.76,2.76,2.76,2.76,2.76,2.76,2.76,2.76,2.7382,2.6695,2.659,2.6122,2.481,2.4014,2.3336,2.2804,0.0,0.0,2.1698,2.1643,2.1854,0.0,0.0,0.0,0.0,0.0,2.3163,2.3163,2.3163,2.3598,2.4442,2.4448,2.5167,2.6532,2.7043,2.6927,2.6228,2.5565,2.4871,2.411,2.3477,2.3195,2.3158,2.3158,2.3145,2.3108,2.3108,2.3108,2.3108,2.3108,2.3108,2.3108,0.0,0.0,2.2945,2.3083,2.3108,2.3108,2.3108,2.3108,2.3108,2.3108,2.3619,2.4031,2.4031,2.4031,2.4197,2.4635,2.3218,2.2259,2.2121,2.1606,2.1555,2.2139,2.1995,2.2285,2.2993,2.3018,2.332,2.3999,2.4158,2.446,2.4913,2.5231,2.5352,2.5382,2.6063,2.6437,2.6617,2.7151,2.745,2.76,2.76,2.76,2.76,2.76,2.76,2.76,2.76,2.76,2.76,2.76,2.76,2.76,2.76,2.76,2.76,2.76,2.76,2.76,2.76,2.76,2.76,2.76,2.76,2.76,2.76,2.76,2.76,2.76,2.76,2.76,2.76,2.76,2.7534,2.7382,2.7331,2.7027,2.6162,2.5481,2.4826,0.0,2.3523,2.3335,2.3743,2.3281,2.3182,0.0,0.0,2.297,2.3095,2.3679,2.403,2.403,2.403,2.4609,2.5902,2.5909,2.6574,2.7926,2.7506,2.7505,2.781,2.6505,2.5766,2.5563,2.4754,2.4161,2.3791,2.3791,2.354,2.3108,2.3108,2.3108,2.3108,2.3108,2.3108,2.3108,2.3108,2.3108,2.3108,2.3108,2.3108,2.3108,2.3108,2.3108,2.3108,2.3108,2.3484,2.3884,2.4263,2.4292,2.4595,2.5342,2.4074,2.336,2.369,2.3194,2.3043,2.3433,2.3229,2.3418,2.4145,2.417,2.4482,2.512,2.512,2.5278,2.5615,2.5914,2.6063,2.6093,2.6752,2.7061,2.7091,2.745,2.76,2.76,2.76,2.76,2.76,2.76,2.76,2.76,2.76,2.76,2.76,2.76,2.76,2.76,2.76,2.76,2.76,2.76,2.76,2.76,2.76,2.76,2.76,2.76,2.76,2.76,2.76,2.76,2.76,2.76,2.76,2.76,2.76,2.76,2.76,2.76,2.76,2.7458,2.706,2.6428,2.5859,2.545,2.4864,2.4581,2.4872,2.4559,2.432,2.4288,2.3881,0.0,2.3653,2.4056,2.4309,2.4309,2.4926,2.5798,2.6899,2.7811,2.8649,2.9369,2.9247,2.9247,2.9232,2.8108,2.72,2.6422,2.5714,2.5014,2.4381,2.4381,2.4042,2.3496,2.3496,2.3333,2.3108,2.3108,2.3108,2.3108,2.3108,2.3108,2.3108,2.3108,2.3108,2.3108,2.3108,2.3198,2.3275,2.3275,2.3471,2.3872,2.4567,2.4624,2.4922,2.5673,2.5063,2.4851,2.537,2.4928,2.4704,2.481,2.4361,2.4453,2.5116,2.5155,2.5375,2.5899,2.5899,2.5899,2.5914,2.6482,2.6761,2.6791,2.7345,2.76,2.76,2.76,2.76,2.76,2.76,2.76,2.76,2.76,2.76,2.76,2.76,2.76,2.76,2.76,2.76,2.76,2.76,2.76,2.76,2.76,2.76,2.76,2.76,2.76,2.76,2.76,2.76,2.76,2.76,2.76,2.76,2.76,2.76,2.76,2.76,2.76,2.76,2.76,2.76,2.76,2.76,0.0,2.6669,2.6669,2.6108,2.5728,2.5728,2.5618,2.5301,2.4688,2.4542,2.4519,2.4593,2.4731,2.4829,2.4928,2.5986,2.7006,2.7953,2.9755,3.0655,3.0672,3.1227,3.1161,3.0465,2.9811,2.8764,2.7372,2.6783,2.6012,2.5127,2.5127,2.4702,2.4117,2.4029,2.3703,2.3221,2.3133,2.3108,2.3108,2.3108,2.3108,2.3108,2.3108,2.3108,2.3108,2.3108,2.3679,2.4118,2.4118,2.5203,2.6027,2.6149,2.6149,2.6469,2.7188,2.6575,2.5933,2.5425,2.5301,2.5534,2.6152,2.6093,2.6416,2.712,2.7145,2.721,2.7285,2.7285,2.7285,2.7285,2.7405,2.745,2.745,2.754,2.76,2.76,2.76,2.76,2.76,2.76,2.76,2.76,2.76,2.76,2.76,2.76,2.76,2.76,2.76,2.76,2.76,2.76,2.76,2.76,2.76,2.76,2.76,2.76,2.76,2.76,2.76,2.76,2.76,2.76,2.76,2.76,2.76,2.76,2.76,2.76,2.76,2.76,2.76,2.76,2.76,2.76,0.0,2.7433,2.7433,2.7331,2.7265,2.7265,2.668,2.6285,2.6153,2.5563,2.5475,2.6049,2.6661,2.7247,2.775,2.7462,2.8211,3.0016,3.0908,3.1333,3.1346,3.1451,3.1438,3.1278,3.0497,3.002,2.9732,2.8924,2.7809,2.6555,2.6555,2.5826,2.4612,2.418,2.3941,2.3803,2.3283,2.3108,2.3108,2.4323,2.4018,2.3884,2.4266,2.4018,2.3884,2.4266,2.4639,2.4908,2.4908,2.5481,2.6068,2.6457,2.651,2.68,2.7549,2.728,2.6956,2.6628,2.6587,2.6733,2.7086,2.7086,2.7255,2.76,2.76,2.76,2.76,2.76,2.76,2.76,2.76,2.76,2.76,2.76,2.76,2.76,2.76,2.76,2.76,2.76,2.76,2.76,2.76,2.76,2.76,2.76,2.76,2.76,2.76,2.76,2.76,2.76,2.76,2.76,2.76,2.76,2.76,2.76,2.76,2.76,2.76,2.76,2.76,2.76,2.76,2.76,2.76,2.76,2.76,2.76,2.76,2.76,2.76,2.76,2.76,2.76,2.76,2.76,2.76,2.76,2.76,2.76,2.728,2.6935,2.6526,2.651,2.6661,2.6997,2.7612,2.8471,2.9513,2.9257,2.974,3.1025,3.1363,3.1511,3.1511,3.1511,3.1511,3.1511,3.1117,3.0703,3.0269,2.9858,2.907,2.7989,2.7522,2.7048,2.6506,2.5333,2.4957,2.5019,2.3976,2.3572,2.3521,2.5398,2.4922,2.4738,2.5287,2.4794,2.4538,2.5287,2.5398,2.5453,2.5618,2.581,2.6135,2.668,2.6747,2.6982,2.7534,2.76,2.76,2.76,2.76,2.76,2.76,2.76,2.76,2.76,2.76,2.76,2.76,2.76,2.76,2.76,2.76,2.76,2.76,2.76,2.76,2.76,2.76,2.76,2.76,2.76,2.76,2.76,2.76,2.76,2.76,2.76,2.7705,2.7839,2.7839,2.7944,2.8064,2.8064,2.8064,2.8064,2.8064,2.7959,2.7809,2.7645,2.76,2.76,2.76,2.76,2.76,2.76,2.76,2.76,2.76,2.76,2.76,2.76,2.76,2.76,2.76,0.0,2.76,2.76,2.76,2.76,2.76,2.76,2.76,2.76,2.76,2.7419,2.703,2.746,2.7869,2.8189,2.8633,2.9435,3.0688,3.0746,3.0966,3.1496,3.1511,3.1511,3.1511,3.1511,3.1511,3.1511,3.1511,3.1161,3.0584,3.0584,3.0072,2.9254,2.8588,2.8348,2.8222,2.6564,2.6058,2.6122,2.4715,2.4192,2.4104,2.5398,2.537,2.5342,2.5398,2.4794,2.4538,2.5287,2.5398,2.5646,2.6336,2.7008,2.7458,2.7509,2.7524,2.7534,2.76,2.76,2.76,2.76,2.76,2.76,2.76,2.76,2.76,2.76,2.76,2.76,2.76,2.76,2.76,2.76,2.76,2.76,2.76,2.76,2.76,2.76,2.76,2.76,2.76,2.76,2.76,2.76,2.76,2.76,2.76,2.76,2.8004,2.8532,2.8532,2.8921,2.9457,2.9457,2.9457,2.9457,2.9457,2.8996,2.8382,2.7764,2.76,2.76,2.76,2.76,2.76,2.76,2.76,2.76,2.76,2.76,2.76,2.76,2.76,2.76,2.76,0.0,0.0,2.76,2.76,2.76,2.76,2.76,2.76,2.76,2.76,2.7836,2.8394,2.848,2.9019,3.0216,3.0322,3.0688,3.1393,3.1437,3.1452,3.1511,3.1511,3.1511,3.1511,3.1511,3.1511,3.1511,3.1511,3.1467,3.1409,3.1409,3.097,3.0208,3.0133,2.9645,2.8783,2.7352,2.6807,2.6683,2.5268,2.4725,2.465,2.6745,2.639,2.6229,2.6666,2.6162,2.5919,2.664,2.6745,2.6864,2.7152,2.7433,2.76,2.76,2.76,2.76,2.76,2.76,2.76,2.76,2.76,2.76,2.76,2.76,2.76,2.76,2.76,2.76,2.76,2.76,2.76,2.76,2.76,2.76,2.76,2.76,2.781,2.8165,2.8165,2.8376,2.8717,2.8717,2.8717,2.8764,2.9218,2.9414,2.9389,2.9446,2.9896,3.0339,2.9493,2.9944,3.0779,3.0335,3.0221,3.0143,2.9726,2.94,2.9146,2.8918,2.8229,2.76,2.76,2.76,2.76,2.76,2.76,2.76,2.76,2.76,2.76,2.76,2.76,2.76,2.76,0.0,2.76,2.76,2.76,2.76,2.76,2.76,2.76,2.76,2.7989,2.8344,2.8591,2.9331,2.9997,3.0468,3.0893,3.1231,3.1496,3.1511,3.1511,3.1511,3.1511,3.1511,3.1511,3.1511,3.1511,3.1511,3.1511,3.1511,3.1511,3.1511,3.1322,3.097,2.9919,2.9628,2.9614,2.7499,2.6972,2.7242,2.5815,2.531,2.5222,2.76,2.7188,2.7008,2.7524,2.6982,2.6747,2.7484,2.7408,2.7331,2.7575,2.76,2.76,2.76,2.76,2.76,2.76,2.76,2.76,2.76,2.76,2.76,2.76,2.76,2.76,2.76,2.76,2.76,2.76,2.76,2.76,2.76,2.76,2.76,2.76,2.76,2.7835,2.8238,2.8415,2.8732,2.915,2.9578,2.9749,2.9829,3.0564,3.086,3.0854,3.0898,3.1337,3.1773,3.0866,3.1299,3.2109,3.1445,3.1072,3.0796,3.0343,3.0043,2.9864,2.9864,2.9082,2.8184,2.7974,2.7764,2.76,2.76,2.76,2.76,2.76,2.76,2.76,2.76,2.76,2.76,2.76,2.76,2.76,2.76,2.76,2.76,2.76,2.7794,2.7914,2.7914,2.8502,2.8996,2.9194,3.0006,3.0596,3.0804,3.1246,3.1511,3.1511,3.1511,3.1511,3.1511,3.1511,3.1511,3.1511,3.1511,3.1511,3.1511,3.1511,3.1511,3.1511,3.1511,3.1511,3.1409,3.0269,3.0133,3.045,2.8182,2.7604,2.7946,2.6424,2.5862,2.5787,2.76,2.76,2.76,2.76,2.6982,2.6747,2.7484,2.6982,2.6774,2.7509,2.76,2.76,2.76,2.76,2.76,2.76,2.76,2.76,2.76,2.76,2.76,2.76,2.76,2.76,2.76,2.76,2.76,2.76,2.76,2.76,2.76,2.76,2.76,2.76,2.7585,2.7625,2.765,2.8262,2.8527,2.8645,2.9973,3.0523,3.0603,3.1349,3.1622,3.1622,3.1622,3.2047,3.2616,3.2616,3.3056,3.3495,3.2815,3.2104,3.1524,3.1496,3.1046,3.0522,3.0507,3.0058,2.9457,2.8771,2.8109,2.76,2.76,2.76,2.76,2.76,2.76,2.76,2.76,2.76,2.76,2.76,2.76,2.76,2.76,2.76,2.76,2.76,2.8188,2.8607,2.8607,2.9205,2.9873,3.0441,3.0498,3.0787,3.1451,3.1511,3.1511,3.1511,3.1511,3.1511,3.1511,3.1511,3.1511,3.1511,3.1511,3.1511,3.1511,3.1511,3.1511,3.1511,3.1511,3.1511,3.1511,3.1511,3.1511,3.1322,2.9659,2.9002,2.878,2.7129,2.6499,2.6411,2.76,2.76,2.76,2.76,2.7408,2.7357,2.7575,2.7408,2.7357,2.7575,2.76,2.76,2.76,2.76,2.76,2.76,2.76,2.76,2.76,2.76,2.76,2.76,2.76,2.76,2.76,2.76,2.76,2.76,2.76,2.76,2.76,2.76,2.76,2.7625,2.8042,2.8238,2.8317,2.9391,3.0103,3.0622,3.1489,3.2115,3.2634,3.3351,3.3634,3.3639,3.3698,3.4145,3.4555,3.363,3.4072,3.4887,3.4211,3.3846,3.3489,3.2544,3.2118,3.1855,3.1324,3.0746,3.0073,2.9445,2.8786,2.8293,2.8293,2.7944,2.76,2.76,2.76,2.76,2.76,2.76,2.76,2.76,2.76,2.76,2.76,2.76,2.7779,2.8233,2.8472,2.8786,2.9277,2.9864,3.0298,3.049,3.0923,3.1297,3.1496,3.1511,3.1511,3.1511,3.1511,3.1511,3.1511,3.1511,3.1511,3.1511,3.1511,3.1511,3.1511,3.1511,3.1511,3.1511,3.1511,3.1511,3.1467,3.0896,3.0644,3.0554,2.9442,2.862,2.8019,2.755,2.6973,2.6461,2.76,2.76,2.76,2.76,2.76,2.76,2.76,2.76,2.76,2.76,2.76,2.76,2.76,2.76,2.76,2.76,2.76,2.76,2.76,2.76,2.76,2.76,2.76,2.76,2.76,2.76,2.76,2.76,2.76,2.76,2.76,2.76,2.76,2.764,2.8257,2.8686,2.8993,3.0003,3.098,3.1902,3.2576,3.3251,3.3914,3.4658,3.4945,3.4952,3.4994,3.5253,3.547,3.4657,3.4752,3.5121,3.4736,3.4431,3.4062,3.3235,3.2815,3.2559,3.2394,3.1632,3.0878,3.0803,2.9897,2.8996,2.8996,2.8693,2.8319,2.8064,2.8004,2.7914,2.7645,2.76,2.76,2.76,2.7824,2.8004,2.8004,2.8229,2.8543,2.8936,2.9205,2.9505,2.9909,3.0537,3.0883,3.0883,3.1271,3.1511,3.1511,3.1511,3.1511,3.1511,3.1511,3.1511,3.1511,3.1511,3.1511,3.1511,3.1511,3.1511,3.1511,3.1511,3.1511,3.1511,3.1511,3.1511,3.1467,3.097,3.0777,3.0673,2.9858,2.9192,2.8652,2.7953,2.7384,2.6939,2.76,2.76,2.76,2.76,2.76,2.76,2.76,2.76,2.76,2.76,2.76,2.76,2.76,2.76,2.76,2.76,2.76,2.76,2.76,2.76,2.76,2.76,2.76,2.76,2.76,2.76,2.76,2.76,2.76,2.76,2.76,2.7675,2.768,2.7705,2.8499,2.9154,2.9726,3.045,3.1477,3.2661,3.334,3.4006,3.4675,3.5329,3.56,3.56,3.56,3.56,3.56,3.56,3.5144,3.46,3.46,3.4211,3.3735,3.3556,3.3119,3.2815,3.3365,3.2555,3.1768,3.252,3.1297,2.9919,2.9723,2.969,2.9507,2.8907,2.8734,2.8528,2.7961,2.7866,2.7866,2.7866,2.8366,2.8786,2.8786,2.9259,2.9636,2.9654,3.0163,3.0522,3.0597,3.1137,3.1511,3.1511,3.1511,3.1511,3.1511,3.1569,3.1584,3.1584,3.163,3.1675,3.1675,3.1675,3.1615,3.1511,3.1511,3.1511,3.1511,3.1511,3.1511,3.1511,3.1511,3.1511,3.1511,3.1511,3.1511,3.1438,3.0673,3.0359,3.0103,2.8524,2.7887,2.7703,2.76,2.76,2.76,2.76,2.76,2.76,2.76,2.76,2.76,2.76,2.76,2.76,2.76,2.76,2.76,2.76,2.76,2.76,2.76,2.76,2.76,2.76,2.76,2.76,2.76,2.76,2.76,2.76,2.76,2.76,2.7625,2.8091,2.8332,2.846,3.0062,3.064,3.0491,3.216,3.3041,3.341,3.4089,3.4755,3.538,3.5532,3.56,3.56,3.56,3.56,3.56,3.56,3.5144,3.46,3.46,3.4871,3.4864,3.3277,3.3093,3.3287,3.2922,3.2586,3.2532,3.3209,3.3065,3.2311,3.0679,3.0365,3.0341,3.0202,2.975,2.9482,2.9869,2.9965,2.9965,2.9965,3.0063,3.0156,3.0156,2.9845,2.9786,3.0253,3.0417,3.0717,3.1227,3.1406,3.1511,3.1511,3.1511,3.1511,3.1511,3.1998,3.2279,3.2279,3.2781,3.3066,3.3066,3.3066,3.2557,3.1511,3.1511,3.1511,3.1511,3.1511,3.1511,3.1511,3.1511,3.1511,3.1511,3.1511,3.1511,3.1467,3.1307,3.0837,3.0238,2.9889,2.9286,2.8588,2.76,2.76,2.76,2.76,2.76,2.76,2.76,2.76,2.76,2.76,2.76,2.76,2.76,2.76,2.76,2.76,2.76,2.76,2.76,2.76,2.76,2.76,2.76,2.76,2.76,2.76,2.76,2.76,2.76,2.76,2.76,2.8243,2.8566,2.8674,3.027,3.1189,3.1624,3.265,3.3461,3.4096,3.4451,3.4616,3.4681,3.5005,3.4918,3.4657,3.4657,3.4657,3.4728,3.5385,3.4958,3.4186,3.4503,3.4616,3.4496,3.3761,3.3598,3.3659,3.3953,3.3572,3.3235,3.3912,3.4087,3.3698,3.2289,3.2008,3.1946,3.1615,3.1289,3.1042,3.1076,3.1072,3.1072,3.1072,3.107,3.1073,3.1073,3.0733,3.0627,3.0928,3.0972,3.1107,3.1466,3.1511,3.1511,3.1511,3.1791,3.1983,3.1983,3.2591,3.2973,3.2972,3.3308,3.3502,3.3511,3.3511,3.3154,3.2437,3.2123,3.1974,3.1959,3.1645,3.1511,3.1511,3.1511,3.1511,3.1511,3.1511,3.1511,3.1511,3.1511,3.1248,3.0837,3.0419,2.9473,2.8298,2.76,2.76,2.76,2.76,2.76,2.76,2.76,2.76,2.76,2.76,2.76,2.76,2.76,2.76,2.76,2.76,2.76,2.76,2.76,2.76,2.76,2.76,2.76,2.7645,2.7764,2.7764,2.7705,2.76,2.7705,2.7764,2.7779,2.8671,2.9037,2.8992,3.0379,3.1606,3.2615,3.2724,3.3495,3.4576,3.4479,3.4161,3.3811,3.426,3.4087,3.3582,3.3582,3.3547,3.3624,3.484,3.4447,3.3547,3.4087,3.3962,3.3659,3.3971,3.3862,3.3836,3.4958,3.452,3.3937,3.4616,3.4759,3.464,3.4062,3.3836,3.3625,3.3054,3.2842,3.2641,3.2192,3.2119,3.2119,3.2119,3.2101,3.2061,3.1945,3.1796,3.1697,3.1697,3.1697,3.1682,3.168,3.1567,3.1569,3.1658,3.2205,3.2565,3.266,3.3318,3.3683,3.3677,3.3765,3.3856,3.3832,3.3832,3.3837,3.3829,3.317,3.2796,3.2662,3.2093,3.1839,3.1839,3.172,3.1675,3.166,3.1555,3.1511,3.1511,3.1511,3.1511,3.1409,3.0614,2.938,2.8117,2.76,2.76,2.76,2.76,2.76,2.76,2.76,2.76,2.76,2.76,2.76,2.76,2.76,2.76,2.76,2.76,2.76,2.76,2.76,2.76,2.76,2.76,2.76,2.7869,2.8442,2.8457,2.8173,2.76,2.8173,2.8457,2.8498,3.0286,3.0808,3.0336,3.2231,3.2903,3.2636,3.3229,3.3912,3.4552,3.3962,3.4037,3.4406,3.3912,3.3684,3.3582,3.3582,3.3251,3.2841,3.3608,3.3365,3.2734,3.2841,3.3224,3.3375,3.2241,3.2718,3.3633,3.3811,3.4161,3.464,3.5293,3.547,3.543,3.5339,3.4871,3.4422,3.4364,3.3866,3.3609,3.4104,3.4184,3.4184,3.4184,3.4193,3.399,3.3412,3.2833,3.2465,3.2465,3.2465,3.2458,3.2455,3.1875,3.1732,3.2309,3.2443,3.2736,3.3333,3.3999,3.4362,3.4348,3.4949,3.5228,3.5248,3.5248,3.5233,3.522,3.4547,3.3918,3.3365,3.3275,3.323,3.32,3.2632,3.2348,3.2303,3.1735,3.1511,3.1511,3.1511,3.1511,3.1409,3.0614,3.0133,2.9721,2.76,2.76,2.76,2.76,2.76,2.76,2.76,2.76,2.76,2.76,2.76,2.76,2.76,2.76,2.76,2.76,2.76,2.76,2.76,2.7959,2.8169,2.8169,2.8528,2.8858,2.9146,2.9146,2.8996,2.8723,2.8996,2.9146,2.9187,3.0372,3.0777,3.055,3.1828,3.2465,3.2614,3.2922,3.3209,3.3495,3.3572,3.3297,3.2875,3.3013,3.2788,3.2489,3.2879,3.2571,3.216,3.3235,3.2879,3.2064,3.2465,3.2532,3.2461,3.261,3.3103,3.3761,3.4496,3.4934,3.523,3.5515,3.56,3.56,3.56,3.5362,3.5161,3.5161,3.4918,3.48,3.5098,3.5161,3.5161,3.5161,3.4544,3.3937,3.3633,3.268,3.2148,3.2547,3.2933,3.315,3.3096,3.2816,3.2933,3.3681,3.3668,3.3926,3.4626,3.4901,3.5056,3.5056,3.535,3.5504,3.5504,3.5504,3.5504,3.5504,3.519,3.4696,3.4038,3.3664,3.3499,3.3484,3.3185,3.3066,3.3036,3.2751,3.2632,3.2587,3.2183,3.1824,3.1467,3.1087,3.0673,3.0103]}]]